     2              OBSERVATION DATA    GPS                 RINEX VERSION / TYPE
teqc 1997Jul24 19970814                                     PGM / RUN BY / DATE
                                                            COMMENT
BIT 2 OF LLI FLAGS DATA COLLECTED UNDER A-S CONDITION       COMMENT
BIT 2 OF LLI FLAGS DATA COLLECTED UNDER A-S CONDITION       COMMENT
Original Marker Name: 1102                                  COMMENT
Campaign Name: hpgn ca 1991                                 COMMENT
4-Character Station Name: 1102                              COMMENT
6-Character Antenna Code: TRMSST                            COMMENT
Vertical Measurement Point: BPA                             COMMENT
Vertical Offset to Rinex Ref. Point: 0.0000                 COMMENT
Radial Measurement Point: RRP                               COMMENT
Radial Offset to Rinex Ref. Point: 0.0000                   COMMENT
Antenna Height from Field Measurement: 2.2200 m             COMMENT
Original XYZ: -2398039.0270 -4814607.9530 3417708.8953      COMMENT
New XYZ position is based on association with SCEC monument COMMENT
E1C8K7S0+0011. Position of that monument is believed to be  COMMENT
valid to within 1 m horizontally; vertical accuracy         COMMENT
should be no worse than 3-times this value.                 COMMENT
                                                            COMMENT
Revised Rinex header created by UCSD GPS archive for        COMMENT
GSAC on 10-Apr-1999 (1999:100) 03:23:12 GMT                 COMMENT
For assistance contact dagnew@ucsd.edu or hjohnson@ucsd.edu COMMENT
                                                            COMMENT
HPGN 11-02                                                  MARKER NAME
unknown CALIF DEPT TRANSPORTATION                           OBSERVER / AGENCY
621 TRIMBLE 4000 SST NP 4.30 / SP 4.20                      REC # / TYPE / VERS
9 TR 4000SST L1/L2 GEO                                      ANT # / TYPE
 -2398040.0000 -4814601.0000  3417705.0000                  APPROX POSITION XYZ
        2.2200        0.0000        0.0000                  ANTENNA: DELTA H/E/N
     1     1     0                                          WAVELENGTH FACT L1/2
     3    C1    L1    L2                                    # / TYPES OF OBSERV
     0                                                      INTERVAL
  1991     4     7    20    26    0.000000                  TIME OF FIRST OBS
  1991     4     8     3    29   60.000000                  TIME OF LAST OBS
     0                                                      # OF SATELLITES
                                                            END OF HEADER
 91  4  7 20 26  0.0000000  0  4G18G11G14G19
  20482649.344          -0.51318
  24573048.0944         -0.43655
  23652431.4844         -0.60155
  21251440.8834         -0.35756
 91  4  7 20 26 15.0000000  0  4G18G11G14G19
  20480839.3594      -9510.91548
  24563803.2734     -48596.99845
  23660891.4614      44441.92745
  21247895.9694     -18628.57646
 91  4  7 20 26 30.0000000  0  4G18G11G14G19
  20479049.0554     -18910.86648        -0.29272
  24554562.0944     -97143.41545
  23669349.4064      88905.33845
  21244361.6334     -37210.52847
 91  4  7 20 26 45.0000000  0  4G18G11G14G19
  20477281.2424     -28200.08548     -7238.64363
  24545341.023     -145638.885 5
  23677817.031      133389.324 5        -0.33931
  21240832.547      -55745.893 6
 91  4  7 20 27  0.0000000  0  4G18G11G14G19
  20475537.0784     -37375.17848    -14388.06562
  24536120.7424    -194079.93445        -0.30471
  23686284.7814     177896.69645     34680.48561
  21237313.992      -74231.574 6        -0.33733
 91  4  7 20 27 15.0000000  0  4G18G11G14G19
  20473810.7194     -46435.56548    -21448.10662
  24526911.000     -242465.857 5    -37703.36721
  23694761.6804     222427.24945     69379.37961
  21233807.3914     -92667.23546    -14365.76363
 91  4  7 20 27 30.0000000  0  4G18G11G14G19
  20472110.4384     -55381.65148    -28419.08463
  24517713.313     -290796.657 5    -75363.44521
  23703235.8284     266980.56145    104096.00961
  21230308.102     -111053.341 6    -28692.57622
 91  4  7 20 27 45.0000000  0  4G18G11G14G19
  20470431.2194     -64206.75948    -35295.79163
  24508528.9694    -339065.22645   -112975.09561
  23711719.7974     311562.78745    138835.15361
  21226821.633     -129383.332 6    -42975.66422
 91  4  7 20 28  0.0000000  0  4G18G11G14G19
  20468772.7974     -72923.45848    -42088.02762
  24499349.000     -387283.979 5   -150547.91621
  23720208.023      356160.666 5    173586.49621
  21223338.844     -147669.968 6    -57224.96722
 91  4  7 20 28 15.0000000  0  4G18G11G14G19
  20467137.8444     -81523.61948    -48789.45262
  24490187.2114    -435444.53245   -188075.34161
  23728701.3914     400781.80545    208355.97361
  21219867.992     -165905.563 6    -71434.49823
 91  4  7 20 28 30.0000000  0  4G18G11G14G19
  20465519.3834     -90014.24848    -55405.52763
  24481033.984     -483553.460 5   -225562.60221
  23737194.1414     445418.66845    243137.70461
  21216409.422     -184097.136 7    -85609.72923
 91  4  7 20 28 45.0000000  0  4G18G11G14G19
  20463925.1414     -98394.01848    -61935.21662
  24471889.039     -531609.021 5   -263008.24721
  23745692.0554     490072.21345    277932.43361
  21212953.727     -202243.479 6    -99749.71022
 91  4  7 20 29  0.0000000  0  4G18G11G14G19
  20462355.2734    -106654.87448    -68372.24962
  24462753.930     -579602.987 5   -300405.90821
  23754193.7664     534750.11545    312746.13861
  21209509.898     -220336.897 7   -113848.45423
 91  4  7 20 29 15.0000000  0  4G18G11G14G19
  20460802.5784    -114802.15548    -74720.78163
  24453636.789     -627540.475 5   -337759.54821
  23762702.844      579446.497 5    347574.26421
  21206079.164     -238382.678 6   -127910.08023
 91  4  7 20 29 30.0000000  0  4G18G11G14G19
  20459274.7114    -122835.07148    -80980.19462
  24444518.844     -675420.257 5   -375068.24221
  23771211.813      624161.559 5    382416.91221
  21202652.414     -256380.149 6   -141934.05823
 91  4  7 20 29 45.0000000  0  4G18G11G14G19
  20457768.4454    -130750.42048    -87148.00163
  24435419.063     -723238.781 5   -412329.17621
  23779721.805      668898.189 5    417276.39121
  21199236.844     -274326.227 7   -155917.99422
 91  4  7 20 30  0.0000000  0  4G18G11G14G19
  20456286.5864    -138544.69348    -93221.46163
  24426334.227     -770992.410 5   -449539.54821
  23788240.242      713659.113 5    452154.77121
  21195831.266     -292217.875 7   -169859.51423
 91  4  7 20 30 15.0000000  0  4G18G11G14G19
  20454826.0394    -146215.06048    -99198.37363
  24417258.4304    -818678.02345   -486696.94761
  23796764.969      758446.754 5    487053.98721
  21192438.813     -310052.340 7   -183756.48122
 91  4  7 20 30 30.0000000  0  4G18G11G14G19
  20453386.6174    -153772.32348   -105087.15863
  24408199.852     -866305.930 5   -523809.36121
  23805288.2664     803250.10545    521965.44461
  21189056.461     -327840.454 7   -197617.32622
 91  4  7 20 30 45.0000000  0  4G18G11G14G19
  20451972.6884    -161212.48648   -110884.68862
  24399143.820     -913872.196 5   -560873.73521
  23813821.469      848072.181 5    556891.48421
  21185677.375     -345578.663 7   -211439.28823
 91  4  7 20 31  0.0000000  0  4G18G11G14G19
  20450578.1564    -168537.60548   -116592.58063
  24390103.9844    -961378.29245   -597891.23861
  23822349.5234     892910.82045    591830.43661
  21182308.813     -363269.038 7   -225223.97223
 91  4  7 20 31 15.0000000  0  4G18G11G14G19
  20449205.9694    -175742.00048   -122206.40163
  24381077.320    -1008818.160 5   -634857.14921
  23830887.6334     937771.15845    626786.29861
  21178954.844     -380906.011 7   -238967.04722
 91  4  7 20 31 30.0000000  0  4G18G11G14G19
  20447858.3754    -182831.72448   -127730.87062
  24372059.219    -1056197.794 5   -671776.13321
  23839426.227      982646.419 5    661753.77721
  21175608.414     -398495.915 7   -252673.44922
 91  4  7 20 31 45.0000000  0  4G18G11G14G19
  20446529.6564    -189807.82848   -133166.80263
  24363055.9454   -1103517.67945   -708648.53461
  23847969.3054    1027535.24345    696731.81161
  21172272.078     -416039.689 7   -266343.89723
 91  4  7 20 32  0.0000000  0  4G18G11G14G19
  20445225.5004    -196666.00948   -138510.85062
  24354065.0634   -1150773.39845   -745470.94061
  23856515.3364    1072441.66045    731723.55461
  21168942.469     -433533.378 7   -279975.32423
 91  4  7 20 32 15.0000000  0  4G18G11G14G19
  20443941.9694    -203408.13048   -143764.45762
  24345082.867    -1197966.207 5   -782244.34721
  23865063.3284    1117363.20445    766727.11061
  21165620.125     -450978.913 7   -293569.22223
 91  4  7 20 32 30.0000000  0  4G18G11G14G19
  20442681.281     -210033.953 8   -148927.44623
  24336117.5314   -1245095.90545   -818968.54861
  23873614.5164    1162299.37345    801742.02861
  21162307.203     -468376.530 7   -307125.78923
 91  4  7 20 32 45.0000000  0  4G18G11G14G19
  20441443.2274    -216543.07448   -153999.49763
  24327157.594    -1292161.440 5   -855642.78421
  23882167.3054    1207250.57745    836768.69061
  21159009.953     -485725.504 7   -320644.44523
 91  4  7 20 33  0.0000000  0  4G18G11G14G19
  20440226.4844    -222936.00148   -158981.00963
  24318210.3364   -1339163.25645   -892267.37061
  23890725.7274    1252215.53245    871806.07461
  21155719.391     -503026.771 7   -334125.93523
 91  4  7 20 33 15.0000000  0  4G18G11G14G19
  20439032.2424    -229207.19048   -163867.65863
  24309280.5084   -1386095.31145   -928837.57261
  23899286.0554    1297199.15645    906857.99361
  21152433.641     -520274.938 7   -347566.04423
 91  4  7 20 33 30.0000000  0  4G18G11G14G19
  20437860.141     -235363.109 8   -168664.49023
  24300360.313    -1432964.015 5   -965358.44221
  23907846.227     1342194.472 5    941919.00921
  21149159.820     -537476.504 7   -360969.84123
 91  4  7 20 33 45.0000000  0  4G18G11G14G19
  20436712.7894    -241403.42548   -173371.23563
  24291458.234    -1479768.357 5  -1001829.14721
  23916411.273     1387201.858 5    976989.44821
  21145896.211     -554631.111 7   -374337.04423
 91  4  7 20 34  0.0000000  0  4G18G11G14G19
  20435585.6174    -247324.64148   -177985.18263
  24282562.3054   -1526504.67645  -1038246.82761
  23924982.3524    1432224.09345   1012071.45261
  21142638.898     -571735.679 7   -387665.25723
 91  4  7 20 34 15.0000000  0  4G18G11G14G19
  20434479.9534    -253131.41448   -182509.94863
  24273678.6174   -1573177.59245  -1074615.12761
  23933552.063     1477255.840 5   1047160.85321
  21139395.125     -588795.263 7   -400958.42022
 91  4  7 20 34 30.0000000  0  4G18G11G14G19
  20433397.7734    -258818.71548   -186941.61863
  24264810.844    -1619781.582 5  -1110929.69521
  23942125.359     1522301.873 5   1082261.40721
  21136159.516     -605804.689 6   -414212.49723
 91  4  7 20 34 45.0000000  0  4G18G11G14G19
  20432338.5944    -264385.83648   -191279.64463
  24255960.1334   -1666315.71245  -1147189.84461
  23950699.359     1567361.985 5   1117372.89721
  21132931.992     -622763.517 7   -427427.14623
 91  4  7 20 35  0.0000000  0  4G18G11G14G19
  20431302.0864    -269838.47848   -195528.46463
  24247111.7114   -1712785.32645  -1183399.70861
  23959275.352     1612430.352 5   1152490.85121
  21129713.594     -639677.592 7   -440606.92223
 91  4  7 20 35 15.0000000  0  4G18G11G14G19
  20430286.1174    -275171.71348   -199684.23863
  24238287.7894   -1759185.02045  -1219555.08561
  23967854.4694    1657511.74545   1187618.95261
  21126503.938     -656541.782 7   -453747.83023
 91  4  7 20 35 30.0000000  0  4G18G11G14G19
  20429294.3134    -280383.64548   -203745.48962
  24229466.8054   -1805512.70145  -1255654.37561
  23976435.5234    1702607.55945   1222758.26461
  21123303.766     -673354.546 7   -466848.66323
 91  4  7 20 35 45.0000000  0  4G18G11G14G19
  20428326.0474    -285474.27748   -207712.22563
  24220663.9224   -1851767.95145  -1291697.20761
  23985020.5084    1747717.14245   1257908.32461
  21120115.6174    -690116.12747   -479909.60963
 91  4  7 20 36  0.0000000  0  4G18G11G14G19
  20427380.3984    -290444.16648   -211584.87563
  24211879.180    -1897951.074 5  -1327683.85921
  23993606.1804    1792839.59445   1293068.41061
  21116932.984     -706827.040 7   -492931.07923
 91  4  7 20 36 15.0000000  0  4G18G11G14G19
  20426457.8524    -295295.26548   -215364.95363
  24203097.9694   -1944063.68345  -1363615.54861
  24002196.344     1837972.206 5   1328236.40121
  21113764.305     -723489.486 7   -505914.78423
 91  4  7 20 36 30.0000000  0  4G18G11G14G19
  20425556.2274    -300031.63548   -219055.63762
  24194342.9454   -1990109.64245  -1399495.32961
  24010784.2034    1883110.50945   1363408.82661
  21110606.789     -740107.765 6   -518864.07023
 91  4  7 20 36 45.0000000  0  4G18G11G14G19
  20424676.1174    -304650.86548   -222655.04562
  24185591.406    -2036086.234 5  -1435321.05321
  24019375.4534    1928256.36745   1398587.13861
  21107448.844     -756679.753 7   -531777.28522
 91  4  7 20 37  0.0000000  0  4G18G11G14G19
  20423820.0084    -309151.50348   -226162.04263
  24176856.5864   -2081991.50445  -1471091.20161
  24027970.1254    1973410.87445   1433772.20761
  21104300.508     -773203.717 7   -544653.08522
 91  4  7 20 37 15.0000000  0  4G18G11G14G19
  20422986.3984    -313532.59748   -229575.88562
  24168134.2974   -2127824.24845  -1506804.83661
  24036562.797     2018574.538 5   1468964.38421
  21101170.438     -789679.026 7   -557490.97022
 91  4  7 20 37 30.0000000  0  4G18G11G14G19
  20422174.5784    -317796.49548   -232898.40963
  24159425.0394   -2173586.39445  -1542463.48961
  24045158.344     2063744.620 5   1504161.58921
  21098043.648     -806108.141 7   -570292.85523
 91  4  7 20 37 45.0000000  0  4G18G11G14G19
  20421384.2504    -321942.56148   -236129.11762
  24150727.6644   -2219277.25545  -1578066.52761
  24053756.9694    2108921.45645   1539364.04261
  21094927.242     -822490.679 7   -583058.45823
 91  4  7 20 38  0.0000000  0  4G18G11G14G19
  20420618.9844    -325967.00848   -239265.05362
  24142048.742    -2264892.468 5  -1613610.72021
  24062352.4224    2154108.20245   1574574.22561
  21091815.203     -838822.772 7   -595784.74623
 91  4  7 20 38 15.0000000  0  4G18G11G14G19
  20419877.0004    -329877.02448   -242311.82463
  24133382.0004   -2310439.12845  -1649101.39461
  24070954.094     2199296.998 5   1609785.98321
  21088716.945     -855111.766 6   -608477.44723
 91  4  7 20 38 30.0000000  0  4G18G11G14G19
  20419153.8054    -333673.52948   -245270.14363
  24124727.703    -2355917.644 5  -1684539.03821
  24079554.3444    2244486.89545   1644998.62161
  21085624.398     -871358.600 7   -621137.30023
 91  4  7 20 38 45.0000000  0  4G18G11G14G19
  20418454.2424    -337354.72148   -248138.60863
  24116088.305    -2401325.811 5  -1719921.81921
  24088154.836     2289679.369 5   1680213.25421
  21082542.219     -887561.734 6   -633763.09623
 91  4  7 20 39  0.0000000  0  4G18G11G14G19
  20417774.7274    -340916.11848   -250913.72762
  24107459.1724   -2446658.72145  -1755246.00761
  24096754.8284    2334878.51345   1715433.09261
  21079468.008     -903716.809 7   -646351.45323
 91  4  7 20 39 15.0000000  0  4G18G11G14G19
  20417120.5004    -344358.84048   -253596.37463
  24098845.9384   -2491917.45245  -1790512.38561
  24105356.844     2380082.438 5   1750656.65221
  21076403.109     -919825.136 6   -658903.37823
 91  4  7 20 39 30.0000000  0  4G18G11G14G19
  20416488.1804    -347683.95148   -256187.37562
  24090253.820    -2537102.693 5  -1825721.48321
  24113957.8054    2425289.31145   1785882.53761
  21073345.289     -935887.885 6   -671419.79123
 91  4  7 20 39 45.0000000  0  4G18G11G14G19
  20415879.3204    -350889.57948   -258685.27463
  24081663.398    -2582212.085 5  -1860871.50521
  24122563.2814    2470501.09445   1821112.21761
  21070299.320     -951903.117 6   -683899.17423
 91  4  7 20 40  0.0000000  0  5G18G11G14G19G 2
  20415289.7274    -353975.69848   -261090.05063
  24073096.7734   -2627245.50445  -1895962.31261
  24131165.438     2515717.034 5   1856345.15321
  21067259.094     -967871.299 7   -696341.89523
  24509349.9224         -0.72554
 91  4  7 20 40 15.0000000  0  5G18G11G14G19G 2
  20414726.8134    -356942.86948   -263402.13963
  24064534.914    -2672203.031 5  -1930993.96921
  24139773.945     2560936.361 5   1891580.71121
  21064229.992     -983792.897 6   -708748.32123
  24498337.6644     -57899.42044
 91  4  7 20 40 30.0000000  0  5G18G11G14G19G 2
  20414183.7274    -359789.44748   -265620.26563
  24055999.461    -2717082.876 5  -1965965.11221
  24148378.633     2606160.062 5   1926819.70121
  21061211.445     -999666.461 6   -721117.31423
  24487321.1254    -115754.71545
 91  4  7 20 40 45.0000000  0  5G18G11G14G19G 2
  20413663.2974    -362527.91648   -267754.14763
  24047471.508    -2761897.007 5  -2000885.06921
  24156982.320     2651375.359 5   1962052.12121
  21058193.1174   -1015504.41146   -733458.56263
  24476321.6334    -173578.75545
 91  4  7 20 41  0.0000000  0  5G18G11G14G19G 2
  20413163.9774    -365148.73148   -269796.34563
  24038960.2034   -2806635.53345  -2035746.11061
  24165589.813     2696591.287 4   1997285.05221
  21055189.9534   -1031297.43147   -745764.80163
  24465327.438     -231361.863 5        -0.24731
 91  4  7 20 41 15.0000000  0  5G18G11G14G19G 2
  20412688.992     -367645.343 8   -271741.77123
  24030458.5164   -2851291.53345  -2070542.84561
  24174192.7034    2741814.15045   2032523.35761
  21052193.922    -1047038.984 6   -758030.92923
  24454337.047     -289097.403 5    -44988.75221
 91  4  7 20 41 30.0000000  0  5G18G11G14G19G 2
  20412238.844     -370022.212 8   -273593.89323
  24021982.148    -2895869.311 5  -2105278.60121
  24182801.6414    2787038.91345   2067763.14561
  21049207.180    -1062733.766 7   -770260.61523
  24443358.695     -346789.921 5    -89943.68421
 91  4  7 20 41 45.0000000  0  5G18G11G14G19G 2
  20411808.3364    -372276.61848   -275350.58563
  24013511.164    -2940365.915 5  -2139951.13721
  24191409.641     2832267.906 5   2103006.25921
  21046231.305    -1078379.098 6   -782451.76823
  24432394.156     -404436.626 5   -134862.96021
 91  4  7 20 42  0.0000000  0  5G18G11G14G19G 2
  20411404.063     -374401.010 8   -277005.96623
  24005056.727    -2984773.115 5  -2174553.99521
  24200015.9774    2877508.27845   2138258.23061
  21043264.836    -1093967.560 6   -794598.60923
  24421429.5784    -462029.62145   -179740.36861
 91  4  7 20 42 15.0000000  0  5G18G11G14G19G 2
  20411020.570     -376416.752 8   -278576.68823
  23996620.742    -3029111.881 5  -2209103.52921
  24208624.5784    2922738.47145   2173502.25161
  21040305.211    -1109520.408 6   -806717.69823
  24410475.6094    -519589.88545   -224592.28161
 91  4  7 20 42 30.0000000  0  5G18G11G14G19G 2
  20410658.625     -378314.736 8   -280055.64923
  23988201.617    -3073373.253 5  -2243592.79721
  24217232.4694    2967966.74245   2208744.80361
  21037353.500    -1125029.013 7   -818802.30823
  24399534.563     -577108.544 5   -269411.76821
 91  4  7 20 42 45.0000000  0  5G18G11G14G19G 2
  20410321.2344    -380086.53448   -281436.28163
  23979789.7894   -3117548.26045  -2278014.71361
  24225837.3284    3013201.00345   2243992.00261
  21034414.742    -1140484.995 6   -830845.91623
  24388592.297     -634577.034 5   -314192.15921
 91  4  7 20 43  0.0000000  0  5G18G11G14G19G 2
  20410005.297     -381744.965 8   -282728.58023
  23971399.9774   -3161649.45145  -2312379.14961
  24234442.828     3058427.997 5   2279233.55821
  21031480.070    -1155901.350 6   -842858.64223
  24377666.586     -692008.310 5   -358943.54921
 91  4  7 20 43 15.0000000  0  5G18G11G14G19G 2
  20409711.500     -383284.193 8   -283927.99323
  23963020.711    -3205670.535 5  -2346681.15321
  24243050.0554    3103653.49945   2314473.92661
  21028553.2734   -1171272.12946   -854835.86363
  24366743.617     -749396.159 5   -403661.09221
 91  4  7 20 43 30.0000000  0  4G18G11G19G 2
  20409443.609     -384704.013 8   -285034.36123
  23954658.484    -3249611.153 5  -2380920.44621
  21025636.102    -1186597.533 7   -866777.72423
  24355833.5554    -806740.28645   -448344.56861
 91  4  7 20 43 45.0000000  0  4G18G11G19G 2
  20409195.328     -386005.030 8   -286048.15323
  23946317.828    -3293471.457 5  -2415097.19021
  21022729.750    -1201878.005 6   -878684.57022
  24344927.648     -864041.242 5   -492994.40121
 91  4  7 20 44  0.0000000  0  4G18G11G19G 2
  20408972.477     -387183.537 8   -286966.48523
  23937984.5164   -3337247.34245  -2449208.11961
  21019830.602    -1217109.822 6   -890553.50523
  24334032.922     -921294.906 5   -537607.39521
 91  4  7 20 44 15.0000000  0  4G18G11G19G 2
  20408767.453     -388252.366 8   -287799.35423
  23929665.938    -3380951.054 5  -2483262.83421
  21016938.867    -1232305.799 6   -902394.51423
  24323144.0234    -978513.85945   -582193.32761
 91  4  7 20 44 30.0000000  0  4G18G11G19G 2
  20408589.703     -389193.889 8   -288533.02023
  23921369.8524   -3424565.03546  -2517247.62161
  21014058.742    -1247448.807 6   -914194.24023
  24312269.6254   -1035680.79445   -626738.74261
 91  4  7 20 44 45.0000000  0  4G18G11G19G 2
  20408431.125     -390017.283 8   -289174.64923
  23913084.7504   -3468098.23745  -2551169.45861
  21011185.148    -1262548.126 6   -925959.92823
  24301394.8834   -1092804.67045   -671250.62161
 91  4  7 20 45  0.0000000  0  4G18G11G19G 2
  20408297.945     -390723.513 8   -289724.97123
  23904816.2424   -3511550.94645  -2585028.58761
  21008316.883    -1277604.540 6   -937692.18223
  24290528.6954   -1149886.22945   -715729.52161
 91  4  7 20 45 15.0000000  0  4G18G11G19G 2
  20408184.563     -391311.991 8   -290183.54723
  23896558.820    -3554922.397 5  -2618824.38321
  21005464.023    -1292617.751 6   -949390.77523
  24279681.7114   -1206924.91545   -760175.00961
 91  4  7 20 45 30.0000000  0  4G18G11G19G 2
  20408094.875     -391782.214 8   -290549.97223
  23888328.4614   -3598211.43945  -2652555.97461
  21002615.102    -1307587.013 6   -961055.11823
  24268835.2584   -1263919.87645   -804586.43161
 91  4  7 20 45 45.0000000  0  4G18G11G19G 2
  20408026.789     -392135.496 8   -290825.27423
  23880101.453    -3641419.293 5  -2686224.31621
  20999773.633    -1322513.854 6   -972686.40923
  24257991.5394   -1320872.57345   -848964.92161
 91  4  7 20 46  0.0000000  0  4G18G11G19G 2
  20407986.852     -392367.571 8   -291006.12523
  23871893.227    -3684541.405 5  -2719825.80321
  20996940.602    -1337394.149 7   -984281.43223
  24247163.086    -1377778.601 5   -893307.04621
 91  4  7 20 46 15.0000000  0  4G18G11G19G 2
  20407963.398     -392475.360 8
  23863702.773    -3727574.151 5  -2753357.71621
  20994119.7664   -1352224.89446   -995837.84563
  24236345.211    -1434634.493 5   -937610.12521
 91  4  7 20 46 30.0000000  0  4G18G11G19G 2
  20407965.477     -392470.034 8
  23855531.570    -3770528.838 5  -2786828.74021
  20991301.438    -1367017.776 7  -1007364.75323
  24225533.4384   -1491451.73845   -981883.12161
 91  4  7 20 46 45.0000000  0  4G18G11G19G 2
  20407988.352     -392341.221 8
  23847379.1254   -3813394.57145  -2820230.50461
  20988498.766    -1381762.354 6  -1018854.01523
  24214730.0784   -1548219.73645  -1026117.71361
 91  4  7 20 47  0.0000000  0  4G18G11G19G 2
  20408037.477     -392094.263 8
  23839234.922    -3856175.913 5  -2853566.45821
  20985703.484    -1396463.711 6  -1030309.60723
  24203938.953    -1604943.212 5  -1070317.60221
 91  4  7 20 47 15.0000000  0  4G18G11G19G 2
  20408104.500     -391732.640 8   -290511.46223
  23831108.328    -3898876.189 5  -2886839.29621
  20982911.516    -1411125.436 6  -1041734.31123
  24193153.6254   -1661625.75145  -1114485.64061
 91  4  7 20 47 30.0000000  0  4G18G11G19G 2
  20408199.836     -391245.607 8   -290131.97423
  23822998.4774   -3941484.38145  -2920040.31861
  20980128.422    -1425737.023 6  -1053119.94623
  24182373.438    -1718256.573 5  -1158613.32021
 91  4  7 20 47 45.0000000  0  4G18G11G19G 2
  20408315.898     -390630.455 8   -289652.65123
  23814912.258    -3983997.607 5  -2953167.39821
  20977363.086    -1440296.058 6  -1064464.63823
  24171604.047    -1774832.821 5  -1202698.52021
 91  4  7 20 48  0.0000000  0  4G18G11G19G 2
  20408456.367     -389898.027 8   -289081.94823
  23806832.8054   -4026426.18445  -2986228.49361
  20974597.586    -1454813.285 6  -1075776.74623
  24160850.891    -1831365.119 5  -1246749.46121
 91  4  7 20 48 15.0000000  0  4G18G11G19G 2
  20408615.273     -389052.529 8   -288423.13323
  23798779.445    -4068773.840 6  -3019226.55621
  20971845.703    -1469292.714 6  -1087059.40023
  24150104.7814   -1887857.42345  -1290769.23361
 91  4  7 20 48 30.0000000  0  4G18G11G19G 2
  20408798.719     -388086.614 8   -287670.48823
  23790734.0314   -4111033.06446  -3052155.67261
  20969095.563    -1483727.318 6  -1098307.13223
  24139359.4534   -1944302.57245  -1334752.24961
 91  4  7 20 48 45.0000000  0  4G18G11G19G 2
  20409006.688     -387000.362 8   -286824.08123
  23782715.422    -4153203.727 5  -3085015.81521
  20966355.883    -1498117.372 6  -1109520.14623
  24128625.523    -2000700.438 5  -1378698.43921
 91  4  7 20 49  0.0000000  0  4G18G11G19G 2
  20409235.273     -385797.071 8   -285886.46623
  23774703.133    -4195288.709 6  -3117809.16121
  20963630.859    -1512466.199 6  -1120701.03923
  24117901.6094   -2057054.17145  -1422610.22961
 91  4  7 20 49 15.0000000  0  4G18G11G19G 2
  20409486.273     -384470.486 8   -284852.78223
  23766713.000    -4237281.274 6  -3150530.50721
  20960903.773    -1526767.552 6  -1131844.93123
  24107188.2424   -2113357.29045  -1466482.59761
 91  4  7 20 49 30.0000000  0  4G18G11G19G 2
  20409764.797     -383021.290 8   -283723.55423
  23758735.9224   -4279181.59845  -3183179.97961
  20958191.4774   -1541022.03846  -1142952.31563
  24096482.281    -2169610.259 5  -1510315.88821
 91  4  7 20 49 45.0000000  0  4G18G11G19G 2
  20410062.211     -381456.215 8   -282504.03923
  23750779.273    -4320996.274 6  -3215762.72121
  20955487.109    -1555236.626 6  -1154028.60123
  24085785.445    -2225819.925 5  -1554115.41221
 91  4  7 20 50  0.0000000  0  4G18G11G19G 2
  20410382.766     -379776.794 8   -281195.41723
  23742837.492    -4362726.544 6  -3248279.66821
  20952789.070    -1569413.034 6  -1165075.13723
  24075096.6884   -2281987.68545  -1597882.32061
 91  4  7 20 50 15.0000000  0  4G18G11G19G 2
  20410722.414     -377987.977 8   -279801.54923
  23734912.4774   -4404377.01246  -3280734.45861
  20950099.758    -1583556.134 6  -1176095.72023
  24064417.758    -2338118.273 5  -1641620.25721
 91  4  7 20 50 30.0000000  0  4G18G11G19G 2
  20411085.016     -376077.551 8   -278312.92023
  23727004.742    -4445935.195 6  -3313117.32121
  20947413.805    -1597653.827 6  -1187080.92323
  24053745.742    -2394199.288 5  -1685319.55221
 91  4  7 20 50 45.0000000  0  4G18G11G19G 2
  20411472.070     -374046.797 8   -276730.52923
  23719111.3054   -4487401.73245  -3345428.76261
  20944741.758    -1611707.167 6  -1198031.56223
  24043085.2734   -2450231.70645  -1728980.96261
 91  4  7 20 51  0.0000000  0  4G18G11G19G 2
  20411880.484     -371900.434 8   -275058.05223
  23711238.9694   -4528781.03945  -3377672.25161
  20942074.734    -1625720.955 6  -1208951.38123
  24032426.367    -2506220.069 5  -1772608.05921
 91  4  7 20 51 15.0000000  0  4G18G11G19G 2
  20412310.813     -369634.712 8   -273292.57923
  23703383.1094   -4570069.02746  -3409844.54961
  20939417.023    -1639691.566 6  -1219837.55723
  24021779.750    -2562160.663 5  -1816197.94221
 91  4  7 20 51 30.0000000  0  4G18G11G19G 2
  20412765.695     -367248.902 8   -271433.52423
  23695540.969    -4611264.772 6  -3441944.98921
  20936767.6174   -1653618.49446  -1230689.69663
  24011143.422    -2618052.809 5  -1859750.07021
 91  4  7 20 51 45.0000000  0  4G18G11G19G 2
  20413241.266     -364746.110 8   -269483.31223
  23687717.2584   -4652371.00945  -3473975.69361
  20934123.984    -1667504.791 6  -1241510.17423
  24000520.773    -2673899.392 5  -1903266.68621
 91  4  7 20 52  0.0000000  0  4G18G11G19G 2
  20413740.289     -362125.157 8   -267441.02923
  23679912.1024   -4693386.02446  -3505935.28861
  20931488.273    -1681349.351 6  -1252298.12723
  23989898.047    -2729698.990 5  -1946746.70721
 91  4  7 20 52 15.0000000  0  4G18G11G19G 2
  20414262.680     -359386.807 8   -265307.26823
  23672126.898    -4734310.340 6  -3537824.23021
  20928865.078    -1695152.914 6  -1263054.14023
  23979290.3674   -2785452.06745  -1990190.45561
 91  4  7 20 52 30.0000000  0  4G18G11G19G 2
  20414807.508     -356530.779 8   -263081.81223
  23664359.672    -4775143.544 6  -3569642.18121
  20926242.578    -1708915.565 6  -1273778.27223
  23968689.531    -2841158.587 5  -2033597.93521
 91  4  7 20 52 45.0000000  0  4G18G11G19G 2
  20415371.305     -353553.594 8   -260761.94923
  23656605.508    -4815881.594 6  -3601385.97621
  20923634.7504   -1722633.58046  -1284467.62263
  23958097.703    -2896814.674 5  -2076966.12121
 91  4  7 20 53  0.0000000  0  4G18G11G19G 2
  20415961.570     -350451.768 8   -258344.96623
  23648873.7194   -4856520.61446  -3633052.60161
  20921031.984    -1736303.700 6  -1295119.64723
  23947516.570    -2952416.692 5  -2120292.16821
 91  4  7 20 53 15.0000000  0  4G18G11G19G 2
  20416575.820     -347227.994 8   -255832.95523
  23641156.406    -4897063.101 6  -3664644.01321
  20918441.234    -1749928.699 6  -1305736.51423
  23936944.953    -3007967.449 5  -2163578.26521
 91  4  7 20 53 30.0000000  0  4G18G11G19G 2
  20417209.523     -343888.850 8   -253231.04723
  23633458.6174   -4937515.23446  -3696165.01961
  20915855.3054   -1763515.06746  -1316323.28463
  23926386.8984   -3063473.17945  -2206829.30061
 91  4  7 20 53 45.0000000  0  4G18G11G19G 2
  20417867.461     -340436.931 8   -250541.26223
  23625775.953    -4977879.060 6  -3727617.21021
  20913277.180    -1777065.358 6  -1326881.93823
  23915829.6094   -3118936.18245  -2250047.01261
 91  4  7 20 54  0.0000000  0  4G18G11G19G 2
  20418548.125     -336858.120 8   -247752.59923
  23618116.8284   -5018140.18746  -3758989.37761
  20910704.5234   -1790565.59446  -1337401.59763
  23905283.430    -3174342.244 5  -2293220.39421
 91  4  7 20 54 15.0000000  0  4G18G11G19G 2
  20419258.453     -333132.580 8   -244849.60823
  23610479.2114   -5058278.67046  -3790265.98661
  20908147.930    -1803996.116 6  -1347866.92623
  23894758.7344   -3229671.72545  -2336334.06861
 91  4  7 20 54 30.0000000  0  4G18G11G19G 2
  20419998.273     -329241.165 8   -241817.36223
  23602866.4614   -5098275.01646  -3821431.82461
  20905610.484    -1817337.862 6  -1358263.07923
  23884244.859    -3284905.272 5  -2379373.00321
 91  4  7 20 54 45.0000000  0  4G18G11G19G 2
  20420760.516     -325229.781 8   -238691.63223
  23595278.7734   -5138174.35846  -3852522.06261
  20903081.7894   -1830636.43746  -1368625.59963
  23873746.555    -3340088.321 5  -2422372.58021
 91  4  7 20 55  0.0000000  0  4G18G11G19G 2
  20421547.711     -321098.902 8   -235472.79323
  23587698.5634   -5177977.06246  -3883537.02361
  20900555.398    -1843892.518 6  -1378954.99823
  23863253.641    -3395221.445 5  -2465333.26921
 91  4  7 20 55 15.0000000  0  4G18G11G19G 2
  20422355.391     -316850.431 8   -232162.32123
  23580146.6644   -5217684.74246  -3914477.92961
  20898041.9614   -1857108.17846  -1389252.90563
  23852769.703    -3450306.406 5  -2508256.40621
 91  4  7 20 55 30.0000000  0  4G18G11G19G 2
  20423187.789     -312479.426 8   -228756.37023
  23572610.266    -5257292.251 6  -3945340.80021
  20895539.2114   -1870278.64946  -1399515.60163
  23842300.352    -3505338.237 5  -2551138.16921
 91  4  7 20 55 45.0000000  0  4G18G11G19G 2
  20424043.492     -307989.003 8   -225257.36523
  23565089.9384   -5296802.11546  -3976127.54661
  20893037.9064   -1883406.76746  -1409745.29163
  23831836.2894   -3560319.55945  -2593980.58461
 91  4  7 20 56  0.0000000  0  4G18G11G19G 2
  20424919.273     -303380.889 8   -221666.65423
  23557589.367    -5336215.434 6  -4006839.09321
  20890548.0704   -1896494.06847  -1419943.18363
  23821382.125    -3615251.925 5  -2636784.85421
 91  4  7 20 56 15.0000000  0  4G18G11G19G 2
  20425818.2504    -298658.47248   -217986.87463
  23550108.461    -5375535.298 6  -4037477.78621
  20888064.5394   -1909544.06446  -1430111.99863
  23810940.1884   -3670138.47845  -2679553.41161
 91  4  7 20 56 30.0000000  0  4G18G11G19G 2
  20426740.602     -293811.430 8   -214209.98623
  23542639.7424   -5414751.41045  -4068035.67661
  20885594.1644   -1922546.84546  -1440244.03463
  23800505.234    -3724968.998 5  -2722278.31921
 91  4  7 20 56 45.0000000  0  4G18G11G19G 2
  20427685.1254    -288845.48948   -210340.45163
  23535199.4924   -5453869.00746  -4098516.76161
  20883124.0864   -1935508.02046  -1450343.64163
  23790081.5004   -3779748.94145  -2764963.81361
 91  4  7 20 57  0.0000000  0  4G18G11G19G 2
  20428653.195     -283756.031 8   -206374.66323
  23527772.9924   -5492882.96246  -4128917.11261
  20880668.3674   -1948422.88546  -1460407.16563
  23779669.3984   -3834473.54345  -2807606.18961
 91  4  7 20 57 15.0000000  0  4G18G11G19G 2
  20429643.5004    -278557.21548   -202323.66763
  23520366.7664   -5531807.30846  -4159247.63361
  20878215.2974   -1961305.78946  -1470445.78463
  23769258.734    -3889156.906 5  -2850216.43321
 91  4  7 20 57 30.0000000  0  4G18G11G19G 2
  20430656.375     -273241.527 8   -198181.59823
  23512976.875    -5570634.368 6  -4189502.34321
  20875771.3754   -1974149.37747  -1480453.76863
  23758861.938    -3943791.701 5  -2892788.83221
 91  4  7 20 57 45.0000000  0  4G18G11G19G 2
  20431690.016     -267805.957 8   -193946.11523
  23505607.6484   -5609360.25846  -4219678.23061
  20873333.8834   -1986950.24646  -1490428.46463
  23748476.453    -3998374.182 5  -2935320.47221
 91  4  7 20 58  0.0000000  0  4G18G11G19G 2
  20432746.2584    -262248.50248   -189615.66163
  23498261.164    -5647982.834 6  -4249773.62321
  20870908.5554   -1999706.72746  -1500368.56763
  23738100.4924   -4052902.53645  -2977809.91461
 91  4  7 20 58 15.0000000  0  4G18G11G19G 2
  20433826.9774    -256571.49648   -185192.04863
  23490929.844    -5686504.107 6  -4279790.06521
  20868488.3754   -2012421.15946  -1510275.90963
  23727729.844    -4107379.029 5  -3020258.96321
 91  4  7 20 58 30.0000000  0  4G18G11G19G 2
  20434929.0004    -250779.81148   -180679.07563
  23483618.6954   -5724928.45646  -4309730.99361
  20866074.0944   -2025098.27447  -1520154.17063
  23717376.3834   -4161808.04245  -3062670.99761
 91  4  7 20 58 45.0000000  0  4G18G11G19G 2
  20436054.828     -244873.263 8   -176076.59123
  23476323.508    -5763255.529 6  -4339596.11121
  20863669.6094   -2037737.96746  -1530003.27463
  23707024.992    -4216189.311 5  -3105045.84621
 91  4  7 20 59  0.0000000  0  4G18G11G19G 2
  20437200.055     -238851.096 8   -171384.01723
  23469048.789    -5801484.128 6  -4369384.52121
  20861271.6094   -2050339.41847  -1539822.58063
  23696685.180    -4270521.927 5  -3147382.76821
 91  4  7 20 59 15.0000000  0  4G18G11G19G 2
  20438367.813     -232709.727 8   -166598.55923
  23461795.9064   -5839610.14946  -4399092.98261
  20858884.180    -2062898.970 6  -1549609.23023
  23686354.422    -4324802.078 5  -3189678.82221
 91  4  7 20 59 30.0000000  0  4G18G11G19G 2
  20439558.008     -226452.173 8   -161722.57023
  23454558.4144   -5877636.35146  -4428723.68561
  20856504.0864   -2075419.99346  -1559365.86163
  23676037.633    -4379032.872 5  -3231936.41921
 91  4  7 20 59 45.0000000  0  4G18G11G19G 2
  20440770.6724    -220077.49548   -156755.31763
  23447343.961    -5915561.625 6  -4458275.70221
  20854127.2814   -2087901.48946  -1569091.69463
  23665728.695    -4433213.302 5  -3274154.76321
 91  4  7 21  0  0.0000000  0  4G18G11G19G 2
  20442007.3054    -213585.66348   -151696.77463
  23440142.8834   -5953385.26446  -4487748.54061
  20851754.7734   -2100343.09446  -1578786.44463
  23655424.148    -4487342.839 6  -3316333.46521
 91  4  7 21  0 15.0000000  0  4G18G11G19G 2
  20443264.9144    -206977.97648   -146547.95563
  23432963.6024   -5991108.42846  -4517143.09361
  20849397.1024   -2112746.48446  -1588451.41563
  23645138.9224   -4541422.72646  -3358473.47561
 91  4  7 21  0 30.0000000  0  4G18G11G19G 2
  20444543.5864    -200256.78948   -141310.70063
  23425803.8054   -6028733.07346  -4546460.88461
  20847043.7664   -2125113.94246  -1598088.38762
  23634855.164    -4595455.259 6  -3400576.57721
 91  4  7 21  0 45.0000000  0  4G18G11G19G 2
  20445846.3054    -193421.77648   -135984.74763
  23418662.867    -6066258.596 6  -4575701.43221
  20844696.7034   -2137445.14246  -1607697.10662
  23624581.906    -4649439.886 6  -3442642.36621
 91  4  7 21  1  0.0000000  0  4G18G11G19G 2
  20447167.0944    -186469.90348   -130567.73363
  23411544.320    -6103681.256 6  -4604861.83521
  20842358.5084   -2149736.71146  -1617274.94763
  23614316.5554   -4703373.17546  -3484668.12961
 91  4  7 21  1 15.0000000  0  4G18G11G19G 2
  20448511.8524    -179404.64748   -125062.36663
  23404441.867    -6141004.545 6  -4633944.80621
  20840025.1724   -2161992.52946  -1626824.92562
  23604061.328    -4757258.751 6  -3526656.72421
 91  4  7 21  1 30.0000000  0  4G18G11G19G 2
  20449879.7274    -172222.12848   -119465.62663
  23397358.078    -6178224.349 6  -4662947.13521
  20837701.969    -2174208.889 6  -1636344.14922
  23593819.086    -4811092.649 6  -3568605.05221
 91  4  7 21  1 45.0000000  0  4G18G11G19G 2
  20451265.1724    -164930.95048   -113784.22063
  23390291.4694   -6215348.46446  -4691874.88061
  20835382.883    -2186394.062 6  -1645839.08123
  23583584.008    -4864882.872 6  -3610519.34721
 91  4  7 21  2  0.0000000  0  4G18G11G19G 2
  20452675.0944    -157527.71248   -108015.49263
  23383243.9694   -6252373.19946  -4720725.21561
  20833070.1024   -2198544.62846  -1655307.04063
  23573358.289    -4918625.985 6  -3652396.93021
 91  4  7 21  2 15.0000000  0  4G18G11G19G 2
  20454104.8674    -150011.85848   -102159.01263
  23376219.344    -6289297.834 6  -4749497.54221
  20830763.2344   -2210660.23746  -1664747.76863
  23563135.977    -4972321.470 6  -3694237.39921
 91  4  7 21  2 30.0000000  0  4G18G11G19G 2
  20455558.8444    -142382.71148    -96214.25363
  23369213.516    -6326121.135 6  -4778190.90821
  20828464.5474   -2222739.96646  -1674160.53563
  23552928.594    -5025968.387 5  -3736040.01821
 91  4  7 21  2 44.9990000  0  4G18G11G19G 2
  20457031.9404    -134634.89248    -90177.02263
  23362226.526    -6362834.493 6  -4806798.59821
  20826176.581    -2234777.226 6  -1683540.20523
  23542730.167    -5079557.161 5  -3777797.34221
 91  4  7 21  2 59.9990000  0  4G18G11G19G 2
  20458527.105     -126770.693 8    -84049.10123
  23355261.7374   -6399445.49246  -4835326.53461
  20823891.3004   -2246776.84846  -1692890.54763
  23532544.6364   -5133097.87545  -3819517.19061
 91  4  7 21  3 14.9990000  0  4G18G11G19G 2
  20460046.198     -118789.301 8    -77829.86123
  23348316.9484   -6435950.41246  -4863771.80361
  20821616.9644   -2258736.92746  -1702210.07963
  23522364.917    -5186585.669 5  -3861195.82121
 91  4  7 21  3 29.9990000  0  4G18G11G19G 2
  20461586.2694    -110692.10948    -71520.38963
  23341386.245    -6472350.281 6  -4892135.21421
  20819348.1754   -2270658.86246  -1711499.88963
  23512192.659    -5240021.823 5  -3902834.20821
 91  4  7 21  3 44.9990000  0  4G18G11G19G 2
  20463149.3944    -102479.03648    -65120.62263
  23334478.5344   -6508644.41646  -4920416.24461
  20817088.003    -2282542.181 6  -1720759.60623
  23502034.800    -5293405.945 5  -3944432.07121
 91  4  7 21  3 59.9990000  0  4G18G11G19G 2
  20464735.956      -94152.558 8    -58632.48523
  23327590.112    -6544835.172 6  -4948616.72721
  20814831.6834   -2294389.67446  -1729991.41263
  23491888.6754   -5346740.45845  -3985991.26661
 91  4  7 21  4 14.9990000  0  4G18G11G19G 2
  20466341.206      -85713.326 8    -52056.48123
  23320723.7614   -6580922.89246  -4976736.90361
  20812584.9564   -2306202.00446  -1739195.81662
  23481748.370    -5400025.999 5  -4027512.30321
 91  4  7 21  4 29.9990000  0  4G18G11G19G 2
  20467967.3704     -77164.36948    -45394.98763
  23313874.894    -6616910.092 6  -5004778.76521
  20810342.0894   -2317982.08846  -1748375.09663
  23471614.948    -5453265.232 6  -4068997.26621
 91  4  7 21  4 44.9990000  0  4G18G11G19G 2
  20469617.5034     -68497.97348    -38641.98463
  23307046.4874   -6652788.66146  -5032735.96661
  20808108.9564   -2329721.99046  -1757523.06462
  23461497.2374   -5506450.30746  -4110440.02961
 91  4  7 21  4 59.9990000  0  4G18G11G19G 2
  20471287.5734     -59717.00148    -31799.69863
  23300239.644    -6688561.135 6  -5060610.51721
  20805881.5504   -2341424.81246  -1766642.13762
  23451383.448    -5559583.927 5  -4151842.69221
 91  4  7 21  5 14.9990000  0  4G18G11G19G 2
  20472979.980      -50823.670 8    -24869.85523
  23293456.034    -6724229.171 6  -5088403.67921
  20803661.3474   -2353092.65946  -1775733.95462
  23441282.558    -5612667.829 5  -4193206.60721
 91  4  7 21  5 29.9990000  0  4G18G11G19G 2
  20474695.4404     -41809.16948    -17845.60063
  23286688.9874   -6759783.44646  -5116108.19061
  20801449.4174   -2364716.45746  -1784791.45462
  23431193.1284   -5665693.16546  -4234524.89761
 91  4  7 21  5 44.9990000  0  4G18G11G19G 2
  20476433.1204     -32681.88148    -10733.45763
  23279941.815    -6795232.358 6  -5143730.61321
  20799242.2304   -2376304.76346  -1793821.29662
  23421113.7454   -5718668.28246  -4275804.05361
 91  4  7 21  5 59.9990000  0  4G18G11G19G 2
  20478192.511      -23436.569 8     -3529.34623
  23273219.9014   -6830570.10346  -5171266.40661
  20797044.9014   -2387852.29746  -1802819.36862
  23411040.214    -5771587.703 5  -4317039.80121
 91  4  7 21  6 14.9990000  0  4G18G11G19G 2
  20479973.0114     -14074.96948      3765.37763
  23266516.8474   -6865798.51446  -5198716.97961
  20794855.7614   -2399361.09746  -1811787.25762
  23400980.097    -5824453.213 6  -4358233.54321
 91  4  7 21  6 29.9990000  0  4G18G11G19G 2
  20481775.8084      -4595.71348     11151.78463
  23259832.3154   -6900915.42346  -5226080.69861
  20792674.3234   -2410829.36946  -1820723.57162
  23390930.4804   -5877262.76846  -4399383.68961
 91  4  7 21  6 44.9990000  0  4G18G11G19G 2
  20483603.6754       5002.44848     18630.83763
  23253169.7374   -6935919.29446  -5253356.31661
  20790498.7694   -2422256.03546  -1829627.45962
  23380893.3864   -5930015.33946  -4440489.44661
 91  4  7 21  6 59.9990000  0  4G18G11G19G 2
  20485452.4334      14712.91448     26197.40463
  23246527.3154   -6970816.22346  -5280548.60061
  20788332.2224   -2433647.57946  -1838503.97662
  23370864.308    -5982717.170 6  -4481555.66921
 91  4  7 21  7 14.9990000  0  4G18G11G19G 2
  20487321.0034      24533.98248     33850.15163
  23239909.183    -7005607.756 6  -5307658.78121
  20786171.9874   -2445005.80346  -1847354.53862
  23360845.511    -6035369.894 6  -4522583.62521
 91  4  7 21  7 29.9990000  0  4G18G11G19G 2
  20489212.9564      34475.01648     41596.38063
  23233311.276    -7040284.160 6  -5334679.24421
  20784016.6514   -2456321.17546  -1856171.70862
  23350835.4804   -6087964.01846  -4563565.91261
 91  4  7 21  7 44.9990000  0  4G18G11G19G 2
  20491127.1444      44529.61048     49431.10063
  23226735.026    -7074851.560 6  -5361614.77921
  20781870.8394   -2467600.34046  -1864960.66262
  23340840.4954   -6140505.88246  -4604507.47661
 91  4  7 21  7 59.9990000  0  4G18G11G19G 2
  20493060.6904      54695.88648     57352.83863
  23220177.948    -7109311.317 6  -5388466.43121
  20779730.4874   -2478844.76646  -1873722.55062
  23330850.401    -6192997.045 6  -4645409.54221
 91  4  7 21  8 14.9990000  0  4G18G11G19G 2
  20495019.0194      64978.75948     65365.43363
  23213642.276    -7143658.078 6  -5415230.03721
  20777598.4564   -2490049.42746  -1882453.44662
  23320869.355    -6245432.200 6  -4686267.96021
 91  4  7 21  8 29.9990000  0  4G18G11G19G 2
  20496997.0034      75380.14548     73470.37763
  23207126.308    -7177889.612 6  -5441903.85421
  20775474.1594   -2501212.41646  -1891151.87462
  23310901.7924   -6297809.32646  -4727081.15161
 91  4  7 21  8 44.9990000  0  4G18G11G19G 2
  20498999.1514      85896.65448     81665.02463
  23200633.6444   -7212009.24646  -5468490.47961
  20773357.3944   -2512337.28746  -1899820.60062
  23300946.4724   -6350131.91446  -4767851.85261
 91  4  7 21  8 59.9990000  0  4G18G11G19G 2
  20501021.9724      96524.66048     89946.55863
  23194161.2614   -7246020.08546  -5494992.34061
  20771248.2694   -2523427.65846  -1908462.44162
  23290999.362    -6402403.186 6  -4808582.57121
 91  4  7 21  9 14.9990000  0  4G18G11G19G 2
  20503065.8154     107268.61348     98318.44063
  23187709.9724   -7279917.23646  -5521405.61861
  20769146.0344   -2534479.03446  -1917073.89762
  23281064.495    -6454618.594 6  -4849269.76321
 91  4  7 21  9 29.9990000  0  4G18G11G19G 2
  20505128.9404     118120.94348    106774.76663
  23181278.9804   -7313707.71646  -5547735.77561
  20767047.8784   -2545498.66546  -1925660.62062
  23271136.3004   -6506785.26646  -4889918.97161
 91  4  7 21  9 44.9990000  0  4G18G11G19G 2
  20507214.5654     129085.61148    115318.62863
  23174871.1364   -7347387.18646  -5573979.42561
  20764957.3474   -2556482.62846  -1934219.54462
  23261220.2764   -6558899.12846  -4930527.03661
 91  4  7 21  9 59.9990000  0  4G18G11G19G 2
  20509321.9954     140160.23748    123948.17363
  23168481.355    -7380957.730 6  -5600138.21821
  20762870.0894   -2567433.33646  -1942752.56162
  23251311.644    -6610962.483 6  -4971095.74921
 91  4  7 21 10 14.9990000  0  4G18G11G19G 2
  20511454.4644     151349.88348    132667.34163
  23162111.355    -7414414.158 6  -5626208.07921
  20760795.8314   -2578345.81146  -1951255.79062
  23241415.128    -6662970.210 6  -5011621.11321
 91  4  7 21 10 29.9990000  0  4G18G11G19G 2
  20513604.7374     162656.53748    141477.68763
  23155773.2764   -7447754.04646  -5652187.12461
  20758729.8084   -2589217.99746  -1959727.61662
  23231529.347    -6714919.975 6  -5052101.32221
 91  4  7 21 10 44.9990000  0  4G18G11G19G 2
  20515780.0424     174076.21448    150376.10263
  23149450.417    -7480981.097 6  -5678078.25521
  20756664.8154   -2600053.90646  -1968171.17762
  23221650.5194   -6766815.84346  -5092539.51061
 91  4  7 21 10 59.9990000  0  4G18G11G19G 2
  20517972.4334     185603.82148    159358.61763
  23143145.980    -7514099.670 6  -5703884.85221
  20754608.2534   -2610858.21646  -1976590.12362
  23211787.7694   -6818662.23446  -5132939.14661
 91  4  7 21 11 14.9990000  0  4G18G11G19G 2
  20520186.4484     197240.52048    168426.14563
  23136866.823    -7547108.424 6  -5729605.90021
  20752559.9804   -2621629.97146  -1984983.69162
  23201930.0504   -6870457.88246  -5173299.25961
 91  4  7 21 11 29.9990000  0  4G18G11G19G 2
  20522422.4804     208992.19348    177583.25863
  23130603.464    -7580001.440 6  -5755236.74121
  20750515.9404   -2632363.45046  -1993347.43662
  23192086.292    -6922197.230 6  -5213615.50321
 91  4  7 21 11 44.9990000  0  4G18G11G19G 2
  20524680.5344     220866.26848    186835.75363
  23124369.7694   -7612770.73346  -5780771.18761
  20748486.3084   -2643050.88846  -2001675.30162
  23182250.761    -6973872.393 6  -5253881.72321
 91  4  7 21 11 59.9990000  0  4G18G11G19G 2
  20526964.0034     232852.98648    196176.02263
  23118157.8084   -7645425.52846  -5806216.42061
  20746458.7924   -2653701.81546  -2009974.72262
  23172428.3084   -7025492.87946  -5294105.32961
 91  4  7 21 12 14.9990000  0  4G18G11G19G 2
  20529265.2694     244949.40948    205601.77163
  23111961.6514   -7677968.54246  -5831574.54561
  20744437.3394   -2664319.25246  -2018248.04162
  23162614.558    -7077061.520 6  -5334288.54821
 91  4  7 21 12 29.9990000  0  4G18G11G19G 2
  20531589.1834     257157.00448    215114.14963
  23105791.417    -7710397.733 6  -5856843.98021
  20742419.6444   -2674901.46846  -2026493.92162
  23152811.472    -7128576.371 6  -5374429.86221
 91  4  7 21 12 44.9990000  0  4G18G11G19G 2
  20533931.7764     269474.51748    224712.18063
  23099640.0344   -7742714.18746  -5882025.56861
  20740416.5264   -2685449.97246  -2034713.52962
  23143020.9954   -7180038.83846  -5414530.33861
 91  4  7 21 12 59.9990000  0  4G18G11G19G 2
  20536295.3554     281896.52148    234391.62863
  23093512.4804   -7774922.78146  -5907123.10761
  20738412.6904   -2695970.01946  -2042910.96362
  23133235.698    -7231453.878 6  -5454593.86821
 91  4  7 21 13 14.9990000  0  4G18G11G19G 2
  20538681.4644     294429.31148    244157.40363
  23087405.2144   -7807016.98146  -5932131.51761
  20736417.9094   -2706455.23446  -2051081.25962
  23123460.151    -7282815.186 6  -5494615.52121
 91  4  7 21 13 29.9990000  0  4G18G11G19G 2
  20541087.0194     307073.44648    254009.93763
  23081320.8474   -7838995.90446  -5957050.09761
  20734430.8004   -2716905.04846  -2059223.96762
  23113699.417    -7334122.110 6  -5534594.79921
 91  4  7 21 13 44.9990000  0  4G18G11G19G 2
  20543513.5584     319830.33648    263950.33263
  23075253.8944   -7870857.65946  -5981877.37961
  20732447.7694   -2727317.73046  -2067337.73862
  23103941.730    -7385372.667 6  -5574530.16121
 91  4  7 21 13 59.9990000  0  4G18G11G19G 2
  20545960.9874     332692.99148    273973.14663
  23069211.870    -7902609.200 6  -6006618.78221
  20730475.1054   -2737700.49546  -2075428.20162
  23094200.597    -7436573.946 6  -5614427.12221
 91  4  7 21 14 14.9990000  0  4G18G11G19G 2
  20548430.8864     345672.22848    284086.80263
  23063193.019    -7934239.106 6  -6031265.40021
  20728504.7924   -2748042.43646  -2083486.85062
  23084466.831    -7487714.907 6  -5654277.08221
 91  4  7 21 14 29.9990000  0  4G18G11G19G 2
  20550922.6444     358764.55348    294288.58163
  23057199.3004   -7965750.41546  -6055819.60561
  20726540.7064   -2758346.73646  -2091516.17262
  23074747.753    -7538798.698 6  -5694082.49821
 91  4  7 21 14 44.9990000  0  4G18G11G19G 2
  20553434.7694     371966.28648    304575.60963
  23051223.8474   -7997146.75946  -6080284.23361
  20724591.0344   -2768617.42646  -2099519.30662
  23065032.808    -7589829.187 6  -5733846.35721
 91  4  7 21 14 59.9990000  0  4G18G11G19G 2
  20555967.7694     385280.76848    314950.49363
  23045273.8624   -8028424.18846  -6104656.19961
  20722642.7694   -2778850.88346  -2107493.42462
  23055338.5894   -7640802.56046  -5773565.73761
 91  4  7 21 15 14.9990000  0  4G18G11G19G 2
  20558525.4174     398715.97948    325419.45063
  23039345.7614   -8059574.37546  -6128929.01361
  20720704.4174   -2789038.88146  -2115432.11962
  23045651.2764   -7691710.62046  -5813234.21361
 91  4  7 21 15 29.9990000  0  4G18G11G19G 2
  20561104.5734     412262.17448    335974.89563
  23033438.558    -8090606.454 6  -6153109.81021
  20718769.9174   -2799190.97146  -2123342.83562
  23035974.495    -7742562.807 6  -5852859.15021
 91  4  7 21 15 44.9990000  0  4G18G11G19G 2
  20563700.3234     425914.92048    346613.35563
  23027557.612    -8121524.821 6  -6177201.99321
  20716843.7924   -2809311.90046  -2131229.26762
  23026307.1364   -7793363.69346  -5892444.11461
 91  4  7 21 15 59.9990000  0  4G18G11G19G 2
  20566322.050      439681.280 8    357340.34623
  23021696.2304   -8152321.81146  -6201199.60761
  20714925.7304   -2819394.24446  -2139085.63462
  23016652.089    -7844105.635 6  -5931983.16221
 91  4  7 21 16 14.9990000  0  4G18G11G19G 2
  20568962.8394     453556.39548    368152.08863
  23015854.9404   -8183001.91346  -6225106.12261
  20713016.6054   -2829442.71246  -2146915.60062
  23007005.636    -7894793.295 6  -5971479.90821
 91  4  7 21 16 29.9990000  0  4G18G11G19G 2
  20571624.6444     467543.67048    379051.23063
  23010041.355    -8213561.819 6  -6248918.99021
  20711109.9874   -2839454.21746  -2154716.76962
  22997369.9014   -7945423.44646  -6010931.83461
 91  4  7 21 16 44.9990000  0  4G18G11G19G 2
  20574308.230      481652.156 8    390044.81123
  23004250.026    -8243991.809 6  -6272630.61621
  20709213.5114   -2849419.22446  -2162481.69962
  22987749.683    -7995986.670 6  -6050331.61721
 91  4  7 21 16 59.9990000  0  4G18G11G19G 2
  20577013.1984     495869.99847    401123.60663
  22998483.667    -8274303.393 6  -6296249.97521
  20707322.0344   -2859349.60646  -2170219.65462
  22978134.026    -8046494.659 6  -6089688.34421
 91  4  7 21 17 14.9990000  0  4G18G11G19G 2
  20579740.1594     510197.68447    412288.00063
  22992736.3784   -8304495.86446  -6319776.51261
  20705442.550    -2869245.069 6  -2177930.39322
  22968535.198    -8096946.950 6  -6129001.68121
 91  4  7 21 17 29.9990000  0  4G18G11G19G 2
  20582488.2844     524636.34247    423538.86363
  22987015.0504   -8334567.57046  -6343208.95661
  20703565.6754   -2879104.13446  -2185612.77262
  22958944.503    -8147341.830 6  -6168270.27521
 91  4  7 21 17 44.9990000  0  4G18G11G19G 2
  20585257.6904     539188.40648    434878.09363
  22981318.112    -8364515.686 6  -6366545.10521
  20701695.0974   -2888924.12946  -2193264.70562
  22949368.065    -8197676.632 6  -6207492.06121
 91  4  7 21 17 59.9990000  0  4G18G11G19G 2
  20588047.2924     553850.47048    446303.04063
  22975641.378    -8394343.181 6  -6389787.25021
  20699833.8864   -2898708.61346  -2200888.97562
  22939795.7304   -8247954.62246  -6246669.57461
 91  4  7 21 18 14.9990000  0  4G18G11G19G 2
  20590859.1284     568624.58448    457815.30363
  22969988.269    -8424047.715 6  -6412933.58621
  20697979.5264   -2908455.38746  -2208483.85562
  22930241.659    -8298173.528 6  -6285801.05121
 91  4  7 21 18 29.9990000  0  4G18G11G19G 2
  20593691.1674     583506.81848    469411.80663
  22964357.7534   -8453633.04146  -6435987.04761
  20696129.0894   -2918168.29346  -2216052.34262
  22920697.0344   -8348337.06546  -6324889.39761
 91  4  7 21 18 44.9990000  0  4G18G11G19G 2
  20596543.1204     598497.15648    481092.54563
  22958748.7614   -8483098.98146  -6458947.45761
  20694291.3624   -2927847.35146  -2223594.45762
  22911158.284    -8398445.438 6  -6363934.75221
 91  4  7 21 18 59.9990000  0  4G18G11G19G 2
  20599417.269      613598.294 8    492859.62723
  22953166.347    -8512442.314 6  -6481812.34421
  20692452.5504   -2937489.74846  -2231107.99963
  22901637.6124   -8448495.78846  -6402934.89761
 91  4  7 21 19 14.9990000  0  4G18G11G19G 2
  20602312.800      628813.684 7    504715.73323
  22947608.495    -8541658.840 6  -6504578.41621
  20690626.5264   -2947091.65146  -2238589.99663
  22892124.5344   -8498483.93146  -6441886.57761
 91  4  7 21 19 29.9990000  0  4G18G11G19G 2
  20605230.784      644140.766 7    516658.87323
  22942071.698    -8570750.919 6  -6527247.52021
  20688808.4404   -2956655.58746  -2246042.40362
  22882626.9404   -8548412.40846  -6480791.76661
 91  4  7 21 19 44.9990000  0  4G18G11G19G 2
  20608166.003      659571.628 7    528682.87223
  22936557.8394   -8599726.22746  -6549825.62561
  20686993.7534   -2966189.34446  -2253471.29763
  22873128.6444   -8598288.97346  -6519656.48561
 91  4  7 21 19 59.9990000  0  4G18G11G19G 2
  20611121.292      675109.311 7    540790.10923
  22931066.440    -8628581.431 6  -6572310.14721
  20685183.7694   -2975690.01346  -2260874.41063
  22863650.7844   -8648110.45446  -6558478.29761
 91  4  7 21 20 14.9990000  0  4G18G11G19G 2
  20614099.995      690757.445 7    552983.41923
  22925599.933    -8657312.202 6  -6594697.69821
  20683383.722    -2985153.560 6  -2268248.59322
  22854183.1444   -8697872.62046  -6597253.89061
 91  4  7 21 20 29.9990000  0  4G18G11G19G 2
  20617098.487      706511.209 7    565259.03723
  22920156.8864   -8685923.29746  -6616991.99561
  20681588.3394   -2994584.92346  -2275597.69763
  22844719.7144   -8747580.39346  -6635987.09961
 91  4  7 21 20 44.9990000  0  4G18G11G19G 2
  20620115.855      722366.415 7    577613.69823
  22914729.5974   -8714418.49546  -6639195.97861
  20679800.5974   -3003988.16646  -2282924.89963
  22835270.3394   -8797237.73346  -6674681.00761
 91  4  7 21 20 59.9990000  0  4G18G11G19G 2
  20623153.636      738331.328 7    590053.84723
  22909333.995    -8742789.263 6  -6661303.01521
  20678016.5814   -3013355.01147  -2290223.73163
  22825833.417    -8846836.344 6  -6713329.16021
 91  4  7 21 21 14.9990000  0  4G18G11G19G 2
  20626211.370      754407.972 7    602581.05823
  22903957.1124   -8771032.87446  -6683310.96361
  20676241.8154   -3022682.79446  -2297492.12563
  22816406.511    -8896373.568 6  -6751929.47821
 91  4  7 21 21 29.9990000  0  4G18G11G19G 2
  20629292.917      770592.946 7    615192.68023
  22898608.5264   -8799152.57246  -6705222.35761
  20674475.8234   -3031975.04746  -2304732.83763
  22806994.308    -8945852.691 6  -6790484.52821
 91  4  7 21 21 44.9990000  0  4G18G11G19G 2
  20632392.3704     786882.18247    627885.54763
  22893280.065    -8827152.249 6  -6727040.21521
  20672712.6674   -3041235.84446  -2311949.03563
  22797589.4954   -8995277.82846  -6828997.51261
 91  4  7 21 21 59.9990000  0  4G18G11G19G 2
  20635512.995      803281.327 7    640664.05823
  22887972.3864   -8855025.90646  -6748759.88461
  20670959.2534   -3050459.73246  -2319136.47963
  22788194.745    -9044643.264 6  -6867463.97621
 91  4  7 21 22 14.9990000  0  4G18G11G19G 2
  20638655.519      819793.311 7    653530.49423
  22882696.8864   -8882770.19346  -6770378.74261
  20669210.0424   -3059643.41146  -2326292.58563
  22778808.456    -9093945.797 6  -6905881.41821
 91  4  7 21 22 29.9990000  0  4G18G11G19G 2
  20641818.1054     836411.99747    666480.07963
  22877437.526    -8910390.726 6  -6791901.15921
  20667466.4094   -3068792.80646  -2333421.98163
  22769440.480    -9143191.021 6  -6944254.21721
 91  4  7 21 22 44.9990000  0  4G18G11G19G 2
  20645000.690      853138.526 7    679513.69223
  22872208.4174   -8937886.10046  -6813326.05661
  20665735.4644   -3077906.78046  -2340523.77563
  22760076.6984   -9192377.73546  -6982581.42561
 91  4  7 21 22 59.9990000  0  4G18G11G19G 2
  20648205.714      869976.179 7    692633.89523
  22867000.511    -8965252.518 6  -6834650.46221
  20664007.6594   -3086981.62446  -2347595.07963
  22750727.8624   -9241502.26646  -7020860.18061
 91  4  7 21 23 14.9990000  0  4G18G11G19G 2
  20651429.526      886919.072 7    705836.10323
  22861816.9174   -8992495.63046  -6855878.79461
  20662284.0504   -3096023.24346  -2354640.49263
  22741395.706    -9290570.389 6  -7059094.97721
 91  4  7 21 23 29.9990000  0  4G18G11G19G 2
  20654673.847      903964.253 7    719118.01723
  22856653.948    -9019618.325 6  -6877013.28421
  20660569.8234   -3105034.75647  -2361662.44362
  22732066.7144   -9339585.10446  -7097288.16161
 91  4  7 21 23 44.9990000  0  4G18G11G19G 2
  20657935.1984     921111.55447    732479.50763
  22851512.8314   -9046620.31346  -6898053.73261
  20658862.3154   -3114016.06746  -2368660.87062
  22722751.1594   -9388546.24846  -7135439.60361
 91  4  7 21 23 59.9990000  0  4G18G11G19G 2
  20661218.355      938361.210 7    745920.75023
  22846401.511    -9073500.777 6  -6918999.46521
  20657155.8784   -3122966.72047  -2375635.40162
  22713444.1204   -9437453.21646  -7173548.83761
 91  4  7 21 24 14.9990000  0  4G18G11G19G 2
  20664521.120      955718.653 7    759445.98224
  22841309.315    -9100254.069 6  -6939846.11021
  20655460.9334   -3131881.14746  -2382581.71163
  22704146.7844   -9486300.45446  -7211611.51661
 91  4  7 21 24 29.9990000  0  4G18G11G19G 2
  20667846.597      973189.185 7    773059.33423
  22836247.589    -9126874.378 6  -6960589.12921
  20653777.8154   -3140753.72546  -2389495.40663
  22694866.511    -9535082.499 6  -7249623.39721
 91  4  7 21 24 44.9990000  0  4G18G11G19G 2
  20671190.995      990767.720 8    786756.83924
  22831201.1674   -9153366.72846  -6981232.45661
  20652092.6204   -3149589.87746  -2396380.72463
  22685594.1284   -9583804.32546  -7287588.34761
 91  4  7 21 24 59.9990000  0  4G18G11G19G 2
  20674555.550     1008456.097 7    800539.94923
  22826184.597    -9179728.591 6  -7001774.08621
  20650416.6204   -3158387.19746  -2403235.77363
  22676335.433    -9632463.434 6  -7325504.43921
 91  4  7 21 25 14.9990000  0  4G18G11G19G 2
  20677943.089     1026252.260 7    814407.04823
  22821193.4564   -9205961.70946  -7022215.41461
  20648750.5194   -3167147.68346  -2410062.13263
  22667082.495    -9681062.002 6  -7363373.34921
 91  4  7 21 25 29.9990000  0  4G18G11G19G 2
  20681350.808     1044158.428 7    828359.85823
  22816225.2534   -9232063.56746  -7042554.45261
  20647091.8624   -3175869.03146  -2416857.98563
  22657847.847    -9729597.493 6  -7401193.10221
 91  4  7 21 25 44.9990000  0  4G18G11G19G 2
  20684777.847     1062166.684 8    842392.21723
  22811281.659    -9258041.752 6  -7062797.12521
  20645436.4874   -3184559.00046  -2423629.39363
  22648622.605    -9778077.653 6  -7438969.74521
 91  4  7 21 25 59.9990000  0  4G18G11G19G 2
  20688225.245     1080286.285 8    856511.33824
  22806366.183    -9283886.707 6  -7082935.97921
  20643789.9094   -3193208.17146  -2430369.00363
  22639408.909    -9826492.920 6  -7476695.81521
 91  4  7 21 26 14.9990000  0  4G18G11G19G 2
  20691694.620     1098515.167 8    870715.61023
  22801469.487    -9309600.286 6  -7102972.47121
  20642152.7764   -3201818.69046  -2437078.49662
  22630207.409    -9874845.374 6  -7514372.94221
 91  4  7 21 26 29.9990000  0  4G18G11G19G 2
  20695185.394     1116852.164 7    885004.13323
  22796607.128    -9335183.113 6  -7122907.06221
  20640524.7844   -3210391.27046  -2443758.42863
  22621018.581    -9923135.772 6  -7552001.72621
 91  4  7 21 26 44.9990000  0  4G18G11G19G 2
  20698695.753     1135299.503 7    899378.63223
  22791758.3944   -9360632.48246  -7142737.67361
  20638899.2924   -3218923.48946  -2450406.91563
  22611840.198    -9971361.649 6  -7589580.23021
 91  4  7 21 26 59.9990000  0  4G18G11G19G 2
  20702226.097     1153856.860 8    913838.86423
  22786943.3154   -9385948.60346  -7162464.45661
  20637281.7374   -3227415.77946  -2457024.28563
  22602680.081   -10019523.209 6  -7627108.61621
 91  4  7 21 27 14.9990000  0  4G18G11G19G 2
  20705778.433     1172524.954 8    928385.38123
  22782151.597    -9411130.238 6  -7182086.43821
  20635673.4334   -3235867.27446  -2463609.86363
  22593524.081   -10067619.354 6  -7664586.03021
 91  4  7 21 27 29.9990000  0  4G18G11G19G 2
  20709351.651     1191304.467 8    943018.71623
  22777385.3004   -9436176.57946  -7201602.99961
  20634073.2454   -3244277.29146  -2470163.12362
  22584383.472   -10115649.427 6  -7702011.95221
 91  4  7 21 27 44.9990000  0  4G18G11G19G 2
  20712946.206     1210195.916 8    957739.27923
  22772647.7374   -9461086.54046  -7221013.29261
  20632480.8474   -3252644.96846  -2476683.38662
  22575257.261   -10163612.547 6  -7739385.69321
 91  4  7 21 27 59.9990000  0  4G18G11G19G 2
  20716562.886     1229196.200 8    972544.64623
  22767931.4174   -9485863.11346  -7240319.65761
  20630897.3474   -3260973.23146  -2483172.94163
  22566145.128   -10211511.822 6  -7776709.70321
 91  4  7 21 28 14.9990000  0  4G18G11G19G 2
  20720201.144     1248306.373 8    987435.64124
  22763238.878    -9510504.648 6  -7259520.78021
  20629319.276    -3269260.785 6  -2489630.76922
  22557041.917   -10259345.777 6  -7813982.80221
 91  4  7 21 28 29.9990000  0  4G18G11G19G 2
  20723857.237     1267525.865 7   1002411.82124
  22758577.8624   -9535011.56346  -7278617.01661
  20627748.7534   -3277508.34246  -2496057.43662
  22547950.4954  -10307114.66746  -7851205.21161
 91  4  7 21 28 44.9990000  0  4G18G11G19G 2
  20727533.511     1286846.310 7   1017466.66423
  22753933.3624   -9559391.98946  -7297614.69261
  20626187.8784   -3285724.19446  -2502459.38962
  22538870.6054  -10354826.85246  -7888383.43661
 91  4  7 21 28 59.9990000  0  4G18G11G19G 2
  20731232.034     1306278.237 7   1032608.37923
  22749324.1284   -9583634.90846  -7316505.21161
  20624632.0034   -3293897.36746  -2508828.09162
  22529804.855   -10402471.389 6  -7925508.94321
 91  4  7 21 29 14.9990000  0  4G18G11G19G 2
  20734948.831     1325810.836 7   1047828.54124
  22744732.6904   -9607750.56546  -7335296.58261
  20623084.0814   -3302038.53946  -2515171.85562
  22520747.7924  -10450058.89146  -7962590.01161
 91  4  7 21 29 29.9990000  0  5G18G11G16G19G 2
  20738684.315     1345453.520 7   1063134.47823
  22740175.1284   -9631729.37546  -7353981.30661
  23942323.0114         -0.17155
  20621539.0114   -3310138.15746  -2521483.24662
  22511705.222   -10497579.768 6  -7999619.15321
 91  4  7 21 29 44.9990000  0  5G18G11G16G19G 2
  20742442.784     1365197.689 7   1078519.49123
  22735635.565    -9655579.470 6  -7372565.74321
  23936728.6674     -29412.06145
  20620008.2614   -3318204.46146  -2527768.67163
  22502674.745   -10545042.357 6  -8036602.88221
 91  4  7 21 29 59.9990000  0  5G18G11G16G19G 2
  20746219.370     1385047.058 7   1093986.48223
  22731119.4804   -9679296.96446  -7391046.85061
  23931152.7374     -58702.54145
  20618477.8784   -3326233.74746  -2534025.25163
  22493656.034   -10592442.700 6  -8073538.11021
 91  4  7 21 30 14.9990000  0  5G18G11G16G19G 2
  20750019.511     1405004.302 7   1109537.52523
  22726633.3944   -9702878.71746  -7409422.17461
  23925602.6984     -87868.74745
  20616957.7374   -3334223.22946  -2540250.81762
  22484646.0654  -10639777.84746  -8110422.53761
 91  4  7 21 30 29.9990000  0  5G18G11G16G19G 2
  20753837.651     1425069.629 7   1125172.78923
  22722168.714    -9726324.174 6  -7427691.31521
  23920074.8624    -116909.92545
  20615444.1904   -3342172.49146  -2546445.03863
  22475650.7694  -10687047.40746  -8147255.86061
 91  4  7 21 30 44.9990000  0  5G18G11G16G19G 2
  20757677.034     1445244.960 7   1140893.77423
  22717735.7844   -9749631.27546  -7445852.62861
  23914574.9094    -145824.16345        -0.24271
  20613941.5894   -3350079.52246  -2552606.35463
  22466667.769   -10734249.464 6  -8184036.58621
 91  4  7 21 30 59.9990000  0  5G18G11G16G19G 2
  20761536.433     1465530.087 7   1156700.31923
  22713329.5584   -9772799.59646  -7463905.80961
  23909091.3154    -174611.15744    -22431.63061
  20612443.1594   -3357944.20146  -2558734.67463
  22457699.487   -10781383.652 6  -8220764.41921
 91  4  7 21 31 14.9990000  0  5G18G11G16G19G 2
  20765415.620     1485913.686 7   1172583.58723
  22708944.1444   -9795840.38046  -7481859.61161
  23903640.261     -203282.308 5    -44772.74921
  20610954.3554   -3365777.86546  -2564838.82263
  22448739.6754  -10828461.35346  -8257448.24461
 91  4  7 21 31 29.9990000  0  5G18G11G16G19G 2
  20769311.526     1506390.963 7   1188539.86023
  22704578.714    -9818758.055 6  -7499717.48621
  23898207.690     -231842.001 5    -67027.02321
  20609466.8004   -3373585.09546  -2570922.37363
  22439792.847   -10875487.021 6  -8294091.51821
 91  4  7 21 31 44.9990000  0  5G18G11G16G19G 2
  20773229.261     1526981.440 7   1204584.33123
  22700244.0504   -9841532.63446  -7517463.85861
  23892797.1284    -260270.48245    -89179.05561
  20607991.4334   -3381346.04146  -2576969.86163
  22430855.1514  -10922440.87846  -8330678.84561
 91  4  7 21 31 59.9990000  0  5G18G11G16G19G 2
  20777168.058     1547676.482 7   1220710.28523
  22695942.589    -9864172.334 6  -7535105.12721
  23887409.0814    -288576.12745   -111235.40061
  20606521.7614   -3389069.13846  -2582987.84963
  22421934.784   -10969331.325 6  -8367216.74621
 91  4  7 21 32 14.9990000  0  5G18G11G16G19G 2
  20781127.222     1568477.663 7   1236918.94523
  22691656.8554   -9886675.14146  -7552639.72461
  23882047.308     -316757.024 5   -133194.50821
  20605059.4954   -3396752.50246  -2588974.88763
  22413025.1834  -11016156.33746  -8403703.67261
 91  4  7 21 32 29.9990000  0  5G18G11G16G19G 2
  20785103.409     1589376.821 7   1253203.95323
  22687400.651    -9909049.140 6  -7570073.95621
  23876705.276     -344821.234 5   -155062.69321
  20603601.9014   -3404404.43146  -2594937.42663
  22404123.112   -11062924.145 6  -8440146.00921
 91  4  7 21 32 44.9990000  0  5G18G11G16G19G 2
  20789102.448     1610384.765 7   1269573.72723
  22683164.269    -9931283.225 6  -7587399.16421
  23871393.511     -372757.750 5   -176831.37521
  20602153.0814   -3412013.93046  -2600866.89963
  22395236.480   -11109623.684 6  -8476535.15821
 91  4  7 21 32 59.9990000  0  5G18G11G16G19G 2
  20793119.089     1631497.678 7   1286025.29423
  22678963.159    -9953381.069 6  -7604618.20521
  23866100.019     -400570.290 5   -198503.46221
  20600714.3004   -3419584.76246  -2606766.24463
  22386361.448   -11156258.735 6  -8512874.05621
 91  4  7 21 33 14.9990000  0  5G18G11G16G19G 2
  20797157.183     1652715.238 7   1302558.40623
  22674781.925    -9975342.499 6  -7621730.95721
  23860831.2764    -428258.78345   -220078.89361
  20599281.6364   -3427116.77446  -2612635.34263
  22377498.534   -11202829.197 6  -8549162.61321
 91  4  7 21 33 29.9990000  0  5G18G11G16G19G 2
  20801212.972     1674034.406 7   1319170.69123
  22670631.112    -9997170.092 6  -7638739.41221
  23855584.284     -455825.956 5   -241559.78321
  20597850.7374   -3434612.96946  -2618476.53363
  22368650.847   -11249337.860 6  -8585403.02621
 91  4  7 21 33 44.9990000  0  5G18G11G16G19G 2
  20805289.042     1695456.247 7   1335862.98423
  22666499.651   -10018862.376 6  -7655642.43621
  23850359.8004    -483270.55045   -262945.17461
  20596435.8554   -3442072.03346  -2624288.78763
  22359810.5114  -11295783.27946  -8621594.14562
 91  4  7 21 33 59.9990000  0  5G18G11G16G19G 2
  20809387.073     1716980.861 7   1352635.35923
  22662398.847   -10040419.005 6  -7672439.75621
  23845159.253     -510592.149 5   -284234.70221
  20595023.9254   -3449493.82946  -2630072.00263
  22350984.620   -11342165.397 6  -8657735.94722
 91  4  7 21 34 14.9990000  0  5G18G11G16G19G 2
  20813501.839     1738607.964 7   1369487.59623
  22658319.675   -10061839.796 6  -7689131.23921
  23839985.089     -537790.823 5   -305428.43921
  20593617.2144   -3456878.23546  -2635826.08063
  22342169.440   -11388483.941 6  -8693828.20822
 91  4  7 21 34 29.9990000  0  5G18G11G16G19G 2
  20817637.144     1760336.152 7   1386418.60123
  22654268.058   -10083125.867 6  -7705717.73721
  23834834.3704    -564867.62945   -326527.23261
  20592220.8394   -3464226.51146  -2641552.00963
  22333368.026   -11434740.129 6  -8729871.87522
 91  4  7 21 34 44.9990000  0  5G18G11G16G19G 2
  20821791.558     1782165.620 7   1403428.52323
  22650246.987   -10104276.996 6  -7722199.08621
  23829708.2924    -591822.53045   -347531.04661
  20590829.7224   -3471538.69146  -2647249.81062
  22324576.347   -11480933.932 6  -8765866.94521
 91  4  7 21 34 59.9990000  0  5G18G11G16G19G 2
  20825964.151     1804096.758 7   1420517.67023
  22646246.862   -10125292.240 6  -7738574.55121
  23824598.261     -618654.484 5   -368439.02421
  20589440.4254   -3478813.76446  -2652918.69962
  22315799.784   -11527064.442 6  -8801812.69121
 91  4  7 21 35 14.9990000  0  5G18G11G16G19G 2
  20830156.534     1826129.236 7   1437685.78123
  22642275.7064  -10146171.48046  -7754844.03461
  23819518.237     -645363.457 5   -389251.20021
  20588065.5974   -3486051.94046  -2658558.83462
  22307035.167   -11573131.796 6  -8837709.22321
 91  4  7 21 35 29.9990000  0  5G18G11G16G19G 2
  20834367.472     1848259.734 7   1454930.27123
  22638328.222   -10166917.758 6  -7771009.91621
  23814455.9804    -671952.64245   -409970.03961
  20586693.6204   -3493256.37146  -2664172.67763
  22298279.003   -11619139.230 6  -8873559.06721
 91  4  7 21 35 44.9990000  0  5G18G11G16G19G 2
  20838600.4404    1870487.91147   1472250.87063
  22634404.261   -10187531.177 6  -7787072.27221
  23809411.901     -698422.407 5   -430595.81121
  20585331.4014   -3500427.23946  -2669760.36762
  22289535.706   -11665086.790 6  -8909362.25521
 91  4  7 21 35 59.9990000  0  5G18G11G16G19G 2
  20842848.6054    1892822.33347   1489654.25863
  22630509.659   -10208002.628 6  -7803024.00721
  23804407.808     -724763.775 5   -451121.53021
  20583971.8314   -3507555.61346  -2675314.94562
  22280805.308   -11710965.435 6  -8945111.75021
 91  4  7 21 36 14.9990000  0  5G18G11G16G19G 2
  20847115.972     1915250.358 7   1507130.58723
  22626640.605   -10228344.703 6  -7818874.93221
  23799411.6984    -750989.53945   -471557.16361
  20582625.1204   -3514654.26446  -2680846.36062
  22272084.6754  -11756787.82546  -8980817.40761
 91  4  7 21 36 29.9990000  0  5G18G11G16G19G 2
  20851405.831     1937786.462 7   1524691.13523
  22622797.370   -10248542.671 6  -7834613.56021
  23794450.7304    -777084.70345   -491891.03761
  20581279.3784   -3521708.60246  -2686343.24962
  22263378.394   -11802539.331 6  -9016467.83421
 91  4  7 21 36 44.9990000  0  5G18G11G16G19G 2
  20855711.3944    1960424.83847   1542331.36963
  22618978.7764  -10268601.79846  -7850244.01161
  23789513.597     -803054.712 5   -512127.37521
  20579946.4254   -3528723.88746  -2691809.70262
  22254680.347   -11848225.302 6  -9052067.18221
 91  4  7 21 36 59.9990000  0  5G18G11G16G19G 2
  20860039.7694    1983163.42447   1560049.68963
  22615187.026   -10288523.872 6  -7865767.65821
  23784591.034     -828901.467 5   -532267.70521
  20578620.6754   -3535702.12546  -2697247.29362
  22246004.745   -11893847.634 6  -9087616.95121
 91  4  7 21 37 14.9990000  0  5G18G11G16G19G 2
  20864385.0504    2006000.49447   1577844.74963
  22611420.980   -10308310.342 6  -7881185.64821
  23779691.6594    -854626.52845   -552313.20361
  20577298.0734   -3542644.85946  -2702657.21562
  22237333.4644  -11939407.74646  -9123118.23961
 91  4  7 21 37 29.9990000  0  5G18G11G16G19G 2
  20868749.300     2028936.843 7   1595717.17523
  22607682.9334  -10327960.00446  -7896497.03661
  23774819.909     -880228.797 5   -572262.99121
  20575983.0814   -3549550.96746  -2708038.59662
  22228674.769   -11984904.698 6  -9158570.30121
 91  4  7 21 37 44.9990000  0  5G18G11G16G19G 2
  20873134.1124    2051974.06847   1613668.20363
  22603970.0034  -10347471.08246  -7911700.42761
  23769973.2064    -905706.70645   -592115.90761
  20574676.5584   -3556418.70446  -2713390.07762
  22220028.987   -12030336.765 6  -9193971.80621
 91  4  7 21 37 59.9990000  0  5G18G11G16G19G 2
  20877536.5974    2075107.84447   1631694.46563
  22600282.370   -10366847.550 6  -7926798.93221
  23765149.776     -931064.148 5   -611874.92321
  20573375.7144   -3563252.04046  -2718714.75362
  22211396.425   -12075707.972 6  -9229325.89321
 91  4  7 21 38 14.9990000  0  5G18G11G16G19G 2
  20881957.480     2098348.524 7   1649804.02423
  22596621.0034  -10386078.46146  -7941784.02061
  23760345.620     -956290.433 5   -631531.75621
  20572085.7374   -3570040.58546  -2724004.52562
  22202772.2614  -12121007.49646  -9264624.13061
 91  4  7 21 38 29.9990000  0  5G18G11G16G19G 2
  20886400.7224    2121694.50847   1667995.64463
  22592990.9644  -10405165.22146  -7956656.78461
  23755570.167     -981386.912 5   -651087.42621
  20570797.0034   -3576785.72646  -2729260.48062
  22194170.831   -12166236.701 6  -9299867.56621
 91  4  7 21 38 44.9990000  0  6G18G11G16G19G 2G 6
  20890863.7064    2145140.99747   1686265.57663
  22589383.690   -10424112.463 6  -7971420.82321
  23750824.1204   -1006358.21345   -670545.55161
  20569521.0894   -3583491.95446  -2734486.10962
  22185574.7064  -12211400.35446  -9335059.92961
  24034157.6284         -0.75454
 91  4  7 21 38 59.9990000  0  6G18G11G16G19G 2G 6
  20895343.1834    2168682.22547   1704609.33263
  22585805.0654  -10442925.58846  -7986080.36361
  23746089.081    -1031209.899 5   -689910.49621
  20568256.3554   -3590164.94146  -2739685.83362
  22176989.9874  -12256504.01246  -9370205.53661
  24026424.8234     -40604.45944
 91  4  7 21 39 14.9990000  0  6G18G11G16G19G 2G 6
  20899842.0974    2192328.70947   1723035.09963
  22582252.386   -10461593.693 6  -8000626.89221
  23741386.878    -1055931.276 5   -709173.87521
  20566992.2304   -3596793.93946  -2744851.28562
  22168422.870   -12301536.863 6  -9405295.96222
  24018704.6594     -81200.27844
 91  4  7 21 39 29.9990000  0  6G18G11G16G19G 2G 6
  20904361.0734    2216069.98847   1741534.73563
  22578721.6904  -10480126.95446  -8015068.35861
  23736703.3864   -1080532.35645   -728343.54161
  20565736.6834   -3603389.33746  -2749990.55662
  22159863.1984  -12346509.06746  -9440339.14161
  24010983.6904    -121798.62945
 91  4  7 21 39 44.9990000  0  6G18G11G16G19G 2G 6
  20908897.8084    2239911.36847   1760112.37663
  22575223.6284  -10498519.66646  -8029400.30561
  23732048.870    -1105007.814 5   -747415.30421
  20564489.2224   -3609945.47246  -2755099.22662
  22151316.8084  -12391415.14946  -9475330.79761
  24003256.409     -162394.091 5
 91  4  7 21 39 59.9990000  0  6G18G11G16G19G 2G 6
  20913453.9954    2263861.63447   1778774.85863
  22571755.980   -10516762.698 6  -8043615.61221
  23727415.315    -1129348.453 5   -766382.01521
  20563251.7144   -3616453.25646  -2760170.22262
  22142783.542   -12436245.993 6  -9510263.82321
  23995532.0114    -202977.57945
 91  4  7 21 40 14.9990000  0  6G18G11G16G19G 2G 6
  20918029.9014    2287907.75947   1797512.03963
  22568305.683   -10534868.936 6  -8057724.32421
  23722804.269    -1153567.242 5   -785253.77721
  20562018.5194   -3622925.66246  -2765213.65662
  22134268.3004  -12481014.47246  -9545148.25862
  23987806.425     -243562.267 5        -0.46431
 91  4  7 21 40 29.9990000  0  6G18G11G16G19G 2G 6
  20922627.3624    2312060.45947   1816332.26363
  22564891.800   -10552827.499 6  -8071717.96821
  23718220.487    -1177653.525 5   -804022.29121
  20560796.3554   -3629351.94346  -2770221.14162
  22125760.6204  -12525709.71646  -9579975.62662
  23980085.628     -284137.492 4    -31617.40521
 91  4  7 21 40 44.9990000  0  6G18G11G16G19G 2G 6
  20927243.2144    2336309.14647   1835227.28363
  22561499.3864  -10570648.43946  -8085604.37661
  23713656.9874   -1201617.45245   -822695.47361
  20559578.8784   -3635742.08046  -2775200.46762
  22117269.8624  -12570341.86446  -9614753.82762
  23972368.980     -324713.409 5    -63234.90721
 91  4  7 21 40 59.9990000  0  6G18G11G16G19G 2G 6
  20931875.6444    2360656.56347   1854199.23463
  22558132.9724  -10588328.54646  -8099381.04861
  23709125.7614   -1225455.66645   -841270.69561
  20558373.6204   -3642093.03646  -2780149.25762
  22108788.183   -12614907.898 6  -9649480.50722
  23964647.464     -365287.219 5    -94850.73021
 91  4  7 21 41 14.9990000  0  6G18G11G16G19G 2G 6
  20936526.5194    2385099.06647   1873245.27763
  22554796.2064  -10605871.08546  -8113050.52161
  23704614.6204   -1249171.73145   -859750.73261
  20557170.6204   -3648408.21546  -2785070.17162
  22100318.7614  -12659411.14946  -9684158.26562
  23956923.4874    -405862.24844   -126467.52861
 91  4  7 21 41 29.9990000  0  6G18G11G16G19G 2G 6
  20941198.8084    2409652.03147   1892377.39663
  22551486.2764  -10623260.62046  -8126600.77361
  23700130.9484   -1272750.42345   -878123.72561
  20555979.2534   -3654672.35146  -2789951.31862
  22091864.2694  -12703836.45246  -9718775.29862
  23949199.112     -446423.397 4   -158073.52221
 91  4  7 21 41 44.9990000  0  6G18G11G16G19G 2G 6
  20945890.0584    2434302.78247   1911585.71263
  22548205.2374  -10640509.17646  -8140041.17461
  23695667.3314   -1296203.65445   -896398.96861
  20554795.6364   -3660897.70946  -2794802.23662
  22083422.9724  -12748195.86346  -9753340.98462
  23941486.542     -486983.033 5   -189678.31121
 91  4  7 21 41 59.9990000  0  6G18G11G16G19G 2G 6
  20950598.9094    2459050.87547   1930869.88163
  22544949.2224  -10657617.13746  -8153372.01661
  23691222.6754   -1319532.18045   -914577.02161
  20553616.1754   -3667084.65646  -2799623.23362
  22074997.4094  -12792489.68746  -9787855.56361
  23933769.050     -527541.578 4   -221282.28521
 91  4  7 21 42 14.9990000  0  6G18G11G16G19G 2G 6
  20955325.308     2483897.345 7   1950230.70423
  22541719.081   -10674583.423 6  -8166592.45821
  23686809.276    -1342734.749 5   -932656.91421
  20552448.4724   -3673232.17246  -2804413.49963
  22066575.105   -12836716.941 6  -9822318.27322
  23926053.089     -568098.058 4   -252884.65421
 91  4  7 21 42 29.9990000  0  6G18G11G16G19G 2G 6
  20960074.7614    2508848.57247   1969673.16163
  22538521.651   -10691401.114 6  -8179697.10721
  23682422.1204   -1365804.32945   -950633.21461
  20551284.1284   -3679333.36346  -2809167.66962
  22058175.1674  -12880870.71346  -9856723.72862
  23918332.3004    -608645.78244   -284480.17861
 91  4  7 21 42 44.9990000  0  6G18G11G16G19G 2G 6
  20964842.7694    2533900.47047   1989194.04963
  22535352.4334  -10708073.93846  -8192688.87961
  23678054.159    -1388744.953 5   -968508.99921
  20550133.2304   -3685392.05046  -2813888.71962
  22049789.5424  -12924954.90746  -9891074.95862
  23910620.2614    -649188.73544   -316071.95561
 91  4  7 21 42 59.9990000  0  6G18G11G16G19G 2G 6
  20969627.409     2559049.979 7   2008790.99323
  22532203.378   -10724604.642 6  -8205569.91221
  23673713.972    -1411559.474 5   -986286.53321
  20548988.9954   -3691410.92346  -2818578.75563
  22041411.948   -12968972.275 6  -9925374.12922
  23902907.972     -689729.787 4   -347662.29621
 91  4  7 21 43 14.9980000  0  6G18G11G16G19G 2G 6
  20974431.2484    2584297.74147   2028464.51163
  22529083.732   -10740989.646 6  -8218337.40921
  23669392.982    -1434243.816 5  -1003962.65521
  20547851.3894   -3697387.27946  -2823235.65163
  22033048.022   -13012917.480 6  -9959617.06022
  23895197.4754    -730263.97644   -379247.25261
 91  4  7 21 43 29.9980000  0  6G18G11G16G19G 2G 6
  20979256.9754    2609647.08647   2048217.17763
  22525995.5924  -10757230.65546  -8230992.70461
  23665102.975    -1456800.905 5  -1021539.56621
  20546717.9984   -3703321.60646  -2827859.80462
  22024699.3344  -13056795.84046  -9993807.89862
  23887477.4284    -770796.48644   -410830.93561
 91  4  7 21 43 44.9980000  0  6G18G11G16G19G 2G 6
  20984099.2644    2635087.89447   2068041.11763
  22522929.6474  -10773334.60346  -8243541.19761
  23660829.9124   -1479237.32145  -1039022.50861
  20545598.6624   -3709221.69246  -2832457.27162
  22016357.6234  -13100612.67046 -10027950.79562
  23879761.834     -811332.852 4   -442417.59521
 91  4  7 21 43 59.9980000  0  6G18G11G16G19G 2G 6
  20988959.6074    2660629.15647   2087943.33063
  22519891.2564  -10789292.46246  -8255975.85861
  23656586.2484   -1501544.11845  -1056404.41461
  20544485.2564   -3715078.62446  -2837021.11262
  22008037.803   -13144359.091 6 -10062038.84021
  23872050.3264    -851864.20644   -474000.37061
 91  4  7 21 44 14.9980000  0  6G18G11G16G19G 2G 6
  20993839.3264    2686279.69747   2107930.69863
  22516885.5924  -10805095.01546  -8268289.50261
  23652368.7874   -1523711.91245  -1073678.02561
  20543379.1394   -3720883.03246  -2841544.02363
  21999726.029   -13188025.760 6 -10096064.73721
  23864336.4364    -892381.33144   -505572.04461
 91  4  7 21 44 29.9980000  0  6G18G11G16G19G 2G 6
  20998738.318     2712027.211 7   2127993.62823
  22513909.4434  -10820754.37846  -8280491.57161
  23648175.0454   -1545752.75045  -1090852.67661
  20542285.1934   -3726647.22746  -2846035.60562
  21991431.475   -13231624.919 6 -10130038.03222
  23856634.4434    -932896.76244   -537142.41961
 91  4  7 21 44 44.9980000  0  6G18G11G16G19G 2G 6
  21003657.1544    2737872.89547   2148133.05463
  22510950.6864  -10836269.00446  -8292580.85361
  23644009.686    -1567665.423 5  -1107927.46021
  20541192.0844   -3732369.50346  -2850494.52663
  21983147.607   -13275154.941 6 -10163957.45122
  23848922.022     -973408.970 5   -568710.24521
 91  4  7 21 44 59.9980000  0  6G18G11G16G19G 2G 6
  21008595.1784    2763815.70047   2168348.15763
  22508026.5144  -10851639.53246  -8304557.83861
  23639858.7404   -1589450.92445  -1124903.18761
  20540112.1864   -3738050.66546  -2854921.40762
  21974874.639   -13318616.587 6 -10197823.58422
  23841215.2484   -1013918.88245   -600276.32861
 91  4  7 21 45 14.9980000  0  6G18G11G16G19G 2G 6
  21013551.9364    2789857.91847   2188640.72463
  22505130.9124  -10866863.37046  -8316420.54061
  23635740.123    -1611106.421 5  -1141777.58321
  20539040.0064   -3743688.33046  -2859314.39462
  21966618.9044  -13362007.44446 -10231634.55962
  23833508.3894   -1054424.00745   -631838.63961
 91  4  7 21 45 29.9980000  0  6G18G11G16G19G 2G 6
  21018525.7094    2816002.24047   2209012.85463
  22502263.2404  -10881937.62146  -8328166.67261
  23631646.225    -1632628.955 5  -1158548.37721
  20537975.8574   -3749279.48646  -2863671.13862
  21958379.522   -13405324.540 6 -10265388.05222
  23825800.092    -1094921.722 4   -663395.23121
 91  4  7 21 45 44.9980000  0  6G18G11G16G19G 2G 6
  21023519.7094    2842242.17547   2229459.49363
  22499419.318   -10896868.529 6  -8339801.10221
  23627575.2954   -1654024.71045  -1175220.38561
  20536919.1864   -3754830.36046  -2867996.49263
  21950145.506   -13448574.143 6 -10299088.96522
  23818095.068    -1135418.328 4   -694950.93021
 91  4  7 21 45 59.9980000  0  6G18G11G16G19G 2G 6
  21028529.5224    2868580.72247   2249982.97763
  22496607.7644  -10911652.59946  -8351321.12061
  23623528.1394   -1675290.70445  -1191791.27561
  20535869.9364   -3760337.61446  -2872287.85762
  21941931.0764  -13491752.82846 -10332734.60862
  23810389.600    -1175910.457 5   -726503.12121
 91  4  7 21 46 14.9980000  0  6G18G11G16G19G 2G 6
  21033562.3424    2895020.66247   2270585.46563
  22493820.1234  -10926286.81046  -8362724.37161
  23619504.2484   -1696424.00045  -1208258.78461
  20534832.1394   -3765798.31046  -2876542.94863
  21933725.842   -13534857.880 6 -10366322.87722
  23802678.154    -1216395.463 4   -758049.80621
 91  4  7 21 46 29.9980000  0  6G18G11G16G19G 2G 6
  21038612.1074    2921556.45347   2291262.64063
  22491066.1314  -10940776.59746  -8374015.07561
  23615508.5924   -1717430.01645  -1224627.10961
  20533804.7794   -3771217.92146  -2880766.02162
  21925537.4044  -13577894.56646 -10399857.87562
  23794978.5764   -1256878.83444   -789595.18761
 91  4  7 21 46 44.9980000  0  6G18G11G16G19G 2G 6
  21043679.3654    2948190.14447   2312016.10263
  22488337.2174  -10955119.53246  -8385191.35261
  23611532.6934   -1738306.42745  -1240894.43361
  20532775.3654   -3776594.08946  -2884955.24463
  21917357.795   -13620860.432 6 -10433337.68922
  23787274.139    -1297358.329 4   -821137.54321
 91  4  7 21 46 59.9980000  0  6G18G11G16G19G 2G 6
  21048767.5924    2974923.39947   2332847.14263
  22485635.8184  -10969313.51646  -8396251.57061
  23607586.5454   -1759051.42545  -1257059.37561
  20531764.2014   -3781924.89746  -2889109.12062
  21909198.725   -13663753.650 7 -10466760.89522
  23779574.3574   -1337831.99544   -852675.35661
 91  4  7 21 47 14.9980000  0  6G18G11G16G19G 2G 6
  21053873.6314    3001757.18047   2353756.51563
  22482966.4124  -10983357.52646  -8407194.91661
  23603661.8114   -1779664.01645  -1273121.09661
  20530759.3184   -3787209.27946  -2893226.82363
  21901050.600   -13706573.262 6 -10500126.74722
  23771869.264    -1378299.039 4   -884208.01421
 91  4  7 21 47 29.9980000  0  6G18G11G16G19G 2G 6
  21058997.3424    3028686.43147   2374740.27863
  22480320.373   -10997256.104 6  -8418024.94221
  23599764.1394   -1800148.59345  -1289083.11961
  20529759.6864   -3792451.76946  -2897311.88062
  21892912.498   -13749323.707 6 -10533438.70722
  23764172.131    -1418764.058 5   -915739.10621
 91  4  7 21 47 44.9980000  0  6G18G11G16G19G 2G 6
  21064140.5064    3055712.85447   2395799.76463
  22477701.3034  -11011007.40446  -8428740.21161
  23595889.7954   -1820503.34845  -1304943.96061
  20528772.2644   -3797650.41446  -2901362.77363
  21884793.467   -13792003.234 6 -10566695.40022
  23756470.092    -1459225.338 5   -947267.26021
 91  4  7 21 47 59.9980000  0  6G18G11G16G19G 2G 6
  21069303.8974    3082841.84747   2416939.17363
  22475113.764   -11024605.816 6  -8439336.33421
  23592044.9594   -1840722.36345  -1320699.03261
  20527791.3184   -3802799.66646  -2905375.17762
  21876684.350   -13834606.034 6 -10599892.30122
  23748779.1154   -1499677.43245   -978788.27861
 91  4  7 21 48 14.9980000  0  6G18G11G16G19G 2G 6
  21074485.3974    3110069.53447   2438155.48463
  22472556.1934  -11038054.83646  -8449816.05361
  23588227.7094   -1860809.88745  -1336351.63261
  20526821.7724   -3807903.29746  -2909352.03362
  21868590.170   -13877135.732 6 -10633032.24922
  23741077.443    -1540124.030 5  -1010305.02221
 91  4  7 21 48 29.9980000  0  6G18G11G16G19G 2G 6
  21079683.990     3137395.932 7   2459448.70923
  22470024.4594  -11051354.20646  -8460179.17461
  23584424.6234   -1880765.65745  -1351901.58061
  20525853.6624   -3812960.90346  -2913293.02762
  21860513.9514  -13919592.26746 -10666115.17962
  23733376.389    -1580565.053 5  -1041817.39021
 91  4  7 21 48 44.9980000  0  6G18G11G16G19G 2G 6
  21084902.8974    3164820.58647   2480818.49763
  22467520.0534  -11064504.01346  -8470425.74361
  23580654.5374   -1900589.77345  -1367348.92261
  20524904.0684   -3817972.61846  -2917198.25662
  21852446.295   -13961975.738 6 -10699141.18622
  23725688.7564   -1621000.79845  -1073325.66761
 91  4  7 21 48 59.9980000  0  6G18G11G16G19G 2G 6
  21090142.2794    3192344.17447   2502265.38063
  22465044.842   -11077503.128 6  -8480554.88121
  23576906.2324   -1920281.20845  -1382692.91961
  20523957.9984   -3822937.57146  -2921067.05362
  21844395.873   -14004285.143 6 -10732109.47122
  23717992.3574   -1661430.32845  -1104829.09261
 91  4  7 21 49 14.9980000  0  6G18G11G16G19G 2G 6
  21095399.1544    3219967.72347   2523790.15363
  22462603.5924  -11090350.27446  -8490565.61061
  23573186.9364   -1939838.72245  -1397932.53361
  20523022.4594   -3827854.41546  -2924898.35362
  21836360.342   -14046519.103 6 -10765018.96422
  23710305.0844   -1701852.44245  -1136326.72961
 91  4  7 21 49 29.9980000  0  6G18G11G16G19G 2G 6
  21100673.2644    3247686.77947   2545389.34763
  22460186.4044  -11103049.57246  -8500461.13761
  23569486.748    -1959266.590 5  -1413071.12421
  20522097.4594   -3832727.41746  -2928695.49962
  21828334.756   -14088681.899 6 -10797873.01022
  23702606.428    -1742271.497 4  -1167821.98921
 91  4  7 21 49 44.9980000  0  6G18G11G16G19G 2G 6
  21105965.068     3275500.084 7   2567061.97723
  22457797.2794  -11115602.22346  -8510242.37861
  23565811.1004   -1978566.15745  -1428109.75061
  20521174.7794   -3837557.62146  -2932459.29662
  21820325.068   -14130774.707 6 -10830672.52322
  23694921.4824   -1782688.67545  -1199315.77161
 91  4  7 21 49 59.9980000  0  6G18G11G16G19G 2G 6
  21111274.7644    3303411.77147   2588811.27463
  22455438.3344  -11128003.89546  -8519905.99261
  23562169.9754   -1997732.77845  -1443044.75861
  20520266.7794   -3842340.64546  -2936186.33162
  21812329.920   -14172793.311 6 -10863414.21122
  23687228.787    -1823099.841 5  -1230804.89121
 91  4  7 21 50 14.9980000  0  6G18G11G16G19G 2G 6
  21116608.4284    3331420.41047   2610636.11363
  22453106.912   -11140255.238 6  -8529452.46521
  23558550.959    -2016767.666 5  -1457877.12721
  20519367.8814   -3847077.31146  -2939877.24362
  21804346.967   -14214738.338 6 -10896098.57222
  23679538.154    -1863505.808 5  -1262289.96721
 91  4  7 21 50 29.9980000  0  6G18G11G16G19G 2G 6
  21121955.584     3359526.102 7   2632536.58423
  22450802.561   -11152356.372 6  -8538881.88921
  23554947.8424   -2035670.65345  -1472606.73161
  20518471.0374   -3851767.84046  -2943532.19662
  21796379.451   -14256609.936 6 -10928725.70622
  23671852.451    -1903906.772 5  -1293771.10821
 91  4  7 21 50 44.9980000  0  6G18G11G16G19G 2G 6
  21127320.686     3387729.990 7   2654513.56323
  22448527.9754  -11164305.70246  -8548193.02861
  23551374.2484   -2054440.03945  -1487232.23461
  20517590.6314   -3856410.45846  -2947149.81663
  21788425.889   -14298406.537 6 -10961294.41722
  23664164.139    -1944301.323 5  -1325247.29121
 91  4  7 21 50 59.9980000  0  6G18G11G16G19G 2G 6
  21132708.2874    3416029.08247   2676564.73463
  22446280.4124  -11176105.76546  -8557387.85261
  23547825.6154   -2073079.11845  -1501756.18161
  20516711.3114   -3861007.81446  -2950732.17762
  21780485.295   -14340130.836 6 -10993806.78022
  23656479.647    -1984692.170 5  -1356720.58121
 91  4  7 21 51 14.9980000  0  6G18G11G16G19G 2G 6
  21138110.389     3444418.745 7   2698686.47423
  22444063.225   -11187761.165 6  -8566469.96321
  23544312.4824   -2091592.05245  -1516181.86161
  20515847.8654   -3865564.62246  -2954282.94062
  21772556.889   -14381787.348 6 -11026266.32322
  23648792.8184   -2025084.07245  -1388194.67661
 91  4  7 21 51 29.9980000  0  6G18G11G16G19G 2G 6
  21143528.834     3472902.437 7   2720881.47923
  22441873.2404  -11199268.15146  -8575436.42261
  23540812.592    -2109975.435 5  -1530506.60921
  20514990.5534   -3870076.86346  -2957798.97262
  21764645.022   -14423372.236 6 -11058670.05222
  23641111.1784   -2065473.31545  -1419666.72861
 91  4  7 21 51 44.9980000  0  6G18G11G16G19G 2G 6
  21148970.1074    3501478.53647   2743148.50163
  22439712.7324  -11210627.98746  -8584288.21361
  23537332.1074   -2128230.65645  -1544731.44761
  20514139.8344   -3874545.89246  -2961281.33862
  21756746.428   -14464886.844 6 -11091019.01722
  23633418.2724   -2105861.33345  -1451137.78061
 91  4  7 21 51 59.9980000  0  6G18G11G16G19G 2G 6
  21154424.186     3530147.820 7   2765488.12723
  22437582.5924  -11221839.77746  -8593024.64361
  23533883.920    -2146356.864 5  -1558855.75721
  20513294.5454   -3878970.83546  -2964729.34562
  21748860.881   -14506330.240 7 -11123312.50222
  23625736.6234   -2146247.30045  -1482607.26661
 91  4  7 21 52 14.9980000  0  6G18G11G16G19G 2G 6
  21159898.826     3558917.340 7   2787905.86123
  22435475.3504  -11232896.13146  -8601639.95661
  23530464.256    -2164346.490 5  -1572873.65121
  20512464.0924   -3883344.33646  -2968137.26963
  21740985.561   -14547695.254 7 -11155544.90222
  23618054.4824   -2186623.93645  -1514069.46061
 91  4  7 21 52 29.9980000  0  6G18G11G16G19G 2G 6
  21165390.037     3587779.184 7   2810395.53123
  22433403.436   -11243804.696 6  -8610140.11621
  23527065.5534   -2182207.25745  -1586791.14461
  20511639.1934   -3887673.88346  -2971510.94762
  21733129.842   -14588989.331 7 -11187722.03222
  23610364.920    -2226999.020 5  -1545530.46021
 91  4  7 21 52 44.9980000  0  6G18G11G16G19G 2G 6
  21170900.990     3616736.341 7   2832959.47723
  22431351.3974  -11254561.87046  -8618522.30061
  23523690.7174   -2199935.78845  -1600605.61061
  20510825.9124   -3891956.05746  -2974847.70462
  21725286.936   -14630208.987 6 -11219841.16222
  23602686.7094   -2267369.04945  -1576987.55961
 91  4  7 21 52 59.9980000  0  6G18G11G16G19G 2G 6
  21176427.803     3645786.552 7   2855595.92423
  22429335.459   -11265169.772 6  -8626788.17821
  23520341.4674   -2217534.47045  -1614318.86761
  20510017.8264   -3896192.98846  -2978149.21162
  21717456.045   -14671356.539 7 -11251904.10822
  23594997.740    -2307736.350 5  -1608442.47721
 91  4  7 21 53 14.9980000  0  6G18G11G16G19G 2G 6
  21181976.147     3674930.959 7   2878305.77523
  22427343.3114  -11275627.20046  -8634936.79961
  23517013.6234   -2235001.64645  -1627929.65561
  20509223.3424   -3900383.53046  -2981414.56963
  21709639.561   -14712430.620 6 -11283909.81522
  23587323.0454   -2348099.84945  -1639894.45961
 91  4  7 21 53 29.9980000  0  6G18G11G16G19G 2G 6
  21187539.428     3704171.610 7   2901090.62923
  22425386.8504  -11285931.70646  -8642966.25861
  23513717.576    -2252335.174 5  -1641436.32421
  20508429.7324   -3904525.21846  -2984641.86562
  21701836.7874  -14753428.78747 -11315856.36562
  23579641.6074   -2388457.17145  -1671341.63361
 91  4  7 21 53 44.9980000  0  6G18G11G16G19G 2G 6
  21193122.795     3733511.184 7   2923952.55623
  22423455.936   -11296080.364 6  -8650874.28321
  23510444.2174   -2269532.59045  -1654836.89961
  20507654.5224   -3908615.13246  -2987828.80962
  21694052.397   -14794348.211 6 -11347741.55122
  23571968.1624   -2428805.54545  -1702781.83261
 91  4  7 21 53 59.9980000  0  6G18G11G16G19G 2G 6
  21198722.553     3762945.737 7   2946888.49323
  22421552.490   -11306077.041 6  -8658663.87621
  23507199.826    -2286597.514 5  -1668134.25921
  20506886.9984   -3912657.08546  -2990978.38862
  21686277.982   -14835192.801 6 -11379568.43322
  23564292.482    -2469148.936 5  -1734218.13721
 91  4  7 21 54 14.9980000  0  6G18G11G16G19G 2G 6
  21204343.397     3792476.586 7   2969899.47222
  22419676.5374  -11315919.91946  -8666333.61961
  23503969.881    -2303528.210 5  -1681327.03821
  20506126.4824   -3916649.17846  -2994089.11063
  21678521.295   -14875960.710 6 -11411335.55022
  23556609.1314   -2509485.48245  -1765649.10361
 91  4  7 21 54 29.9980000  0  6G18G11G16G19G 2G 6
  21209980.686     3822092.701 7   2992976.88222
  22417831.4204  -11325619.80546  -8673891.94661
  23500780.0924   -2320335.67745  -1694423.76561
  20505373.8344   -3920602.41946  -2997169.56363
  21670775.5374  -14916662.84247 -11443051.42162
  23548935.084    -2549826.126 5  -1797083.27121
 91  4  7 21 54 44.9980000  0  6G18G11G16G19G 2G 6
  21215632.998     3851801.478 7   3016126.50822
  22416016.967   -11335169.024 6  -8681332.87121
  23497605.4754   -2337012.09845  -1707418.36061
  20504629.6704   -3924508.91746  -3000213.58962
  21663043.232   -14957291.348 7 -11474709.92822
  23541255.6784   -2590163.34145  -1828514.74861
 91  4  7 21 54 59.9980000  0  6G18G11G16G19G 2G 6
  21221305.623     3881608.801 7   3039352.92122
  22414224.162   -11344561.571 6  -8688651.71721
  23494452.8424   -2353551.45345  -1720306.21461
  20503894.6544   -3928362.74246  -3003216.57662
  21655328.256   -14997840.313 7 -11506306.45222
  23533583.639    -2630491.344 5  -1859939.05721
 91  4  7 21 55 14.9980000  0  6G18G11G16G19G 2G 6
  21226996.475     3911510.317 7   3062652.72522
  22412469.6474  -11353801.33346  -8695851.50361
  23491335.561    -2369957.970 5  -1733090.53121
  20503172.9904   -3932167.69246  -3006181.47663
  21647624.647   -15038313.473 7 -11537843.90422
  23525911.022    -2670813.915 5  -1891359.14021
 91  4  7 21 55 29.9980000  0  6G18G11G16G19G 2G 6
  21232701.670     3941501.735 7   3086022.58422
  22410739.217   -11362892.460 6  -8702935.46821
  23488239.1784   -2386235.98045  -1745774.71661
  20502458.3974   -3935927.97746  -3009111.57463
  21639938.7404  -15078715.39247
  23518238.756    -2711135.503 5
 91  4  7 21 55 44.9980000  0  6G18G11G16G19G 2G 6
  21238427.998     3971588.181 7   3109466.48922
  22409040.998   -11371829.647 6  -8709899.48721
  23485168.381    -2402379.970 5  -1758354.48121
  20501749.5764   -3939638.11446  -3012002.59463
  21632264.451   -15119040.490 7
  23510564.904    -2751450.762 5
 91  4  7 21 55 59.9980000  0  6G18G11G16G19G 2G 6
  21244171.857     4001771.204 7   3132985.65322
  22407366.6234  -11380610.84146  -8716741.95161
  23482116.5294   -2418388.06745  -1770828.31561
  20501054.9904   -3943296.10646  -3014852.98063
  21624603.3264  -15159286.70647 -11632108.55362
  23502899.4754   -2791757.81445  -1985600.84861
 91  4  7 21 56 14.9980000  0  6G18G11G16G19G 2G 6
  21249932.209     4032046.625 7   3156576.81222
  22405727.326   -11389240.201 6  -8723466.10421
  23479100.6934   -2434264.61045  -1783199.65261
  20500370.5924   -3946906.18246  -3017666.02963
  21616960.545   -15199458.281 7 -11663411.00722
  23495229.482    -2832060.787 5  -2017005.67621
 91  4  7 21 56 29.9980000  0  6G18G11G16G19G 2G 6
  21255711.678     4062417.197 7   3180242.11722
  22404114.850   -11397714.639 6  -8730069.53721
  23476101.264    -2450006.270 5  -1795465.91821
  20499691.9514   -3950465.12346  -3020439.23663
  21609330.5224  -15239552.15147 -11694652.91462
  23487559.9364   -2872356.74645  -2048405.05561
 91  4  7 21 56 44.9980000  0  6G18G11G16G19G 2G 6
  21261509.334     4092872.826 7   3203973.69422
  22402525.803   -11406043.806 6  -8736559.78521
  23473134.8114   -2465623.18645  -1807634.96361
  20499020.6934   -3953982.60046  -3023180.13163
  21601714.5684  -15279577.99847 -11725841.81362
  23479889.8574   -2912655.50045  -2079806.58161
 91  4  7 21 56 59.9980000  0  6G18G11G16G19G 2G 6
  21267320.998     4123416.850 7   3227774.15322
  22400969.326   -11414224.371 6  -8742934.22321
  23470181.4594   -2481111.75245  -1819704.00361
  20498360.7874   -3957455.29646  -3025886.13663
  21594109.1784  -15319532.28447 -11756974.95462
  23472220.3184   -2952953.68845  -2111207.68061
 91  4  7 21 57 14.9980000  0  6G18G11G16G19G 2G 6
  21273150.084     4154053.112 7   3251646.48922
  22399445.193   -11422252.182 6  -8749189.63821
  23467260.0684   -2496468.07145  -1831669.96961
  20497708.5374   -3960878.94446  -3028553.92063
  21586521.6934  -15359410.94146 -11788049.16962
  23464553.404    -2993247.293 5  -2142605.19521
 91  4  7 21 57 29.9980000  0  6G18G11G16G19G 2G 6
  21278997.428     4184777.554 7   3275587.52822
  22397941.779   -11430130.855 6  -8755328.85121
  23464364.772    -2511695.621 5  -1843535.59821
  20497065.2874   -3964257.29946  -3031186.41162
  21578946.8894  -15399217.66047 -11819067.31662
  23456889.459    -3033540.007 5  -2174002.00721
 91  4  7 21 57 44.9980000  0  6G18G11G16G19G 2G 6
  21284862.3424    4215598.01147   3299603.38262
  22396474.100   -11437852.449 6  -8761345.65721
  23461495.670    -2526786.761 5  -1855294.94821
  20496435.5144   -3967582.37846  -3033777.38562
  21571388.7174  -15438944.44947 -11850023.18962
  23449216.2794   -3073823.99945  -2205392.02661
 91  4  7 21 57 59.9980000  0  6G18G11G16G19G 2G 6
  21290745.8034    4246512.45747   3323692.47162
  22395031.068   -11445418.631 6  -8767241.36621
  23458644.928    -2541743.067 5  -1866949.22221
  20495812.3574   -3970855.53046  -3036327.89562
  21563842.4674  -15478593.08447 -11880918.16362
  23441553.365    -3114100.977 5  -2236776.58921
 91  4  7 21 58 14.9980000  0  6G18G11G16G19G 2G 6
  21296646.4674    4277524.30447   3347857.45562
  22393627.318   -11452825.743 6  -8773013.12821
  23455827.2254   -2556560.98145  -1878495.66661
  20495196.9044   -3974073.14646  -3038835.14063
  21556314.9364  -15518159.84447 -11911749.33962
  23433893.264    -3154367.332 5  -2268152.86621
 91  4  7 21 58 29.9980000  0  6G18G11G16G19G 2G 6
  21302561.740     4308618.187 7   3372086.37122
  22392239.2794  -11460089.11746  -8778672.88961
  23453033.3114   -2571256.21545  -1889946.50961
  20494592.9044   -3977250.84146  -3041311.27263
  21548794.0844  -15557660.08547 -11942528.68462
  23426226.3814   -3194638.56045  -2299532.94861
 91  4  7 21 58 44.9980000  0  6G18G11G16G19G 2G 6
  21308499.506     4339807.634 7   3396389.75422
  22390888.186   -11467194.921 6  -8784209.86521
  23450257.0924   -2585814.83445  -1901290.89061
  20494000.4984   -3980374.52746  -3043745.32163
  21541296.8894  -15597080.01147 -11973245.44362
  23418565.4434   -3234900.86145  -2330906.06961
 91  4  7 21 58 59.9980000  0  6G18G11G16G19G 2G 6
  21314451.295     4371083.889 7   3420760.78822
  22389567.7174  -11474151.56246  -8789630.61161
  23447511.967    -2600245.445 5  -1912535.54221
  20493415.2324   -3983452.49846  -3046143.74962
  21533808.6784  -15636428.12047 -12003906.23662
  23410907.326    -3275162.752 5  -2362278.89721
 91  4  7 21 59 14.9980000  0  6G18G11G16G19G 2G 6
  21320420.467     4402453.965 7   3445204.91522
  22388273.5534  -11480951.74346  -8794929.44561
  23444796.7954   -2614540.31645  -1923674.41461
  20492835.6544   -3986477.43646  -3048500.85263
  21526334.0374  -15675696.95547 -12034505.26462
  23403247.5224   -3315416.90245  -2393645.65061
 91  4  7 21 59 29.9980000  0  6G18G11G16G19G 2G 6
  21326407.029     4433912.484 7   3469717.96722
  22387005.225   -11487600.719 6  -8800110.45021
  23442098.732    -2628704.869 5  -1934711.74521
  20492272.8894   -3989454.39146  -3050820.56563
  21518876.389   -15714891.686 7 -12065046.54522
  23395587.9514   -3355668.67945  -2425010.59561
 91  4  7 21 59 44.9980000  0  6G18G11G16G19G 2G 6
  21332409.2254    4465461.35247   3494301.41362
  22385775.0844  -11494096.46446  -8805172.05861
  23439426.3264   -2642737.53845  -1945646.30461
  20491711.9364   -3992381.25146  -3053101.24562
  21511430.3814  -15754010.18547 -12095528.43062
  23387931.0614   -3395915.99245  -2456372.03561
 91  4  7 21 59 59.9980000  0  6G18G11G16G19G 2G 6
  21338431.4674    4497099.46147   3518954.39762
  22384561.7094  -11500439.62046  -8810114.76761
  23436782.4204   -2656638.73045  -1956478.43961
  20491164.5144   -3995258.70046  -3055343.41663
  21504003.1474  -15793053.26147 -12125951.54262
  23380273.209    -3436159.568 5  -2487730.58621
 91  4  7 22  0 14.9980000  0  6G18G11G16G19G 2G 6
  21344467.147     4528826.904 7   3543676.99522
  22383384.4754  -11506630.02946  -8814938.45961
  23434162.2874   -2670408.43345  -1967208.07861
  20490629.482    -3998086.567 6  -3057546.95922
  21496587.2254  -15832020.80847 -12156315.80162
  23372615.764    -3476399.391 5  -2519086.20921
 91  4  7 22  0 29.9980000  0  6G18G11G16G19G 2G 6
  21350522.725     4560641.636 7   3568467.61522
  22382238.5534  -11512669.38346  -8819644.45161
  23431570.3344   -2684048.39145  -1977836.62061
  20490103.4594   -4000866.46946  -3059713.12362
  21489186.8504  -15870914.39747 -12186622.42962
  23364953.3114   -3516637.19945  -2550440.23861
 91  4  7 22  0 44.9980000  0  6G18G11G16G19G 2G 6
  21356595.0064    4592551.10947   3593332.05162
  22381119.3114  -11518549.90446  -8824226.67361
  23428999.5454   -2697550.93445  -1988358.10661
  20489583.5764   -4003590.50846  -3061835.75762
  21481800.3814  -15909726.16947 -12216865.30962
  23357299.2484   -3556865.18245  -2581786.62461
 91  4  7 22  0 59.9980000  0  6G18G11G16G19G 2G 6
  21362684.443     4624546.906 7   3618263.75322
  22380025.5534  -11524280.01646  -8828691.68861
  23426447.4364   -2710924.39845  -1998779.01661
  20489069.014    -4006267.138 6  -3063921.45623
  21474427.5064  -15948464.72047 -12247051.12562
  23349640.9204   -3597091.92545  -2613132.04061
 91  4  7 22  1 14.9980000  0  6G18G11G16G19G 2G 6
  21368788.1004    4656635.69347   3643267.91362
  22378968.2644  -11529852.30546  -8833033.72361
  23423930.490    -2724161.783 5  -2009093.87021
  20488574.232    -4008889.010 6  -3065964.48223
  21467070.9124  -15987122.50347 -12277174.00762
  23341991.8974   -3637310.06845  -2644470.76661
 91  4  7 22  1 29.9980000  0  6G18G11G16G19G 2G 6
  21374913.8654    4688818.83647   3668345.60162
  22377934.9044  -11535265.47946  -8837251.77261
  23421436.717    -2737261.614 5  -2019301.56121
  20488082.990    -4011454.493 6  -3067963.57323
  21459732.8814  -16025698.01847 -12307232.78162
  23334342.529    -3677518.341 5  -2675801.78821
 91  4  7 22  1 44.9980000  0  6G18G11G16G19G 2G 6
  21381054.787     4721080.767 7   3693484.68022
  22376935.0684  -11540535.08546  -8841357.96261
  23418969.6004   -2750239.29645  -2029414.06661
  20487603.818    -4013979.064 6  -3069930.78223
  21452405.1784  -16064206.99747 -12337239.71062
  23326686.9434   -3717732.30745  -2707137.26361
 91  4  7 22  1 59.9980000  0  6G18G11G16G19G 2G 6
  21387207.787     4753429.276 7   3718691.22522
  22375960.8734  -11545652.89146  -8845345.86061
  23416527.8654   -2763087.01045  -2039425.27761
  20487133.6544   -4016454.79146  -3071859.93063
  21445087.8184  -16102641.27847 -12367188.43762
  23319040.1934   -3757943.88345  -2738470.85761
 91  4  7 22  2 14.9980000  0  6G18G11G16G19G 2G 6
  21393381.561     4785865.407 7   3743966.05522
  22375014.9044  -11550617.73246  -8849214.56661
  23414107.850    -2775803.476 5  -2049334.23321
  20486674.529    -4018880.216 6  -3073749.87923
  21437788.6544  -16140999.56947 -12397077.95462
  23311384.740    -3798151.833 5  -2769801.65321
 91  4  7 22  2 29.9980000  0  6G18G11G16G19G 2G 6
  21399570.5454    4818385.58147   3769306.35862
  22374102.107   -11555432.487 6  -8852966.31121
  23411713.4044   -2788391.58245  -2059143.18261
  20486217.1864   -4021258.22646  -3075602.88263
  21430504.8654  -16179284.88547 -12426910.60962
  23303737.6474   -3838359.12245  -2801131.91461
 91  4  7 22  2 44.9980000  0  6G18G11G16G19G 2G 6
  21405775.6934    4850993.71847   3794715.20962
  22373212.8264  -11560093.28846  -8856598.09261
  23409345.3424   -2800847.79045  -2068849.34961
  20485779.4044   -4023584.64546  -3077415.68363
  21423231.7484  -16217493.08547 -12456683.16762
  23296079.904    -3878561.859 5  -2832458.62821
 91  4  7 22  2 59.9980000  0  6G18G11G16G19G 2G 6
  21411997.9434    4883689.64147   3820192.46762
  22372355.4434  -11564600.25946  -8860110.01661
  23406994.178    -2813172.093 5  -2078452.71421
  20485344.6784   -4025859.68146  -3079188.45363
  21415977.6004  -16255624.35447 -12486395.78262
  23288435.209    -3918760.217 5  -2863781.95021
 91  4  7 22  3 14.9980000  0  6G18G11G16G19G 2G 6
  21418234.584     4916465.959 7   3845732.36122
  22371524.4824  -11568960.53446  -8863507.63461
  23404674.9284   -2825371.75745  -2087958.98561
  20484920.7794   -4028090.32546  -3080926.62463
  21408736.0684  -16293685.66447 -12516053.88062
  23280783.1004   -3958961.26845  -2895107.36761
 91  4  7 22  3 29.9980000  0  6G18G11G16G19G 2G 6
  21424487.1074    4949327.64047   3871338.78562
  22370724.8504  -11573168.99846  -8866786.95361
  23402374.545    -2837441.880 5  -2097364.29921
  20484501.662    -4030271.529 6  -3082626.27623
  21401505.1394  -16331672.07747 -12545653.61862
  23273135.3114   -3999160.08245  -2926431.01561
 91  4  7 22  3 44.9980000  0  6G18G11G16G19G 2G 6
  21430757.2254    4982276.33847   3897013.00562
  22369954.7094  -11577223.66146  -8869946.42861
  23400105.5684   -2849380.40945  -2106667.08861
  20484099.4204   -4032401.04246  -3084285.64362
  21394291.4204  -16369581.40047 -12575193.28162
  23265487.8114   -4039354.61345  -2957751.36161
 91  4  7 22  3 59.9980000  0  6G18G11G16G19G 2G 6
  21437042.8894    5015307.64647   3922751.59462
  22369207.5684  -11581128.73246  -8872989.33261
  23397860.1004   -2861191.64045  -2115870.67661
  20483703.7794   -4034483.09046  -3085908.02763
  21387092.9674  -16407417.83447 -12604676.14962
  23257835.1624   -4079549.06845  -2989071.61461
 91  4  7 22  4 14.9980000  0  6G18G11G16G19G 2G 6
  21443344.4824    5048417.52447   3948551.40362
  22368494.7254  -11584887.92146  -8875918.56361
  23395634.5374   -2872879.18245  -2124977.87961
  20483318.3184   -4036521.29446  -3087496.24563
  21379904.1004  -16445185.10447 -12634105.12762
  23250186.490    -4119747.184 5  -3020394.73021
 91  4  7 22  4 29.9980000  0  6G18G11G16G19G 2G 6
  21449660.2954    5081615.69947   3974420.01662
  22367805.5144  -11588491.51546  -8878726.55761
  23393432.7794   -2884433.22545  -2133981.05961
  20482939.3734   -4038505.76946  -3089042.59763
  21372733.045   -16482873.421 7 -12663472.57922
  23242539.053    -4159939.260 5  -3051713.15721
 91  4  7 22  4 44.9980000  0  6G18G11G16G19G 2G 6
  21455996.3814    5114900.18947   4000355.88662
  22367151.561   -11591941.157 6  -8881414.57521
  23391256.397    -2895856.206 5  -2142882.12621
  20482571.334    -4040438.159 6  -3090548.36522
  21365575.0224  -16520484.61947 -12692779.94062
  23234887.857    -4200127.045 5  -3083028.22821
 91  4  7 22  4 59.9980000  0  6G18G11G16G19G 2G 6
  21462343.7404    5148264.37947   4026353.87062
  22366520.6864  -11595243.31946  -8883987.68161
  23389111.6474   -2907154.15345  -2151685.75161
  20482209.8114   -4042324.84346  -3092018.51363
  21358429.7324  -16558025.04647 -12722032.16062
  23227244.397    -4240317.057 5  -3114345.05221
 91  4  7 22  5 14.9980000  0  6G18G11G16G19G 2G 6
  21468710.5844    5181710.13247   4052415.39962
  22365925.7254  -11598395.66046  -8886444.05061
  23386983.303    -2918324.672 5  -2160390.09021
  20481860.5374   -4044163.42246  -3093451.17663
  21351300.553   -16595492.158 7 -12751227.23322
  23219595.529    -4280506.960 5  -3145661.77621
 91  4  7 22  5 29.9980000  0  6G18G11G16G19G 2G 6
  21475087.6704    5215234.45047   4078538.15462
  22365348.7954  -11601401.16946  -8888785.99961
  23384886.7724   -2929371.07045  -2168997.70261
  20481516.2324   -4045956.45546  -3094848.35763
  21344183.5844  -16632888.82347 -12780367.42662
  23211946.436    -4320699.662 5  -3176980.68421
 91  4  7 22  5 44.9980000  0  6G18G11G16G19G 2G 6
  21481484.6074    5248840.15947   4104724.32662
  22364810.1704  -11604256.78046  -8891011.14461
  23382807.1624   -2940290.01045  -2177506.00261
  20481191.2254   -4047701.17146  -3096207.87463
  21337081.1234  -16670212.14247 -12809450.46462
  23204297.4674   -4360892.04245  -3208299.34561
 91  4  7 22  5 59.9980000  0  6G18G11G16G19G 2G 6
  21487894.2644    5282527.74047   4130974.29562
  22364292.1934  -11606961.77346  -8893118.92061
  23380748.9364   -2951081.01845  -2185914.61661
  20480863.8184   -4049396.54046  -3097528.94563
  21329995.522   -16707461.303 7 -12838475.71022
  23196647.061    -4401083.394 5  -3239617.19521
 91  4  7 22  6 14.9980000  0  6G18G11G16G19G 2G 6
  21494319.0534    5316294.62147   4157286.06362
  22363807.7644  -11609518.67046  -8895111.29761
  23378725.537    -2961746.836 5  -2194225.68321
  20480552.2254   -4051044.91546  -3098813.39663
  21322920.1784  -16744638.71047 -12867445.06162
  23188997.881    -4441276.297 5  -3270936.27821
 91  4  7 22  6 29.9980000  0  6G18G11G16G19G 2G 6
  21500758.9674    5350139.32847   4183658.46062
  22363349.928   -11611928.380 6  -8896988.98021
  23376719.8894   -2972288.23445  -2202439.79661
  20480246.6394   -4052647.27246  -3100061.98863
  21315859.6624  -16781745.47647 -12896359.35362
  23181350.0924   -4481471.64945  -3302257.24261
 91  4  7 22  6 44.9980000  0  6G18G11G16G19G 2G 6
  21507216.8424    5384070.63847   4210098.35262
  22362923.1704  -11614181.81746  -8898744.90261
  23374733.8654   -2982696.13145  -2210549.88261
  20479951.8734   -4054194.58046  -3101267.68563
  21308812.6234  -16818772.50747 -12925211.52162
  23173700.826    -4521660.773 5  -3333573.37121
 91  4  7 22  6 59.9980000  0  6G18G11G16G19G 2G 6
  21513690.5144    5418084.37047   4236602.45462
  22362516.4124  -11616283.21446  -8900382.34861
  23372783.186    -2992974.888 5  -2218559.32221
  20479665.6784   -4055690.78446  -3102433.55863
  21301782.8424  -16855723.64747 -12954004.55462
  23166055.2324   -4561847.33145  -3364887.49961
 91  4  7 22  7 14.9980000  0  6G18G11G16G19G 2G 6
  21520177.4124    5452177.80447   4263168.67862
  22362145.7794  -11618235.05646  -8901903.26261
  23370847.4204   -3003127.24745  -2226470.29761
  20479393.1934   -4057138.10346  -3103561.34563
  21294763.3574  -16892601.45747 -12982740.44562
  23158408.8344   -4602034.04345  -3396201.72761
 91  4  7 22  7 29.9980000  0  6G18G11G16G19G 2G 6
  21526683.2254    5486359.80247   4289803.90062
  22361809.3114  -11620028.21446  -8903300.52561
  23368941.084    -3013144.013 5  -2234275.60221
  20479127.6934   -4058527.18046  -3104643.74363
  21287760.7254  -16929396.94547 -13011412.18862
  23150767.193    -4642211.732 5  -3427508.94321
 91  4  7 22  7 44.9980000  0  6G18G11G16G19G 2G 6
  21533204.0224    5520621.54047   4316501.26362
  22361495.3114  -11621671.48546  -8904580.98561
  23367061.0534   -3023034.25345  -2241982.31661
  20478873.0224   -4059867.05246  -3105687.80063
  21280773.2724  -16966118.79647 -13040026.55562
  23143118.764    -4682389.182 5  -3458815.97221
 91  4  7 22  7 59.9980000  0  6G18G11G16G19G 2G 6
  21539734.4434    5554960.95447   4343259.15062
  22361207.4984  -11623166.70546  -8905746.08461
  23365198.451    -3032799.686 5  -2249591.78921
  20478629.0534   -4061159.42346  -3106694.84563
  21273799.6704  -17002768.77247 -13068584.91462
  23135474.740    -4722568.245 5  -3490124.26021
 91  4  7 22  8 14.9980000  0  6G18G11G16G19G 2G 6
  21546287.5534    5589379.84447   4370078.96762
  22360953.014   -11624511.854 6
  23363367.1864   -3042438.08145  -2257102.25161
  20478392.7014   -4062401.97046
  21266837.5224  -17039344.83047 -13097085.67462
  23127824.389    -4762746.951 5  -3521432.26621
 91  4  7 22  8 29.9980000  0  6G18G11G16G19G 2G 6
  21552850.850     5623875.164 7   4396958.33822
  22360727.772   -11625709.447 6
  23361559.787    -3051952.422 5  -2264516.06621
  20478163.0684   -4063597.18446
  21259892.3814  -17075849.42947 -13125530.74662
  23120176.8504   -4802927.78145  -3552741.91561
 91  4  7 22  8 44.9980000  0  6G18G11G16G19G 2G 6
  21559431.2954    5658449.20847   4423899.05862
  22360525.209   -11626757.044 6  -8908543.70721
  23359773.3344   -3061340.23245  -2271831.27461
  20477944.0144   -4064742.47646  -3109486.84863
  21252960.4044  -17112279.92447 -13153918.07762
  23112537.662    -4843108.224 5  -3584051.27621
 91  4  7 22  8 59.9980000  0  6G18G11G16G19G 2G 6
  21566024.857     5693102.140 7   4450901.24522
  22360357.600   -11627654.573 6  -8909243.07721
  23358009.068    -3070601.215 5  -2279047.65721
  20477734.8814   -4065837.74446  -3110340.30463
  21246041.2094  -17148636.29247 -13182247.65362
  23104889.490    -4883288.215 5  -3615360.27621
 91  4  7 22  9 14.9980000  0  6G18G11G16G19G 2G 6
  21572632.8114    5727835.55947   4477966.16062
  22360215.787   -11628400.048 6  -8909823.95121
  23356274.0924   -3079733.68345  -2286163.91461
  20477538.3894   -4066880.83646  -3111153.10563
  21239135.7174  -17184916.52647 -13210517.90262
  23097242.3654   -4923465.68845  -3646667.31961
 91  4  7 22  9 29.9980000  0  6G18G11G16G19G 2G 6
  21579258.943     5762651.278 7   4505095.18222
  22360101.2954  -11628991.49346  -8910284.81661
  23354552.889    -3088735.706 5  -2293178.51621
  20477354.4594   -4067869.60146  -3111923.57163
  21232247.6474  -17221118.45047 -13238727.12562
  23089596.561    -4963638.728 5  -3677970.91521
 91  4  7 22  9 44.9980000  0  6G18G11G16G19G 2G 6
  21585900.5924    5797542.87147   4532283.34262
  22360014.5454  -11629435.17046  -8910630.52761
  23352870.232    -3097613.478 5  -2300096.29821
  20477171.8034   -4068810.19146  -3112656.50063
  21225374.6314  -17257248.48247 -13266880.33762
  23081954.5844   -5003813.63645  -3709275.94761
 91  4  7 22  9 59.9980000  0  6G18G11G16G19G 2G 6
  21592552.568     5832505.436 7   4559526.79222
  22359961.8034  -11629735.89746  -8910864.84861
  23351196.3974   -3106371.89445  -2306921.08461
  20476998.9044   -4069707.43046  -3113355.64663
  21218512.0534  -17293311.19947 -13294981.09362
  23074306.264    -5043995.044 5  -3740586.04621
 91  4  7 22 10 14.9980000  0  6G18G11G16G19G 2G 6
  21599219.998     5867544.182 7   4586829.60922
  22359929.5614  -11629888.30346
  23349561.553    -3115005.747 5  -2313648.81021
  20476841.7324   -4070555.64246  -3114016.59763
  21211661.3654  -17329301.15347 -13323025.14562
  23066660.686    -5084177.497 5  -3771896.97221
 91  4  7 22 10 29.9980000  0  6G18G11G16G19G 2G 6
  21605903.920     5902662.835 7   4614194.68722
  22359932.8974  -11629888.39346
  23347943.1544   -3123510.97445  -2320276.29961
  20476688.0684   -4071350.76546  -3114636.17663
  21204826.3574  -17365214.28747 -13351009.34762
  23059015.873    -5124357.088 5  -3803205.68421
 91  4  7 22 10 44.9980000  0  6G18G11G16G19G 2G 6
  21612600.3264    5937856.04547   4641617.86362
  22359959.6004  -11629741.20946
  23346348.1154   -3131892.87545  -2326807.69561
  20476546.6004   -4072097.61146  -3115218.13663
  21198009.2874  -17401055.74647 -13378937.68462
  23051368.975    -5164538.702 5  -3834515.96321
 91  4  7 22 10 59.9980000  0  6G18G11G16G19G 2G 6
  21619310.2724    5973124.08446   4669099.35562
  22360012.9594  -11629446.17146
  23344777.373    -3140150.621 5  -2333242.34221
  20476412.2794   -4072795.50846  -3115761.95263
  21191200.4124  -17436824.95647 -13406809.73262
  23043721.920    -5204721.877 5  -3865827.42921
 91  4  7 22 11 14.9980000  0  6G18G11G16G19G 2G 6
  21626037.428     6008464.957 6   4696637.59022
  22360100.5294  -11629005.24046  -8910295.47361
  23343228.014    -3148286.260 5  -2339581.85721
  20476286.6314   -4073446.21946  -3116269.01163
  21184408.8974  -17472523.56047 -13434626.75762
  23036076.8114   -5244908.50045  -3897141.62661
 91  4  7 22 11 29.9980000  0  6G18G11G16G19G 2G 6
  21632777.584     6043885.738 6   4724238.08822
  22360209.8734  -11628411.30246  -8909832.65561
  23341703.7174   -3156292.94445  -2345820.88161
  20476176.8114   -4074042.53446  -3116733.67263
  21177630.5374  -17508144.45847 -13462383.23562
  23028422.232    -5285091.348 5  -3928452.85621
 91  4  7 22 11 44.9980000  0  6G18G11G16G19G 2G 6
  21639531.1474    6079378.89546   4751894.99462
  22360351.2564  -11627671.52946  -8909256.20461
  23340198.772    -3164178.012 5  -2351965.13921
  20476072.7484   -4074591.43546  -3117161.39263
  21170865.7724  -17543694.76947 -13490084.71162
  23020780.4204   -5325277.59445  -3959766.72561
 91  4  7 22 11 59.9980000  0  6G18G11G16G19G 2G 6
  21646299.357     6114939.159 7   4779604.18222
  22360518.2254  -11626791.16446  -8908570.19861
  23338723.053    -3171946.605 5  -2358018.64221
  20475978.6474   -4075098.08846  -3117556.18963
  21164111.7644  -17579179.49947 -13517735.09162
  23013130.2794   -5365472.54745  -3991087.40061
 91  4  7 22 12 14.9980000  0  6G18G11G16G19G 2G 6
  21653082.8264    6150575.01346   4807372.27862
  22360713.4124  -11625761.43546  -8907767.81461
  23337274.2564   -3179589.86345  -2363974.47661
  20475889.2724   -4075553.54146  -3117911.10063
  21157372.0454  -17614590.03247 -13545327.64762
  23005486.9284   -5405667.19145  -4022407.81561
 91  4  7 22 12 29.9980000  0  6G18G11G16G19G 2G 6
  21659875.607     6186283.138 6   4835196.68222
  22360939.2564  -11624585.46146  -8906851.47561
  23335840.1314   -3187111.08345  -2369835.22161
  20475808.0844   -4075960.80246  -3118228.44763
  21150647.1704  -17649929.49447 -13572864.83662
  22997830.904    -5445864.647 5  -4053730.42321
 91  4  7 22 12 44.9980000  0  6G18G11G16G19G 2G 6
  21666685.990     6222065.953 6   4863079.29022
  22361193.0064  -11623260.76746  -8905819.23561
  23334428.9284   -3194507.77945  -2375598.93361
  20475744.5684   -4076317.06246  -3118506.06463
  21143936.5684  -17685195.15447 -13600344.50663
  22990185.397    -5486062.439 5  -4085053.29621
 91  4  7 22 12 59.9980000  0  6G18G11G16G19G 2G 6
  21673510.147     6257929.134 6   4891024.51921
  22361470.5454  -11621781.16146  -8904666.29161
  23333049.1784   -3201773.64645  -2381260.69461
  20475687.2324   -4076616.06246  -3118739.05763
  21137242.5294  -17720380.74747 -13627761.79363
  22982528.6784   -5526254.19345  -4116371.45561
 91  4  7 22 13 14.9980000  0  6G18G11G16G19G 2G 6
  21680347.2324    6293861.44546   4919023.61362
  22361787.0684  -11620158.00146  -8903401.48861
  23331682.1934   -3208920.11645  -2386829.43361
  20475637.1004   -4076869.00546  -3118936.15963
  21130560.3574  -17755497.60247 -13655125.51762
  22974889.006    -5566451.298 5  -4147693.82021
 91  4  7 22 13 29.9980000  0  6G18G11G16G19G 2G 6
  21687197.154     6329866.396 6   4947079.30821
  22362121.7324  -11618387.38046  -8902021.78261
  23330352.506    -3215943.589 5  -2392302.32021
  20475596.4904   -4077072.03947  -3119094.37763
  21123891.7724  -17790541.94747 -13682432.73663
  22967235.139    -5606649.953 5  -4179017.35221
 91  4  7 22 13 44.9980000  0  6G18G11G16G19G 2G 6
  21694065.412     6365943.172 6   4975190.97522
  22362482.1624  -11616470.20246  -8900527.87461
  23329037.2174   -3222845.02745  -2397680.11261
  20475571.5224   -4077225.70246
  21117235.732   -17825514.356 7 -13709683.90922
  22959586.576    -5646850.813 5  -4210342.62421
 91  4  7 22 13 59.9980000  0  6G18G11G16G19G 2G 6
  21700943.7094    6402096.63546   5003362.38861
  22362881.7874  -11614401.05646  -8898915.56161
  23327750.772    -3229618.928 5  -2402958.53621
  20475548.7014   -4077324.72947
  21110595.3574  -17860409.39247 -13736874.78663
  22951937.272    -5687048.632 5  -4241665.52121
 91  4  7 22 14 14.9980000  0  6G18G11G16G19G 2G 6
  21707838.545     6438324.509 6   5031591.80222
  22363297.162   -11612182.344 6  -8897186.68921
  23326490.779    -3236267.788 5  -2408139.51021
  20475545.4284   -4077371.16246
  21103968.7954  -17895229.33347 -13764007.15263
  22944283.240    -5727245.538 5  -4272987.69221
 91  4  7 22 14 29.9980000  0  6G18G11G16G19G 2G 6
  21714744.9824    6474623.51546   5059876.62362
  22363751.678   -11609817.215 6  -8895343.71521
  23325241.7484   -3242794.89045  -2413225.60461
  20475544.3974   -4077367.89646
  21097355.1474  -17929977.43047 -13791083.53463
  22936644.1234   -5767444.66645  -4304311.62861
 91  4  7 22 14 44.9980000  0  6G18G11G16G19G 2G 6
  21721665.3504    6510985.55846   5088210.57462
  22364224.3974  -11607313.11746  -8893392.47061
  23324023.7094   -3249207.89145  -2418222.81361
  20475553.9594   -4077322.27346
  21090756.7484  -17964661.05847 -13818109.67663
  22928988.2564   -5807653.46045  -4335643.07861
 91  4  7 22 14 59.9980000  0  6G18G11G16G19G 2G 6
  21728599.9434    6547418.90546   5116600.08062
  22364729.6154  -11604661.99246  -8891326.65661
  23322822.295    -3255498.439 5  -2423124.60121
  20475569.9284   -4077226.10547
  21084168.5764  -17999271.79047 -13845079.02163
  22921336.482    -5847863.637 5  -4366975.59421
 91  4  7 22 15 14.9980000  0  6G18G11G16G19G 2G 6
  21735543.568     6583923.317 6   5145044.97122
  22365265.3974  -11601863.85246  -8889146.29361
  23321648.631    -3261666.617 5  -2427931.01921
  20475598.4204   -4077079.23346
  21077597.7794  -18033809.70747 -13871991.62663
  22913682.7174   -5888075.19345  -4398309.19661
 91  4  7 22 15 29.9980000  0  6G18G11G16G19G 2G 6
  21742505.1784    6620497.49646   5173544.21862
  22365822.4674  -11598919.89946  -8886852.29661
  23320499.615    -3267713.811 5  -2432643.18021
  20475636.225    -4076882.715 6
  21071038.2794  -18068275.79147 -13898848.25063
  22906028.928    -5928289.222 5  -4429644.71621
 91  4  7 22 15 44.9980000  0  6G18G11G16G19G 2G 6
  21749476.498     6657135.444 6   5202093.15722
  22366406.7564  -11595835.85446  -8884449.14661
  23319371.920    -3273646.021 5  -2437265.72521
  20475682.1154   -4076642.02446  -3118759.40863
  21064492.5534  -18102675.75147 -13925653.36163
  22898378.3184   -5968511.37245  -4460986.58861
 91  4  7 22 15 59.9980000  0  6G18G11G16G19G 2G 6
  21756461.506     6693838.359 6   5230692.72022
  22367025.0454  -11592610.44646  -8881935.84361
  23318264.334    -3279461.663 5  -2441797.46121
  20475737.2404   -4076355.66646  -3118536.28063
  21057957.342   -18137008.310 7 -13952405.94722
  22890719.857    -6008740.358 5  -4492333.75921
 91  4  7 22 16 14.9980000  0  6G18G11G16G19G 2G 6
  21763460.514     6730615.832 6   5259350.38922
  22367664.1704  -11589234.04046  -8879304.87761
  23317179.3734   -3285151.43645  -2446231.10261
  20475801.295    -4076013.870 6  -3118269.96123
  21051439.6474  -18171263.66247 -13979098.37862
  22883066.506    -6048966.533 5  -4523678.75521
 91  4  7 22 16 29.9980000  0  6G18G11G16G19G 2G 6
  21770468.131     6767462.064 6   5288061.62522
  22368335.0454  -11585712.05546  -8876560.46561
  23316128.1004   -3290720.49345  -2450570.69361
  20475877.5224   -4075621.90346  -3117964.54662
  21044935.3034  -18205447.26547 -14005734.89363
  22875413.1394   -6089195.01645  -4555025.53261
 91  4  7 22 16 44.9980000  0  6G18G11G16G19G 2G 6
  21777496.764     6804380.442 6   5316829.08422
  22369032.4044  -11582040.98646  -8873699.89161
  23315083.6624   -3296165.44345  -2454813.54661
  20475959.740    -4075176.093 6  -3117617.17622
  21038445.279   -18239555.544 7 -14032312.72222
  22867758.186    -6129422.454 5  -4586371.52321
 91  4  7 22 16 59.9980000  0  6G18G11G16G19G 2G 6
  21784532.311     6841360.419 6   5345644.53821
  22369761.0924  -11578231.06946  -8870731.13261
  23314072.4124   -3301496.39445  -2458967.63661
  20476052.0534   -4074686.35646  -3117235.55663
  21031967.537   -18273598.366 7 -14058839.54222
  22860102.0924   -6169658.83645  -4617724.47861
 91  4  7 22 17 14.9980000  0  6G18G11G16G19G 2G 6
  21791583.389     6878411.913 6   5374515.71921
  22370517.9364  -11574272.50746  -8867646.54861
  23313080.0294   -3306703.52045  -2463025.18561
  20476156.1314   -4074142.86746  -3116812.07263
  21025504.850   -18307565.893 7 -14085307.69522
  22852440.4904   -6209894.21145  -4649076.63561
 91  4  7 22 17 29.9980000  0  6G18G11G16G19G 2G 6
  21798646.600     6915530.072 6   5403438.84921
  22371291.8974  -11570169.98246  -8864449.78361
  23312113.639    -3311791.726 5  -2466990.06421
  20476270.240    -4073550.032 6  -3116350.13123
  21019053.287   -18341462.814 7 -14111720.82723
  22844785.3654   -6250133.37545  -4680431.75961
 91  4  7 22 17 44.9980000  0  6G18G11G16G19G 2G 6
  21805724.709     6952713.116 6   5432412.53422
  22372103.8184  -11565924.74546  -8861141.81961
  23311170.3654   -3316762.72545  -2470863.62861
  20476392.748    -4072909.039 6  -3115850.66924
  21012613.9824  -18375290.27847 -14138079.83163
  22837125.397    -6290377.315 5  -4711790.58321
 91  4  7 22 17 59.9980000  0  6G18G11G16G19G 2G 6
  21812814.2014    6989968.76146   5461442.79461
  22372936.2724  -11561529.42546  -8857716.89361
  23310247.1934   -3321608.96545  -2474639.98861
  20476519.420    -4072212.390 6  -3115307.84023
  21006193.545   -18409040.966 7 -14164379.01323
  22829468.092    -6330618.699 5  -4743147.43021
 91  4  7 22 18 14.9980000  0  6G18G11G16G19G 2G 6
  21819917.5614    7027294.60046   5490527.74461
  22373801.0454  -11556985.99046  -8854176.56761
  23309350.248    -3326332.307 5  -2478320.55221
  20476668.522    -4071461.798 6  -3114722.97323
  20999784.029   -18442716.658 7 -14190619.75922
  22821813.857    -6370859.338 5  -4774503.70121
 91  4  7 22 18 29.9980000  0  6G18G11G16G19G 2G 6
  21827033.2324    7064684.77246   5519662.81561
  22374692.8814  -11552300.03646  -8850525.17461
  23308462.9984   -3330938.37645  -2481909.76661
  20476818.1934   -4070662.74546  -3114100.34664
  20993388.990   -18476322.866 7 -14216806.36723
  22814147.9674   -6411104.67345  -4805863.62061
 91  4  7 22 18 44.9980000  0  6G18G11G16G19G 2G 6
  21834159.2874    7102143.31046   5548851.17361
  22375610.3814  -11547467.42646  -8846759.50861
  23307616.6234   -3335423.36445  -2485404.61561
  20476980.662    -4069810.691 6  -3113436.41924
  20987008.068   -18509855.309 7 -14242935.49023
  22806488.904    -6451350.696 5  -4837224.08021
 91  4  7 22 18 59.9980000  0  6G18G11G16G19G 2G 6
  21841302.0064    7139662.93446   5578087.11461
  22376562.2324  -11542495.40746  -8842885.21761
  23306780.209    -3339794.409 5  -2488810.67321
  20477154.193    -4068912.522 6  -3112736.56624
  20980639.404   -18543321.264 7 -14269012.80423
  22798831.920    -6491604.284 5  -4868590.42521
 91  4  7 22 19 14.9980000  0  6G18G11G16G19G 2G 6
  21848451.2014    7177251.82046   5607377.04061
  22377538.1314  -11537375.67546  -8838895.82561
  23305976.404    -3344043.189 5  -2492121.48121
  20477334.9904   -4067959.90046  -3111994.27063
  20974283.943   -18576712.208 7 -14295031.66923
  22791172.897    -6531857.148 5  -4899956.21021
 91  4  7 22 19 29.9980000  0  6G18G11G16G19G 2G 6
  21855617.881     7214911.058 6   5636721.79721
  22378541.0534  -11532106.98046  -8834790.35661
  23305191.7014   -3348168.53045  -2495336.09161
  20477521.990    -4066951.487 6  -3111208.50523
  20967946.951   -18610026.603 7 -14320990.88723
  22783516.475    -6572107.945 5  -4931320.38721
 91  4  7 22 19 44.9980000  0  6G18G11G16G19G 2G 6
  21862798.2954    7252636.60846   5666118.20661
  22379566.7644  -11526693.05846  -8830571.72361
  23304428.4044   -3352174.17645  -2498457.45061
  20477727.9904   -4065890.75346  -3110381.96863
  20961622.201   -18643268.210 7 -14346893.39023
  22775851.897    -6612360.113 5  -4962685.62621
 91  4  7 22 19 59.9980000  0  6G18G11G16G19G 2G 6
  21869988.850     7290425.760 6   5695564.18321
  22380626.631   -11521136.460 6  -8826241.92521
  23303685.9204   -3356062.72445  -2501487.52861
  20477939.7094   -4064780.23546  -3109516.64063
  20955310.248   -18676439.726 7 -14372741.27223
  22768194.592    -6652616.297 5  -4994054.01321
 91  4  7 22 20 14.9980000  0  6G18G11G16G19G 2G 6
  21877193.3184    7328284.80546   5725064.62261
  22381708.443   -11515430.845 6  -8821796.00321
  23302977.7874   -3359828.03145  -2504421.59261
  20478161.4364   -4063613.20746  -3108607.28063
  20949011.4044  -18709534.51547 -14398529.36263
  22760532.975    -6692869.943 5  -5025420.41021
 91  4  7 22 20 29.9980000  0  6G18G11G16G19G 2G 6
  21884411.0144    7366209.26946   5754616.03561
  22382824.7174  -11509580.61746  -8817237.40961
  23302280.600    -3363474.142 5  -2507262.76821
  20478393.2724   -4062393.96346  -3107657.23063
  20942725.131   -18742556.947 7 -14424261.07823
  22752867.3264   -6733125.28945  -5056788.13761
 91  4  7 22 20 44.9980000  0  6G18G11G16G19G 2G 6
  21891640.811     7404207.507 6   5784224.93721
  22383967.975   -11503577.180 6  -8812559.41721
  23301611.717    -3366992.929 5  -2510004.74821
  20478637.7014   -4061113.70346  -3106659.63263
  20936460.264   -18775498.275 7 -14449929.59323
  22745213.881    -6773373.811 5  -5088150.54221
 91  4  7 22 20 59.9980000  0  6G18G11G16G19G 2G 6
  21898883.7094    7442269.63146   5813883.61361
  22385134.373   -11497430.346 6  -8807769.69321
  23300957.850    -3370394.172 5  -2512655.12521
  20478888.6864   -4059782.03046  -3105621.97363
  20930202.428   -18808368.152 7 -14475542.43222
  22737555.811    -6813625.055 5  -5119515.07921
 91  4  7 22 21 14.9980000  0  6G18G11G16G19G 2G 6
  21906139.897     7480395.733 6   5843592.15021
  22386333.8734  -11491140.00546  -8802868.13361
  23300340.3974   -3373677.24745  -2515213.41861
  20479155.678    -4058398.417 6  -3104543.84423
  20923961.834   -18841166.219 7 -14501099.31223
  22729897.725    -6853878.750 5  -5150881.52021
 91  4  7 22 21 29.9980000  0  6G18G11G16G19G 2G 6
  21913408.3974    7518586.34546   5873350.94861
  22387557.6544  -11484705.24646  -8797854.05061
  23299733.998    -3376841.775 5  -2517679.35021
  20479426.553    -4056961.953 6  -3103424.53523
  20917732.897   -18873891.596 7 -14526599.55623
  22722231.3034   -6894133.86445  -5182249.06061
 91  4  7 22 21 44.9970000  0  6G18G11G16G19G 2G 6
  21920684.3214    7556835.55146   5903155.40861
  22388810.556   -11478129.613 6  -8792730.19721
  23299151.4704   -3379890.97645  -2520055.41161
  20479711.0794   -4055475.47546  -3102266.24363
  20911521.009   -18906545.113 7 -14552043.80423
  22714571.876    -6934390.810 5  -5213618.02021
 91  4  7 22 21 59.9970000  0  6G18G11G16G19G 2G 6
  21927980.3534    7595159.54646   5933018.13361
  22390087.1264  -11471401.44346  -8787487.47061
  23298594.454    -3382814.130 5  -2522333.24321
  20480004.4624   -4053927.71146  -3101060.20363
  20905323.5484  -18939120.02147 -14577426.79163
  22706911.9234   -6974643.91345  -5244984.00361
 91  4  7 22 22 14.9970000  0  6G18G11G16G19G 2G 6
  21935282.4624    7633550.31546   5962932.90161
  22391396.962   -11464526.152 6  -8782130.11421
  23298068.9394   -3385616.04845  -2524516.61061
  20480306.392    -4052323.771 6  -3099810.39723
  20899138.4704  -18971619.40847 -14602750.92863
  22699257.5714   -7014895.42946  -5276348.72961
 91  4  7 22 22 29.9970000  0  6G18G11G16G19G 2G 6
  21942603.1814    7672007.31446   5992899.26661
  22392737.579   -11457504.117 6  -8776658.42121
  23297553.337    -3388297.261 5  -2526605.93921
  20480624.5324   -4050663.88646  -3098516.98363
  20892966.9464  -19004043.45047 -14628016.35763
  22691598.3214   -7055145.76146  -5307712.53561
 91  4  7 22 22 44.9970000  0  6G18G11G16G19G 2G 6
  21949931.1344    7710521.87646   6022910.48961
  22394096.1894  -11450343.88046  -8771079.02661
  23297067.2514   -3390866.42645  -2528607.97361
  20480951.4854   -4048956.07346  -3097186.23263
  20886810.8684  -19036400.44247 -14653229.54263
  22683934.064    -7095402.864 5  -5339081.63621
 91  4  7 22 22 59.9970000  0  6G18G11G16G19G 2G 6
  21957273.9934    7749107.44046   6052977.03761
  22395486.6424  -11443032.01346  -8765381.47361
  23296597.1264   -3393310.30545  -2530512.32461
  20481288.5174   -4047186.78146  -3095807.56963
  20880668.8924  -19068676.83847 -14678379.92763
  22676272.689    -7135653.475 5  -5370445.66321
 91  4  7 22 23 14.9970000  0  6G18G11G16G19G 2G 6
  21964628.470     7787753.460 6   6083090.70521
  22396905.8294  -11435578.74646  -8759573.74161
  23296156.0404   -3395638.95745  -2532326.91961
  20481632.9544   -4045366.18646  -3094388.93363
  20874539.6034  -19100882.99647 -14703475.57463
  22668613.126    -7175907.840 5  -5401812.61421
 91  4  7 22 23 29.9970000  0  6G18G11G16G19G 2G 6
  21971992.6104    7826457.54746   6113249.61861
  22398352.532   -11427986.545 6  -8753657.75521
  23295731.1654   -3397854.54245  -2534053.42661
  20481987.6264   -4043496.39246  -3092931.96163
  20868424.3214  -19133021.01147 -14728518.12463
  22660952.110    -7216167.938 5  -5433184.03521
 91  4  7 22 23 44.9970000  0  6G18G11G16G19G 2G 6
  21979373.1964    7865225.27246   6143458.10961
  22399822.5014  -11420249.60546  -8747628.98361
  23295338.024    -3399951.705 5  -2535687.64721
  20482352.2354   -4041571.27246  -3091431.87763
  20862321.2044  -19165084.93547 -14753502.93863
  22653289.1814   -7256428.01145  -5464555.44461
 91  4  7 22 23 59.9970000  0  6G18G11G16G19G 2G 6
  21986759.814     7904055.619 6   6173715.41421
  22401323.7594  -11412368.61846  -8741487.96361
  23294960.4704   -3401931.00745  -2537230.02561
  20482733.3454   -4039591.48646  -3089889.19463
  20856234.2434  -19197075.47047 -14778430.56963
  22645629.196    -7296688.595 5  -5495927.23521
 91  4  7 22 24 14.9970000  0  6G18G11G16G19G 2G 6
  21994159.4784    7942949.41046   6204022.13261
  22402850.5644  -11404342.86846  -8735234.13761
  23294602.5094   -3403791.96745  -2538680.19761
  20483119.8994   -4037556.17046  -3088303.24263
  20850160.806   -19228991.650 7 -14803300.26423
  22637967.251    -7336948.847 5  -5527298.77521
 91  4  7 22 24 29.9970000  0  6G18G11G16G19G 2G 6
  22001572.9854    7981907.02046   6234378.58861
  22404408.368   -11396171.952 6  -8728867.20121
  23294273.2434   -3405534.13145  -2540037.79661
  20483522.0094   -4035464.44746  -3086673.33863
  20844101.009   -19260832.866 7 -14828111.55123
  22630305.8214   -7377208.12045  -5558669.53961
 91  4  7 22 24 44.9970000  0  6G18G11G16G19G 2G 6
  22008999.2354    8020929.44946   6264785.55561
  22405988.3064  -11387854.67646  -8722386.21761
  23293963.8764   -3407156.09045  -2541301.73161
  20483927.3604   -4033314.91146  -3084998.38163
  20838055.704   -19292597.807 7 -14852863.40123
  22622643.821    -7417464.892 5  -5590038.38021
 91  4  7 22 24 59.9970000  0  6G18G11G16G19G 2G 6
  22016439.4934    8060017.04146   6295243.29261
  22407596.954   -11379390.492 6  -8715790.76921
  23293680.564    -3408657.318 5  -2542471.58421
  20484344.8454   -4031106.84446  -3083277.81563
  20832025.009   -19324285.810 7 -14877555.29623
  22614985.181    -7457718.656 5  -5621404.87121
 91  4  7 22 25 14.9970000  0  6G18G11G16G19G 2G 6
  22023888.228     8099161.765 6   6325745.53721
  22409238.0564  -11370787.63646  -8709087.24761
  23293414.907    -3410046.286 5  -2543553.97021
  20484775.9624   -4028848.29546  -3081517.91863
  20826010.267   -19355905.071 7 -14902193.62523
  22607328.306    -7497977.533 5  -5652775.32321
 91  4  7 22 25 29.9970000  0  6G18G11G16G19G 2G 6
  22031351.0714    8138376.27546   6356302.18261
  22410907.0404  -11362033.05546  -8702265.51061
  23293180.556    -3411310.106 5  -2544538.83321
  20485218.6034   -4026525.84046  -3079708.21963
  20820006.056   -19387442.525 7 -14926768.21423
  22599662.735    -7538228.190 5  -5684139.38621
 91  4  7 22 25 44.9970000  0  6G18G11G16G19G 2G 6
  22038825.0324    8177648.65246   6386903.90761
  22412594.048   -11353138.513 6  -8695334.71921
  23292957.6654   -3412460.44345  -2545435.27061
  20485669.0484   -4024151.05246  -3077857.74763
  20814021.017   -19418909.790 7 -14951288.10923
  22592002.884    -7578482.383 5  -5715506.19321
 91  4  7 22 25 59.9970000  0  6G18G11G16G19G 2G 6
  22046309.0324    8216986.17646   6417556.39461
  22414313.149   -11344096.584 6  -8688289.07621
  23292761.407    -3413489.954 5  -2546237.55221
  20486131.0244   -4021716.26346  -3075960.51163
  20808047.681   -19450299.335 7 -14975747.44223
  22584346.4464   -7618732.54645  -5746869.87261
 91  4  7 22 26 14.9970000  0  6G18G11G16G19G 2G 6
  22053805.837     8256377.576 6   6448250.86421
  22416058.8454  -11334918.33946  -8681137.21161
  23292587.985    -3414409.982 5  -2546954.52921
  20486606.2354   -4019232.40446  -3074025.04463
  20802086.923   -19481621.968 7 -15000154.63623
  22576684.571    -7658989.465 5  -5778238.79821
 91  4  7 22 26 29.9970000  0  6G18G11G16G19G 2G 6
  22061311.392     8295826.989 6   6478990.53821
  22417834.603   -11325599.876 6  -8673876.08421
  23292435.2124   -3415216.53245  -2547583.06661
  20487084.3454   -4016695.39346  -3072048.16063
  20796139.704   -19512873.703 7 -15024506.58123
  22569025.587    -7699249.113 5  -5809609.86021
 91  4  7 22 26 44.9970000  0  6G18G11G16G19G 2G 6
  22068830.149     8335338.930 6   6509778.93521
  22419634.2434  -11316136.21646  -8666501.81161
  23292300.0564   -3415904.28745  -2548119.05961
  20487584.423    -4014099.864 6  -3070025.68123
  20790204.9624  -19544049.38247 -15048799.26363
  22561362.8844   -7739506.30545  -5840979.01361
 91  4  7 22 26 59.9970000  0  6G18G11G16G19G 2G 6
  22076362.454     8374909.403 6   6540612.93121
  22421462.7824  -11306531.20546  -8659017.40061
  23292189.446    -3416477.430 5  -2548565.73221
  20488089.2904   -4011449.48246  -3067960.46063
  20784287.189   -19575152.792 7 -15073035.63223
  22553704.3534   -7779764.87145  -5872349.23461
 91  4  7 22 27 14.9970000  0  6G18G11G16G19G 2G 6
  22083902.564     8414541.222 6   6571494.73321
  22423318.3454  -11296781.99246  -8651420.62361
  23292103.548    -3416932.977 5  -2548920.78621
  20488605.6654   -4008740.91746  -3065849.89863
  20778381.837   -19606181.018 7 -15097213.42123
  22546040.610    -7820021.470 5  -5903717.92421
 91  4  7 22 27 29.9970000  0  6G18G11G16G19G 2G 6
  22091457.274     8454239.255 6   6602428.11821
  22425201.532   -11286883.914 6  -8643707.84621
  23292038.8214   -3417266.60345  -2549180.81461
  20489126.4704   -4005969.45346  -3063690.32263
  20772491.064   -19637129.159 7 -15121328.80123
  22538384.2044   -7860271.47145  -5935081.47461
 91  4  7 22 27 44.9970000  0  6G18G11G16G19G 2G 6
  22099022.626     8493999.196 6   6633409.76121
  22427111.368   -11276840.690 6  -8635881.97121
  23292008.157    -3417481.922 5  -2549348.67521
  20489668.6424   -4003138.74646  -3061484.58863
  20766620.017   -19668000.752 7 -15145384.53323
  22530723.5094   -7900518.54745  -5966442.74061
 91  4  7 22 27 59.9970000  0  6G18G11G16G19G 2G 6
  22106598.274     8533815.267 6   6664435.13421
  22429052.314   -11266658.148 6  -8627947.54421
  23291983.4544   -3417584.79345
  20490217.4704   -4000254.16046  -3059236.87063
  20760756.235   -19698801.364 7 -15169384.95423
  22523063.853    -7940768.229 5  -5997806.03021
 91  4  7 22 28 14.9970000  0  6G18G11G16G19G 2G 6
  22114188.626     8573687.361 6   6695504.15421
  22431015.103   -11256336.625 6  -8619904.82021
  23291986.3604   -3417575.53145
  20490776.2514   -3997315.81646  -3056947.25963
  20754906.290   -19729531.253 7 -15193330.27423
  22515407.7044   -7981020.47445  -6029171.32461
 91  4  7 22 28 29.9970000  0  6G18G11G16G19G 2G 6
  22121788.970     8613620.337 6   6726620.61721
  22433007.7594  -11245870.87546  -8611749.70361
  23292009.9154   -3417449.06945
  20491346.634    -3994318.350 6  -3054611.58323
  20749077.493   -19760185.045 7 -15217216.29923
  22507743.251    -8021269.944 5  -6060534.45921
 91  4  7 22 28 44.9970000  0  6G18G11G16G19G 2G 6
  22129395.8294    8653611.22246   6757782.20561
  22435021.3534  -11235263.68846  -8603484.37061
  23292054.853    -3417208.038 5
  20491929.220    -3991264.356 6  -3052231.86623
  20743259.235   -19790765.519 7 -15241045.18123
  22500087.899    -8061519.449 6  -6091897.62921
 91  4  7 22 28 59.9970000  0  6G18G11G16G19G 2G 6
  22137019.4934    8693665.26646   6788992.98861
  22437072.095   -11224509.611 6  -8595104.58621
  23292123.2904   -3416847.13845
  20492522.712    -3988148.056 6  -3049803.59323
  20737453.329   -19821267.248 7 -15264812.71323
  22492427.6654   -8101763.39346  -6123256.44861
 91  4  7 22 29 14.9970000  0  6G18G11G16G19G 2G 6
  22144653.337     8733774.902 6   6820247.11821
  22439144.267   -11213616.140 6  -8586616.19221
  23292207.5404   -3416373.69945  -2548485.58361
  20493125.649    -3984976.565 6  -3047332.31123
  20731665.149   -19851697.465 7 -15288524.51723
  22484774.8534   -8142008.76246  -6154616.38061
 91  4  7 22 29 29.9970000  0  6G18G11G16G19G 2G 6
  22152294.7354    8773938.92946   6851543.61161
  22441241.009   -11202584.621 6  -8578020.21921
  23292325.274    -3415789.377 5  -2548030.32521
  20493738.517    -3981750.943 6  -3044818.85523
  20725886.220   -19882057.128 7 -15312181.34923
  22477109.5324   -8182256.77246  -6185978.37161
 91  4  7 22 29 44.9970000  0  6G18G11G16G19G 2G 6
  22159952.665     8814163.460 6   6882887.25421
  22443369.439   -11191408.739 6  -8569311.75821
  23292459.3214   -3415087.76145  -2547483.71061
  20494364.876    -3978464.481 6  -3042257.98923
  20720123.110   -19912339.977 7 -15335778.32323
  22469454.532    -8222501.132 6  -6217337.53021
 91  4  7 22 29 59.9970000  0  6G18G11G16G19G 2G 6
  22167615.2904    8854444.79546   6914275.15661
  22445526.360   -11180092.188 6  -8560493.68121
  23292607.165    -3414272.762 5  -2546848.72121
  20494999.235    -3975120.758 6  -3039652.50723
  20714374.087   -19942549.447 7 -15359318.12123
  22461792.6344   -8262745.15446  -6248696.41961
 91  4  7 22 30 14.9970000  0  6G18G11G16G19G 2G 6
  22175292.626     8894782.744 6   6945707.18321
  22447704.407   -11168635.110 6  -8551566.11821
  23292790.267    -3413344.242 5  -2546125.27521
  20495647.282    -3971719.607 6  -3037002.28123
  20708638.5404  -19972685.45547 -15382800.67163
  22454136.0954   -8302988.82846  -6280055.04261
 91  4  7 22 30 29.9970000  0  6G18G11G16G19G 2G 6
  22182977.696     8935174.139 6   6977180.85721
  22449914.2514  -11157040.27946  -8542531.21761
  23292992.1814   -3412304.90145  -2545315.46061
  20496304.087    -3968263.548 6  -3034309.26523
  20702919.243   -20002750.673 7 -15406228.05923
  22446477.103    -8343234.636 6  -6311415.31621
 91  4  7 22 30 44.9970000  0  6G18G11G16G19G 2G 6
  22190674.0874    8975621.89946   7008698.43961
  22452145.9854  -11145304.72346  -8533386.65761
  23293212.681    -3411151.973 5  -2544417.17721
  20496974.915    -3964749.311 6  -3031570.92023
  20697211.524   -20032742.070 7 -15429597.92623
  22438822.2824   -8383479.43746  -6342774.81661
 91  4  7 22 30 59.9970000  0  6G18G11G16G19G 2G 6
  22198383.571     9016126.802 6   7040260.56221
  22454401.8534  -11133427.54046  -8524131.72961
  23293446.9464   -3409884.88745  -2543429.92061
  20497652.1184   -3961175.78946  -3028786.36763
  20691518.056   -20062658.660 7 -15452909.51023
  22431160.392    -8423722.180 6  -6374132.71721
 91  4  7 22 31 14.9970000  0  6G18G11G16G19G 2G 6
  22206098.3534    9056688.47746   7071866.91461
  22456689.314   -11121409.033 6  -8514766.68821
  23293710.7984   -3408503.69745  -2542353.74861
  20498347.743    -3957543.103 6  -3025955.72323
  20685840.407   -20092500.516 7 -15476162.85123
  22423503.1034   -8463962.99846  -6405489.11861
 91  4  7 22 31 29.9970000  0  6G18G11G16G19G 2G 6
  22213830.376     9097313.099 6   7103522.31621
  22459008.7904  -11109243.06346  -8505286.74061
  23294002.353    -3407002.346 5  -2541183.93221
  20499049.048    -3953844.793 6  -3023073.93923
  20680174.626   -20122261.403 7 -15499353.10023
  22415846.3994   -8504195.53146  -6436839.05261
 91  4  7 22 31 44.9970000  0  6G18G11G16G19G 2G 6
  22221571.540     9137990.554 6   7135218.89321
  22461347.7044  -11096939.70146  -8495699.73961
  23294305.735    -3405390.912 5  -2539928.36121
  20499765.399    -3950090.658 6  -3020148.65723
  20674526.509   -20151951.009 7 -15522487.80523
  22408191.306    -8544429.566 6  -6468190.16921
 91  4  7 22 31 59.9970000  0  6G18G11G16G19G 2G 6
  22229323.7744    9178727.42046   7166961.76461
  22463717.978   -11084492.318 6  -8486000.50321
  23294634.5874   -3403662.83345  -2538581.89461
  20500486.790    -3946273.681 6  -3017174.41323
  20668892.064   -20181562.832 7 -15545561.90223
  22400532.923    -8584658.457 6  -6499537.28421
 91  4  7 22 32 14.9970000  0  6G18G11G16G19G 2G 6
  22237085.6344    9219520.65146   7198748.54461
  22466112.946   -11071903.436 6  -8476191.00021
  23294986.681    -3401820.746 5  -2537146.56621
  20501227.321    -3942396.144 6  -3014152.97423
  20663271.907   -20211099.363 7 -15568577.32823
  22392880.4624   -8624884.34946  -6530882.04161
 91  4  7 22 32 29.9970000  0  6G18G11G16G19G 2G 6
  22244863.8064    9260371.74146   7230580.41161
  22468533.204   -11059171.791 6  -8466270.25721
  23295358.8534   -3399863.07745  -2535621.21761
  20501977.345    -3938456.613 6  -3011083.23123
  20657664.673   -20240558.953 7 -15591532.80423
  22385228.696    -8665105.731 6  -6562223.30621
 91  4  7 22 32 44.9970000  0  6G18G11G16G19G 2G 6
  22252647.8454    9301271.90246   7262450.50561
  22470986.6574  -11046306.07846  -8456245.05061
  23295748.603    -3397798.844 5  -2534012.80721
  20502737.649    -3934463.611 6  -3007971.81823
  20652070.267   -20269950.055 7 -15614434.91123
  22377574.649    -8705331.097 6  -6593567.67321
 91  4  7 22 32 59.9970000  0  6G18G11G16G19G 2G 6
  22260438.0484    9342224.99846   7294361.85661
  22473459.837   -11033302.234 6  -8446112.21321
  23296166.1184   -3395624.01945  -2532318.20061
  20503506.806    -3930412.702 6  -3004815.28323
  20646493.462   -20299268.671 7 -15637280.53023
  22369917.431    -8745556.232 6  -6624911.85621
 91  4  7 22 33 14.9970000  0  6G18G11G16G19G 2G 6
  22268242.7984    9383230.52146   7326314.05061
  22475961.3764  -11020160.77146  -8435872.14161
  23296597.806    -3393339.095 5  -2530537.83221
  20504291.149    -3926304.071 6  -3001613.77623
  20640926.587   -20328515.111 7 -15660069.91723
  22362262.353    -8785781.519 6  -6656256.15421
 91  4  7 22 33 29.9970000  0  6G18G11G16G19G 2G 6
  22276055.6894    9424293.09046   7358310.70761
  22478485.9154  -11006877.04746  -8425521.21761
  23297057.4394   -3390939.32345  -2528667.94761
  20505081.610    -3922132.749 6  -2998363.41223
  20635375.392   -20357684.471 7 -15682799.23823
  22354608.118    -8826001.928 6  -6687596.65521
 91  4  7 22 33 44.9970000  0  6G18G11G16G19G 2G 6
  22283878.298     9465412.000 6   7390351.25321
  22481041.9394  -10993451.47046  -8415059.76561
  23297537.681    -3388425.393 5  -2526709.11021
  20505887.564    -3917899.020 6  -2995064.42723
  20629838.8764  -20386777.06747 -15705468.73763
  22346953.4464   -8866217.79146  -6718933.61961
 91  4  7 22 33 59.9970000  0  6G18G11G16G19G 2G 6
  22291715.4464    9506586.36446   7422435.01861
  22483624.540   -10979884.911 6  -8404488.44121
  23298035.235    -3385797.859 5  -2524661.77321
  20506703.189    -3913603.305 6  -2991717.13723
  20624317.384   -20415793.545 7 -15728078.92323
  22339304.8844   -8906429.51246  -6750267.35861
 91  4  7 22 34 14.9970000  0  6G18G11G16G19G 2G 6
  22299560.282     9547813.944 6   7454560.26121
  22486231.259   -10966179.843 6  -8393809.18321
  23298552.7904   -3383059.48345  -2522528.03861
  20507535.696    -3909247.732 6  -2988323.20523
  20618812.595   -20444736.204 7 -15750631.60023
  22331651.892    -8946639.486 6  -6781599.73221
 91  4  7 22 34 29.9970000  0  6G18G11G16G19G 2G 6
  22307417.884     9589093.977 6   7486726.35721
  22488867.7124  -10952336.61046  -8383022.27061
  23299097.0794   -3380210.47145  -2520308.11461
  20508376.165    -3904832.587 6  -2984882.85423
  20613317.306   -20473605.214 7 -15773126.88323
  22324000.095    -8986847.895 6  -6812930.88221
 91  4  7 22 34 44.9970000  0  6G18G11G16G19G 2G 6
  22315281.3684    9630423.43146   7518930.97861
  22491526.556   -10938358.449 6  -8372130.22221
  23299655.470    -3377254.294 5  -2518004.68221
  20509226.259    -3900360.749 6  -2981398.32923
  20607834.829   -20502403.655 7 -15795567.17923
  22316346.556    -9027057.587 6  -6844263.03121
 91  4  7 22 34 59.9970000  0  6G18G11G16G19G 2G 6
  22323156.2744    9671803.83446   7551175.29661
  22494211.8534  -10924243.49846  -8361131.58861
  23300247.0794   -3374189.08845  -2515616.29961
  20510087.314    -3895830.067 6  -2977867.94223
  20602368.821   -20531129.430 7 -15817950.85023
  22308694.4074   -9067266.53646  -6875594.61161
 91  4  7 22 35 14.9970000  0  6G18G11G16G19G 2G 6
  22331038.4074    9713231.98846   7583456.82061
  22496919.9234  -10909994.80546  -8350028.74461
  23300850.532    -3371017.899 5  -2513145.32421
  20510962.376    -3891243.128 6  -2974293.72423
  20596918.431   -20559785.535 7 -15840280.23223
  22301047.329    -9107477.522 6  -6906927.78021
 91  4  7 22 35 29.9970000  0  6G18G11G16G19G 2G 6
  22338934.8844    9754721.53246   7615786.17061
  22499659.962   -10895598.844 6  -8338811.13421
  23301479.6494   -3367727.38945  -2510581.37761
  20511850.149    -3886586.350 6  -2970665.08623
  20591480.095   -20588358.344 7 -15862544.70923
  22293395.892    -9147676.955 6  -6938251.92421
 91  4  7 22 35 44.9970000  0  6G18G11G16G19G 2G 6
  22346840.251     9796256.712 6   7648151.08121
  22502425.165   -10881071.160 6  -8327490.90021
  23302124.751    -3364332.647 5  -2507936.20221
  20512744.064    -3881874.945 6  -2966993.88223
  20586058.071   -20616863.118 7 -15884756.17423
  22285743.235    -9187879.978 6  -6969578.88321
 91  4  7 22 35 59.9970000  0  6G18G11G16G19G 2G 6
  22354752.501     9837840.198 6   7680553.64121
  22505216.9234  -10866408.90946  -8316065.80861
  23302787.7984   -3360831.30045  -2505207.96761
  20513652.524    -3877105.740 6  -2963277.63623
  20580645.821   -20645297.102 7 -15906912.47623
  22278096.1964   -9228083.50946  -7000906.23661
 91  4  7 22 36 14.9970000  0  6G18G11G16G19G 2G 6
  22362675.7434    9879473.30446   7712994.86361
  22508033.884   -10851610.721 6  -8304534.78121
  23303471.7674   -3357221.82245  -2502395.49461
  20514572.064    -3872277.106 6  -2959515.07723
  20575250.071   -20673658.561 7 -15929012.26623
  22270445.5174   -9268285.90546  -7032232.70561
 91  4  7 22 36 29.9970000  0  6G18G11G16G19G 2G 6
  22370606.610     9921158.685 6   7745476.82121
  22510874.2284  -10836674.13846  -8292895.91461
  23304177.454    -3353501.815 5  -2499496.86521
  20515502.821    -3867386.143 6  -2955703.95423
  20569862.845   -20701944.663 7 -15951053.33223
  22262795.110    -9308484.572 6  -7063556.26321
 91  4  7 22 36 44.9970000  0  6G18G11G16G19G 2G 6
  22378551.7744    9962896.88246   7777999.92861
  22513742.1894  -10821598.59946  -8281148.77361
  23304909.0794   -3349670.82945  -2496511.78061
  20516445.704    -3862432.090 6  -2951843.67423
  20564495.134   -20730154.893 7 -15973035.27723
  22255146.626    -9348678.667 6  -7094876.26321
 91  4  7 22 36 59.9970000  0  6G18G11G16G19G 2G 6
  22386501.0324   10004682.69846   7810560.14961
  22516640.9934  -10806389.04746  -8269297.21461
  23305653.2284   -3345733.87445  -2493444.10361
  20517399.493    -3857419.702 6  -2947937.93523
  20559141.470   -20758293.995 7 -15994961.79323
  22247498.259    -9388872.846 6  -7126196.32821
 91  4  7 22 37 14.9970000  0  6G18G11G16G19G 2G 6
  22394461.649    10046519.698 6   7843160.23821
  22519558.7124  -10791041.74246  -8257338.30661
  23306421.6104   -3341686.99244  -2490290.77161
  20518365.181    -3852344.815 6  -2943983.49423
  20553801.439   -20786358.105 7 -16016829.88623
  22239851.2204   -9429063.18346  -7157513.39561
 91  4  7 22 37 29.9970000  0  6G18G11G16G19G 2G 6
  22402431.595    10088397.713 6   7875792.28821
  22522501.532   -10775566.820 6  -8245279.95421
  23307220.0954   -3337540.47845  -2487059.81261
  20519338.087    -3847217.042 6  -2939987.84623
  20548473.415   -20814357.080 7 -16038647.21723
  22232198.196    -9469259.355 6  -7188835.03121
 91  4  7 22 37 44.9970000  0  6G18G11G16G19G 2G 6
  22410411.267    10130329.563 6   7908466.28221
  22525478.1034  -10759951.40946  -8233112.12861
  23308029.1894   -3333281.30945  -2483741.09161
  20520328.3294   -3842023.45246  -2935940.90563
  20543159.392   -20842277.859 7 -16060403.61823
  22224549.767    -9509448.381 6  -7220151.07721
 91  4  7 22 37 59.9970000  0  6G18G11G16G19G 2G 6
  22418401.157    10172314.706 6   7941181.81821
  22528473.2674  -10744196.10046  -8220835.28661
  23308856.0714   -3328910.41945  -2480335.29061
  20521328.2824   -3836764.38446  -2931842.93963
  20537861.306   -20870120.929 7 -16082099.46823
  22216905.399    -9549630.641 6  -7251461.85621
 91  4  7 22 38 14.9970000  0  6G18G11G16G19G 2G 6
  22426398.579    10214347.736 6   7973934.65221
  22531499.181   -10728306.339 6  -8208453.68221
  23309705.5794   -3324433.08745  -2476846.54661
  20522340.134    -3831444.991 6  -2927697.96923
  20532577.360   -20897891.558 7 -16103738.86923
  22209258.181    -9589811.258 6  -7282771.34421
 91  4  7 22 38 29.9970000  0  6G18G11G16G19G 2G 6
  22434409.095    10256430.656 6   8006726.36421
  22534548.3374  -10712279.83346  -8195965.51661
  23310586.8604   -3319847.25145  -2473273.24161
  20523363.267    -3826062.621 6  -2923503.92923
  20527308.665   -20925587.332 7 -16125319.94523
  22201614.384    -9629987.686 6  -7314077.57321
 91  4  7 22 38 44.9970000  0  6G18G11G16G19G 2G 6
  22442425.446    10298559.950 6   8039554.22621
  22537623.4314  -10696120.09346  -8183373.54461
  23311476.8534   -3315156.15545  -2469617.90661
  20524402.087    -3820620.503 6  -2919263.32923
  20522049.228   -20953211.477 7 -16146845.19823
  22193969.462    -9670163.203 6  -7345383.08521
 91  4  7 22 38 59.9970000  0  6G18G11G16G19G 2G 6
  22450450.485    10340737.017 6   8072419.30121
  22540722.2044  -10679825.64946  -8170676.60361
  23312389.579    -3310358.461 5  -2465879.56721
  20525445.056    -3815116.759 6  -2914974.71023
  20516807.603   -20980762.349 7 -16168313.35723
  22186327.923    -9710335.980 6  -7376686.47321
 91  4  7 22 39 14.9970000  0  6G18G11G16G19G 2G 6
  22458486.899    10382967.418 6   8105325.93421
  22543849.4624  -10663390.81046  -8157870.26761
  23313327.7824   -3305448.43745  -2462053.65861
  20526507.540    -3809545.427 6  -2910633.42823
  20511580.431   -21008234.291 7 -16189720.01423
  22178682.790    -9750500.228 6  -7407983.21421
 91  4  7 22 39 29.9970000  0  6G18G11G16G19G 2G 6
  22466532.501    10425237.425 6   8138263.43521
  22547002.064   -10646829.144 6  -8144965.09121
  23314278.126    -3300439.991 5  -2458151.05521
  20527581.235    -3803919.815 6  -2906249.85023
  20506363.235   -21035640.409 7 -16211075.37723
  22171038.235    -9790669.186 6  -7439283.62421
 91  4  7 22 39 44.9970000  0  6G18G11G16G19G 2G 6
  22474585.493    10467550.782 6   8171234.71221
  22550178.196   -10630137.167 6  -8131958.38221
  23315251.228    -3295329.306 5  -2454168.78621
  20528662.290    -3798236.112 6  -2901821.00623
  20501162.314   -21062977.118 7 -16232376.65023
  22163394.814    -9830838.932 6  -7470584.64121
 91  4  7 22 39 59.9970000  0  6G18G11G16G19G 2G 6
  22482645.1654   10509910.47946   8204242.09061
  22553382.157   -10613311.749 6  -8118847.69121
  23316240.9394   -3290113.25645  -2450104.41861
  20529753.5174   -3792490.92546  -2897344.24763
  20495974.603   -21090241.198 7 -16253621.34323
  22155747.454    -9871006.208 6  -7501883.73721
 91  4  7 22 40 14.9970000  0  6G18G11G16G19G 2G 6
  22490713.6654   10552317.82946   8237286.60461
  22556605.8144  -10596351.54446  -8105631.97661
  23317257.009    -3284790.769 5  -2445957.13121
  20530858.071    -3786682.694 6  -2892818.36723
  20490800.134   -21117431.036 7 -16274808.17923
  22148105.642    -9911169.400 6  -7533179.66021
 91  4  7 22 40 29.9970000  0  6G18G11G16G19G 2G 6
  22498794.923    10594772.237 6   8270367.78821
  22559863.8994  -10579257.11746  -8092311.67161
  23318289.7744   -3279362.01745  -2441727.02661
  20531977.728    -3780811.374 6  -2888243.32823
  20485639.032   -21144546.769 7 -16295937.27123
  22140467.642    -9951328.606 6  -7564472.47221
 91  4  7 22 40 44.9970000  0  6G18G11G16G19G 2G 6
  22506882.7434   10637267.12646   8303480.51561
  22563135.853   -10562034.888 6  -8078891.77221
  23319344.2434   -3273833.89045  -2437419.48861
  20533103.978    -3774883.195 6  -2883623.99023
  20480492.345   -21171594.880 7 -16317013.66923
  22132823.767    -9991490.164 6  -7595767.11821
 91  4  7 22 40 59.9970000  0  6G18G11G16G19G 2G 6
  22514977.3144   10679810.02146   8336630.64261
  22566440.478   -10544677.243 6  -8065366.36021
  23320408.048    -3268198.470 4  -2433028.32221
  20534243.149    -3768890.261 6  -2878954.18923
  20475360.665   -21198567.547 7 -16338031.27823
  22125177.423   -10031646.037 6  -7627057.33021
 91  4  7 22 41 14.9970000  0  6G18G11G16G19G 2G 6
  22523081.6734   10722395.78646   8369814.16961
  22569769.485   -10527189.421 6  -8051739.50421
  23321506.642    -3262461.296 5  -2428557.88021
  20535397.048    -3762837.393 6  -2874237.68323
  20470239.446   -21225469.975 7 -16358994.15523
  22117539.321   -10071801.325 6  -7658347.09121
 91  4  7 22 41 29.9970000  0  6G18G11G16G19G 2G 6
  22531194.712    10765025.548 6   8403031.99521
  22573122.2354  -10509570.14946  -8038010.23361
  23322616.6184   -3256621.14845  -2424007.23961
  20536562.220    -3756723.146 6  -2869473.35323
  20465135.923   -21252300.678 7 -16379901.14623
  22109896.1814  -10111954.43246  -7689635.13461
 91  4  7 22 41 44.9970000  0  6G18G11G16G19G 2G 6
  22539311.6964   10807697.19046   8436282.44161
  22576497.735   -10491821.400 6  -8024180.05221
  23323746.767    -3250679.876 5  -2419377.78321
  20537733.939    -3750549.269 6  -2864662.55923
  20460043.212   -21279061.350 7 -16400753.56323
  22102257.235   -10152107.120 6  -7720922.87121
 91  4  7 22 41 59.9970000  0  6G18G11G16G19G 2G 6
  22547444.2824   10850417.76846   8469571.02461
  22579901.337   -10473935.883 6  -8010243.31121
  23324900.1264   -3244630.07245  -2414663.72961
  20538921.407    -3744308.094 6  -2859799.31723
  20454963.610   -21305744.431 7 -16421545.52323
  22094616.103   -10192251.571 6  -7752204.18221
 91  4  7 22 42 14.9970000  0  6G18G11G16G19G 2G 6
  22555582.6964   10893184.94246   8502895.91761
  22583330.837   -10455916.488 6  -7996202.25621
  23326070.1184   -3238474.69145  -2409867.42561
  20540123.399    -3738001.848 6  -2854885.37723
  20449901.939   -21332352.676 7 -16442279.17223
  22086979.681   -10232390.494 6  -7783481.18121
 91  4  7 22 42 29.9970000  0  6G18G11G16G19G 2G 6
  22563729.7904   10935997.22746   8536255.95261
  22586784.095   -10437764.191 6  -7982057.64621
  23327260.274    -3232215.002 5
  20541334.712    -3731631.365 6
  20444853.228   -21358886.943 7 -16462955.16723
  22079341.079   -10272524.568 6  -7814754.41121
 91  4  7 22 42 44.9970000  0  6G18G11G16G19G 2G 6
  22571881.814    10978845.693 6   8569644.20021
  22590265.7594  -10419487.74046  -7967816.27561
  23328467.4784   -3225859.32245
  20542560.899    -3725205.262 6
  20439816.353   -21385355.780 7 -16483580.18323
  22071708.782   -10312662.432 6  -7846030.58721
 91  4  7 22 42 59.9970000  0  6G18G11G16G19G 2G 6
  22580041.1424   11021738.40346   8603066.90661
  22593767.157   -10401079.346 6  -7953472.10621
  23329701.845    -3219400.029 5
  20543791.876    -3718715.266 6
  20434792.024   -21411751.056 7 -16504147.88623
  22064068.728   -10352795.883 6  -7877303.32521
 91  4  7 22 43 14.9970000  0  6G18G11G16G19G 2G 6
  22588214.142    11064674.185 6   8636523.18821
  22597292.384   -10382540.102 6  -7939025.95321
  23330944.7984   -3212838.53245
  20545043.259    -3712162.311 6
  20429780.399   -21438073.727 7 -16524659.00624
  22056431.884   -10392925.739 6  -7908573.27221
 91  4  7 22 43 29.9970000  0  6G18G11G16G19G 2G 6
  22596391.2354   11107651.08946   8670011.50161
  22600848.7354  -10363871.80646  -7924479.26561
  23332218.524    -3206176.717 5
  20546297.978    -3705547.861 6
  20424787.173   -21464325.553 7 -16545114.92623
  22048796.056   -10433053.492 6  -7939841.57321
 91  4  7 22 43 44.9970000  0  6G18G11G16G19G 2G 6
  22604578.0484   11150674.55645   8703536.09561
  22604424.548   -10345068.953 6  -7909827.72421
  23333503.704    -3199409.006 5  -2379427.26521
  20547573.134    -3698866.040 6  -2824390.05623
  20419805.876   -21490500.807 7 -16565511.17523
  22041159.712   -10473173.346 6  -7971103.71321
 91  4  7 22 43 59.9970000  0  6G18G11G16G19G 2G 6
  22612775.181    11193739.054 5   8737092.66721
  22608026.5404  -10326137.12846  -7895075.68761
  23334808.4464   -3192540.76345  -2374075.53361
  20548855.939    -3692121.852 6  -2819134.86923
  20414839.196   -21516604.809 7 -16585851.91023
  22033527.618   -10513290.599 6  -8002363.84221
 91  4  7 22 44 14.9970000  0  6G18G11G16G19G 2G 6
  22620980.1184   11236846.46046   8770682.66061
  22611654.2594  -10307074.34146  -7880221.60361
  23336134.6894   -3185570.08445  -2368643.90061
  20550151.189    -3685313.108 6  -2813829.37523
  20409885.556   -21542635.219 7 -16606135.29523
  22025895.017   -10553402.912 6  -8033620.11021
 91  4  7 22 44 29.9970000  0  6G18G11G16G19G 2G 6
  22629188.962    11279989.663 5   8804300.57221
  22615309.3764  -10287887.74746  -7865271.04761
  23337485.1734   -3178504.15345  -2363138.12761
  20551454.149    -3678446.595 6  -2808478.86023
  20404944.962   -21568599.041 7 -16626366.79823
  22018259.157   -10593517.073 6  -8064877.82321
 91  4  7 22 44 44.9970000  0  6G18G11G16G19G 2G 6
  22637407.899    11323175.379 5   8837951.57621
  22618982.6894  -10268570.67846  -7850218.81761
  23338848.220    -3171336.409 5  -2357552.95521
  20552777.743    -3671515.468 6  -2803078.00023
  20400015.907   -21594489.427 7 -16646541.07723
  22010628.5794  -10633626.13246  -8096131.55661
 91  4  7 22 44 59.9970000  0  6G18G11G16G19G 2G 6
  22645635.1494   11366407.53245   8871638.78061
  22622680.9074  -10249119.22746  -7835061.87261
  23340231.024    -3164062.636 5  -2351885.18021
  20554105.439    -3664515.365 6  -2797623.39323
  20395106.439   -21620302.271 7 -16666654.93424
  22002995.165   -10673725.777 6  -8127377.96421
 91  4  7 22 45 14.9970000  0  6G18G11G16G19G 2G 6
  22653870.243    11409684.508 5   8905360.90521
  22626413.3534  -10229534.68546  -7819801.23061
  23341637.157    -3156684.391 4  -2346136.01921
  20555450.665    -3657447.420 6  -2792115.92423
  20390207.024   -21646038.736 7 -16686709.27623
  21995365.7674  -10713817.11846  -8158617.91061
 91  4  7 22 45 29.9970000  0  6G18G11G16G19G 2G 6
  22662111.2824   11453001.87545   8939114.51561
  22630163.4154  -10209821.48346  -7804440.32561
  23343056.821    -3149206.266 4  -2340309.01021
  20556807.993    -3650315.525 6  -2786558.62123
  20385323.548   -21671703.082 7 -16706707.42823
  21987738.259   -10753904.232 6  -8189854.52821
 91  4  7 22 45 44.9970000  0  6G18G11G16G19G 2G 6
  22670364.0014   11496362.33945   8972901.71461
  22633940.3454  -10189977.20246  -7788977.28361
  23344500.251    -3141625.906 4  -2334402.35121
  20558180.985    -3643117.135 6  -2780949.50623
  20380452.806   -21697292.699 7 -16726647.34723
  21980115.1494  -10793984.51546  -8221085.85861
 91  4  7 22 45 59.9970000  0  6G18G11G16G19G 2G 6
  22678622.7984   11539757.79146   9006716.14761
  22637739.8604  -10170009.60146  -7773418.14961
  23345958.532    -3133950.966 4  -2328421.99221
  20559556.978    -3635859.674 6  -2775294.35723
  20375599.9784  -21722815.04747 -16746534.85363
  21972482.0324  -10834065.28846  -8252317.55861
 91  4  7 22 46 14.9970000  0  6G18G11G16G19G 2G 6
  22686887.6894   11583189.00546   9040558.45961
  22641559.501   -10149918.018 6  -7757762.40421
  23347437.962    -3126180.640 4  -2322367.29621
  20560951.837    -3628542.004 6  -2769592.29423
  20370753.5874  -21748269.22047 -16766369.23463
  21964855.1654  -10874145.56446  -8283548.87361
 91  4  7 22 46 29.9970000  0  5G18G11G19G 2G 6
  22695157.524    11626653.918 6   9074427.03521
  22645409.243   -10129704.474 6  -7742011.63521
  20562355.118    -3621165.862 6  -2763844.67123
  20365924.0404  -21773657.17847 -16786152.01763
  21957229.7594  -10914227.03546  -8314781.11561
 91  4  7 22 46 44.9970000  0  5G18G11G19G 2G 6
  22703436.962    11670158.230 6   9108326.30021
  22649280.587   -10109363.397 6  -7726161.47721
  20563770.220    -3613725.361 6  -2758046.90123
  20361106.806   -21798973.041 7 -16805878.61923
  21949607.259   -10954303.890 6  -8346009.75621
 91  4  7 22 46 59.9970000  0  5G18G11G19G 2G 6
  22711722.454    11713706.521 5   9142259.83621
  22653173.4854  -10088889.74346  -7710208.01361
  20565202.243    -3606214.932 6  -2752194.64023
  20356302.4784  -21824211.67147 -16825545.04263
  21941979.9314  -10994370.72946  -8377230.60261
 91  4  7 22 47 14.9970000  0  5G18G11G19G 2G 6
  22720017.173    11757295.704 6   9176225.23621
  22657092.5644  -10068286.92846  -7694153.91661
  20566643.970    -3598637.743 6  -2746290.35223
  20351514.3144  -21849376.28647 -16845153.79763
  21934354.993   -11034430.543 6  -8408445.96121
 91  4  7 22 47 29.9970000  0  5G18G11G19G 2G 6
  22728318.7824   11800919.59345   9210217.68661
  22661042.1344  -10047560.96246  -7678003.85361
  20568097.251    -3590999.518 6  -2740338.50823
  20346737.6184  -21874472.58947 -16864709.31863
  21926733.8604  -11074489.13446  -8439660.39261
 91  4  7 22 47 44.9970000  0  5G18G11G19G 2G 6
  22736627.9074   11844582.76545   9244240.73361
  22665005.8214  -10026707.48446  -7661754.42061
  20569559.712    -3583295.475 6  -2734335.37823
  20341977.2824  -21899496.01348 -16884208.05263
  21919111.415   -11114541.695 6  -8470870.09521
 91  4  7 22 47 59.9970000  0  5G18G11G19G 2G 6
  22744943.4394   11888278.76745   9278289.35861
  22669001.0564  -10005732.65746  -7645410.43961
  20571039.384    -3575531.617 6  -2728285.63623
  20337227.3684  -21924452.43047 -16903654.57363
  21911489.1964  -11154594.20046  -8502079.76961
 91  4  7 22 48 14.9970000  0  5G18G11G19G 2G 6
  22753266.954    11932010.682 5   9312365.97421
  22673015.282    -9984633.383 6  -7628969.48021
  20572529.274    -3567704.396 6  -2722186.52323
  20332492.9154  -21949338.71147 -16923046.44663
  21903869.7044  -11194643.20346  -8533286.72261
 91  4  7 22 48 29.9970000  0  5G18G11G19G 2G 6
  22761594.345    11975782.225 5   9346473.47421
  22677051.3374   -9963405.77746  -7612428.52061
  20574032.556    -3559809.496 6  -2716034.67223
  20327771.2984  -21974150.73747 -16942380.45663
  21896250.2904  -11234684.41846  -8564487.59661
 91  4  7 22 48 44.9970000  0  5G18G11G19G 2G 6
  22769932.1344   12019592.64645   9380611.26861
  22681117.517    -9942050.852 6  -7595788.35121
  20575549.446    -3551847.711 6  -2709830.70923
  20323063.1424  -21998889.08747 -16961657.05763
  21888631.579   -11274718.587 6  -8595682.98121
 91  4  7 22 48 59.9970000  0  5G18G11G19G 2G 6
  22778276.509    12063433.667 6   9414772.89421
  22685206.0874   -9920576.62646  -7579055.21861
  20577074.329    -3543826.837 6  -2703580.69323
  20318367.0644  -22023561.71247 -16980882.43863
  21881013.9784  -11314753.41646  -8626878.87961
 91  4  7 22 49 14.9970000  0  5G18G11G19G 2G 6
  22786623.829    12107309.730 5   9448961.83421
  22689312.0484   -9898978.90346  -7562225.86561
  20578612.571    -3535742.070 6  -2697280.89723
  20313686.2354  -22048164.18947 -17000053.16663
  21873392.8684  -11354784.24546  -8658071.66161
 91  4  7 22 49 29.9970000  0  5G18G11G19G 2G 6
  22794981.353    12151225.649 6   9483181.82621
  22693447.5874   -9877252.66646  -7545296.36061
  20580165.056    -3527588.149 6  -2690927.21523
  20309020.6494  -22072691.27348 -17019165.14363
  21865778.4704  -11394805.75646  -8689257.18561
 91  4  7 22 49 44.9970000  0  5G18G11G19G 2G 6
  22803346.618    12195172.335 5   9517425.80421
  22697606.2514   -9855406.89446  -7528273.71861
  20581728.1424   -3519373.70446  -2684526.38063
  20304365.6574  -22097151.83047 -17038225.27863
  21858161.1734  -11434826.68146  -8720442.24761
 91  4  7 22 49 59.9970000  0  5G18G11G19G 2G 6
  22811717.2354   12239155.99646   9551698.58961
  22701789.5404   -9833435.58946  -7511153.25561
  20583302.2904   -3511092.35846  -2678073.40963
  20299721.8374  -22121539.53947 -17057228.64863
  21850548.3294  -11474840.53046  -8751621.80561
 91  4  7 22 50 14.9970000  0  5G18G11G19G 2G 6
  22820091.9234   12283174.33045   9585998.37861
  22705992.7824   -9811340.96646  -7493936.70761
  20584890.165    -3502746.032 6  -2671569.80023
  20295094.7284  -22145856.33747 -17076176.76763
  21842938.3144  -11514849.21646  -8782797.33061
 91  4  7 22 50 29.9970000  0  5G18G11G19G 2G 6
  22828474.962    12327231.902 5   9620328.75321
  22710219.470    -9789118.484 6  -7476620.51821
  20586493.509    -3494329.746 6  -2665011.68023
  20290482.3924  -22170097.76047 -17095066.15263
  21835322.3454  -11554847.87746  -8813965.05061
 91  4  7 22 50 44.9970000  0  5G18G11G19G 2G 6
  22836867.5404   12371321.86145   9654684.35861
  22714470.9544   -9766775.03946  -7459210.08161
  20588104.6964   -3485850.16546  -2658404.24363
  20285882.5954  -22194270.43647 -17113901.96763
  21827710.868   -11594843.148 6  -8845130.12921
 91  4  7 22 50 59.9970000  0  5G18G11G19G 2G 6
  22845263.470    12415444.905 5   9689065.74821
  22718742.4854   -9744309.70346  -7441704.65161
  20589730.3064   -3477305.97746  -2651746.45863
  20281296.0644  -22218373.12647 -17132683.24563
  21820104.298   -11634833.594 6  -8876291.42921
 91  4  7 22 51 14.9970000  0  5G18G11G19G 2G 6
  22853667.9074   12459602.93745   9723474.37961
  22723044.376    -9721720.645 6  -7424102.83521
  20591368.2284   -3468694.92646  -2645036.57963
  20276723.7434  -22242403.63848 -17151408.28563
  21812494.415   -11674817.222 6  -8907447.42721
 91  4  7 22 51 29.9970000  0  5G18G11G19G 2G 6
  22862075.0174   12503792.51745   9757907.60561
  22727365.173    -9699011.375 6  -7406407.34321
  20593020.657    -3460020.130 6  -2638277.02123
  20272162.5244  -22266365.35747 -17170079.71163
  21804882.009   -11714797.086 6  -8938600.49421
 91  4  7 22 51 44.9970000  0  5G18G11G19G 2G 6
  22870492.321    12548017.618 5   9792368.51521
  22731712.829    -9676177.804 6  -7388614.98721
  20594685.3294   -3451277.47546  -2631464.59263
  20267616.8144  -22290254.16447 -17188694.32963
  21797276.4234  -11754768.73146  -8969747.16561
 91  4  7 22 51 59.9970000  0  5G18G11G19G 2G 6
  22878912.5794   12592269.01045   9826849.91061
  22736077.814    -9653229.108 6  -7370732.93221
  20596361.696    -3442475.775 6  -2624606.15123
  20263085.4314  -22314078.90347 -17207259.02563
  21789670.5324  -11794741.17146  -9000894.44561
 91  4  7 22 52 14.9970000  0  5G18G11G19G 2G 6
  22887337.0014   12636553.87945   9861357.37561
  22740466.7044   -9630157.96746  -7352755.46261
  20598049.689    -3433606.983 6  -2617695.42523
  20258563.8604  -22337832.00647 -17225767.89863
  21782069.5094  -11834706.45346  -9032036.15461
 91  4  7 22 52 29.9970000  0  5G18G11G19G 2G 6
  22895772.0014   12680875.69245   9895893.63761
  22744883.4314   -9606961.15946  -7334680.05961
  20599746.3454   -3424667.69446  -2610729.77463
  20254057.392   -22361510.050 7 -17244218.28023
  21774463.290   -11874661.145 6  -9063169.60821
 91  4  7 22 52 44.9970000  0  5G18G11G19G 2G 6
  22904209.8534   12725224.93145   9930451.27061
  22749321.9234   -9583648.14846  -7316514.13361
  20601462.1184   -3415667.03646  -2603716.30363
  20249563.978   -22385122.290 7 -17262617.38023
  21766864.228   -11914614.188 6  -9094301.78221
 91  4  7 22 52 59.9970000  0  5G18G11G19G 2G 6
  22912656.9544   12769604.80645   9965032.78961
  22753778.610    -9560215.696 6  -7298255.12121
  20603186.9624   -3406601.26246  -2596652.09763
  20245082.9074  -22408665.05347 -17280962.35463
  21759260.564   -11954562.037 6  -9125429.89721
 91  4  7 22 53 14.9970000  0  5G18G11G19G 2G 6
  22921108.9624   12814015.54645   9999638.34861
  22758260.181    -9536663.667 6  -7279902.93921
  20604926.5644   -3397470.07346  -2589536.91363
  20240615.821   -22432138.180 7 -17299253.05823
  21751659.3764  -11994504.14346  -9156553.54861
 91  4  7 22 53 29.9970000  0  5G18G11G19G 2G 6
  22929565.6654   12858458.02045  10034268.62461
  22762767.470    -9512991.168 6  -7261456.88521
  20606672.3144   -3388272.21746  -2582369.78863
  20236163.8214  -22455540.52447 -17317488.61463
  21744058.2434  -12034439.54246  -9187671.96761
 91  4  7 22 53 44.9970000  0  5G18G11G19G 2G 6
  22938030.704    12902934.792 5  10068925.64621
  22767294.173    -9489195.315 6  -7242914.70921
  20608437.1964   -3379004.43846  -2575148.16963
  20231725.282   -22478869.115 7 -17335666.69623
  21736461.4784  -12074364.80546  -9218782.49761
 91  4  7 22 53 59.9970000  0  5G18G11G19G 2G 6
  22946501.8064   12947446.62345  10103609.98261
  22771846.3844   -9465275.59846  -7224276.00261
  20610219.579    -3369665.880 6  -2567871.39623
  20227299.6264  -22502123.10547 -17353786.64363
  21728868.017   -12114279.023 6  -9249884.41321
 91  4  7 22 54 14.9970000  0  5G18G11G19G 2G 6
  22954976.2354   12991988.57745  10138317.78361
  22776420.6184   -9441236.76446  -7205544.48461
  20612007.618    -3360261.038 6  -2560542.97523
  20222886.1344  -22525307.10347 -17371852.05563
  21721271.103   -12154186.645 6  -9280981.18821
 91  4  7 22 54 29.9970000  0  5G18G11G19G 2G 6
  22963462.329    13036565.402 5  10173052.74721
  22781016.8534   -9417074.08446  -7186716.45961
  20613809.478    -3350784.609 6  -2553158.76823
  20218490.5874  -22548416.01547 -17389858.96263
  21713679.6424  -12194082.49646  -9312068.80061
 91  4  7 22 54 44.9970000  0  5G18G11G19G 2G 6
  22971952.165    13081170.704 5  10207809.90721
  22785640.720    -9392794.167 6  -7167797.08921
  20615623.7044   -3341242.87746  -2545723.68163
  20214107.5324  -22571456.14547 -17407812.27063
  21706091.392   -12233972.798 6  -9343152.07821
 91  4  7 22 54 59.9970000  0  5G18G11G19G 2G 6
  22980440.0874   13125797.63245  10242583.91461
  22790282.915    -9368403.960 6  -7148791.78721
  20617451.2674   -3331642.37046  -2538242.79763
  20209731.8844  -22594434.34747 -17425717.31963
  21698494.985   -12273864.051 6  -9374236.09621
 91  4  7 22 55 14.9970000  0  5G18G11G19G 2G 6
  22988939.7124   13170458.35545  10277384.26061
  22794946.8604   -9343891.37446  -7129691.11661
  20619293.626    -3321970.548 6  -2530706.34023
  20205373.9784  -22617338.20847 -17443564.44764
  21690908.8604  -12313743.84446  -9405311.19061
 91  4  7 22 55 29.9970000  0  5G18G11G19G 2G 6
  22997444.149    13215156.652 5  10312213.90121
  22799633.040    -9319252.480 6  -7110492.03021
  20621144.665    -3312223.250 6  -2523111.06623
  20201031.9234  -22640163.53447 -17461350.38063
  21683321.8764  -12353607.77946  -9436373.93161
 91  4  7 22 55 44.9970000  0  5G18G11G19G 2G 6
  23005952.931    13259870.191 5  10347055.40121
  22804340.868    -9294509.563 6  -7091211.88721
  20623012.814    -3302422.368 6  -2515474.04123
  20196697.298   -22662932.259 7 -17479092.20123
  21675734.290   -12393477.867 6  -9467441.46421
 91  4  7 22 55 59.9970000  0  5G18G11G19G 2G 6
  23014471.946    13304619.148 5  10381924.49121
  22809073.892    -9269642.232 6  -7071834.79421
  20624893.220    -3292547.225 6  -2507779.14723
  20192378.8064  -22685623.99447 -17496774.03164
  21668149.978   -12433333.375 6  -9498497.62221
 91  4  7 22 56 14.9970000  0  5G18G11G19G 2G 6
  23022990.7044   13349394.10245  10416813.85361
  22813826.907    -9244660.368 6  -7052368.44921
  20626781.431    -3282607.268 6  -2500033.75023
  20188074.8214  -22708248.28547 -17514403.30864
  21660568.2674  -12473183.75746  -9529549.79361
 91  4  7 22 56 29.9970000  0  5G18G11G19G 2G 6
  23031520.228    13394200.049 5  10451727.35721
  22818603.2674   -9219558.70046  -7032808.74661
  20628688.345    -3272596.914 6  -2492233.49923
  20183784.6654  -22730799.97747 -17531976.02064
  21652989.634   -12513023.416 6  -9560593.60821
 91  4  7 22 56 44.9970000  0  5G18G11G19G 2G 6
  23040047.0714   13439023.65945  10486654.62961
  22823401.821    -9194350.364 6  -7013165.93121
  20630604.228    -3262529.002 6  -2484388.39823
  20179502.6264  -22753291.63847 -17549501.95764
  21645405.876   -12552865.032 6  -9591638.95721
 91  4  7 22 56 59.9970000  0  5G18G11G19G 2G 6
  23048580.6734   13483875.63745  10521603.99761
  22828221.0484   -9169024.89046  -6993431.83961
  20632529.728    -3252392.482 6  -2476489.82823
  20175235.3294  -22775712.53147 -17566972.74964
  21637827.4394  -12592697.69246  -9622677.31861
 91  4  7 22 57 14.9970000  0  5G18G11G19G 2G 6
  23057123.196    13528753.935 5  10556573.86421
  22833062.446    -9143584.043 6  -6973607.85421
  20634475.899    -3242188.984 6  -2468539.07123
  20170980.6734  -22798064.48447 -17584389.81864
  21630247.7044  -12632522.90546  -9653709.88061
 91  4  7 22 57 29.9970000  0  5G18G11G19G 2G 6
  23065666.7984   13573652.98345  10591559.93161
  22837926.8924   -9118033.59546  -6953698.47461
  20636426.095    -3231923.876 6  -2460540.30823
  20166741.4624  -22820352.83047 -17601757.32464
  21622666.6574  -12672345.93146  -9684740.74161
 91  4  7 22 57 44.9970000  0  5G18G11G19G 2G 6
  23074214.9784   13618572.48145  10626561.92361
  22842805.5484   -9092374.24146  -6933704.23161
  20638394.212    -3221597.357 6  -2452493.69023
  20162512.0014  -22842577.96347 -17619075.57763
  21615093.204   -12712167.123 6  -9715770.16521
 91  4  7 22 57 59.9970000  0  5G18G11G19G 2G 6
  23082766.149    13663514.017 5  10661581.07921
  22847709.595    -9066604.140 6  -6913623.68121
  20640371.353    -3211207.254 6  -2444397.52323
  20158294.7744  -22864737.88847 -17636343.01464
  21607514.9314  -12751984.25446  -9746796.43061
 91  4  7 22 58 14.9970000  0  5G18G11G19G 2G 6
  23091324.392    13708484.015 5  10696622.41221
  22852636.032    -9040716.962 6  -6893451.90321
  20642360.587    -3200746.970 6  -2436246.67923
  20154091.5244  -22886826.18047 -17653554.63764
  21599939.876   -12791790.654 6  -9777814.32721
 91  4  7 22 58 29.9970000  0  5G18G11G19G 2G 6
  23099888.173    13753476.857 5  10731681.54321
  22857583.9074   -9014718.37146  -6873193.29561
  20644361.454    -3190221.785 6  -2428045.25723
  20149901.1494  -22908848.14247 -17670714.57164
  21592367.806   -12831591.511 6  -9808827.90721
 91  4  7 22 58 44.9970000  0  5G18G11G19G 2G 6
  23108453.1424   13798488.56645  10766755.35961
  22862549.0874   -8988612.07646  -6852850.76861
  20646378.806    -3179634.893 6  -2419795.74823
  20145721.7514  -22930807.15647 -17687825.45364
  21584789.735   -12871390.130 6  -9839839.74421
 91  4  7 22 58 59.9970000  0  5G18G11G19G 2G 6
  23117025.376    13843529.733 5  10801852.13621
  22867540.8064   -8962387.58546  -6832416.13961
  20648404.126    -3168975.461 6  -2411489.71223
  20141559.1184  -22952692.50347 -17704878.93464
  21577218.4934  -12911175.63946  -9870841.36261
 91  4  7 22 59 14.9970000  0  5G18G11G19G 2G 6
  23125600.6814   13888596.12645  10836968.57861
  22872554.610    -8936049.134 6  -6811892.71521
  20650449.907    -3158247.365 6  -2403130.17723
  20137408.7354  -22974508.27447 -17721878.20464
  21569651.259   -12950951.878 6  -9901835.75821
 91  4  7 22 59 29.9970000  0  5G18G11G19G 2G 6
  23134178.853    13933684.722 5  10872102.31521
  22877588.298    -8909599.702 6  -6791282.82421
  20652501.446    -3147453.151 6  -2394719.11723
  20133269.4624  -22996257.14247 -17738825.33664
  21562082.524   -12990721.359 6  -9932824.88721
 91  4  7 22 59 44.9970000  0  5G18G11G19G 2G 6
  23142764.2354   13978798.49445  10907255.67361
  22882642.212    -8883036.565 6  -6770584.32021
  20654571.860    -3136589.861 6  -2386254.23923
  20129140.0794  -23017936.16647 -17755718.04663
  21554516.954   -13030481.131 6  -9963806.44921
 91  4  7 22 59 59.9970000  0  5G18G11G19G 2G 6
  23151351.9314   14023931.43645  10942423.96061
  22887719.899    -8856365.661 6  -6749801.85021
  20656649.329    -3125662.974 6  -2377739.80923
  20125029.6574  -23039551.00847 -17772560.74763
  21546953.829   -13070236.480 6  -9994784.57221
 91  4  7 23  0 14.9970000  0  5G18G11G19G 2G 6
  23159945.610    14069083.415 5  10977607.08221
  22892814.821    -8829587.143 6  -6728935.52621
  20658739.103    -3114672.419 6  -2369175.76423
  20120929.3144  -23061101.67947 -17789353.44363
  21539388.5094  -13109987.26946 -10025759.14661
 91  4  7 23  0 29.9970000  0  5G18G11G19G 2G 6
  23168543.282    14114256.367 5  11012806.54821
  22897932.298    -8802698.955 6  -6707983.73421
  20660844.103    -3103615.601 6  -2360560.08323
  20116840.4074  -23082585.86547 -17806094.34163
  21531824.673   -13149731.078 6 -10056728.27221
 91  4  7 23  0 44.9960000  0  5G18G11G19G 2G 6
  23177142.1064   14159457.11445  11048027.66461
  22903069.856    -8775693.127 6  -6686940.27821
  20662962.902    -3092483.300 6  -2351885.58523
  20112767.2704  -23103992.07447 -17822774.47463
  21524265.6914  -13189455.13646 -10087682.01061
 91  4  7 23  0 59.9960000  0  5G18G11G19G 2G 6
  23185751.5824   14204682.94445  11083268.33261
  22908228.2854   -8748574.98146  -6665809.29261
  20665095.848    -3081282.425 6  -2343157.65723
  20108706.3564  -23125331.85947 -17839402.84663
  21516707.652   -13229173.103 6 -10118631.00021
 91  4  7 23  1 14.9960000  0  5G18G11G19G 2G 6
  23194360.5824   14249930.04245  11118525.57461
  22913411.504    -8721346.871 6  -6644592.63621
  20667239.262    -3070014.039 6  -2334377.12223
  20104657.5664  -23146604.01647 -17855978.52863
  21509152.770   -13268882.543 6 -10149573.34421
 91  4  7 23  1 29.9960000  0  5G18G11G19G 2G 6
  23202975.5984   14295200.04045  11153800.66961
  22918608.9814   -8694007.42546  -6623289.20161
  20669396.9884   -3058676.36946  -2325542.60563
  20100621.3014  -23167807.05247 -17872500.34263
  21501594.684   -13308581.644 6 -10180507.63021
 91  4  7 23  1 44.9960000  0  5G18G11G19G 2G 6
  23211595.895    14340488.508 5  11189090.15121
  22923838.2934   -8666561.14446  -6601902.53561
  20671567.5904   -3047273.44646  -2316657.24363
  20096598.7624  -23188945.18947 -17888971.58863
  21494044.160   -13348274.520 6 -10211437.07321
 91  4  7 23  1 59.9960000  0  5G18G11G19G 2G 6
  23220215.020    14385793.550 5  11224392.53221
  22929080.0124   -8639009.73446  -6580433.93761
  20673747.4814   -3035806.62046  -2307722.08263
  20092590.8404  -23210020.00748 -17905393.49663
  21486490.1994  -13387962.51346 -10242362.70561
 91  4  7 23  2 14.9960000  0  5G18G11G19G 2G 6
  23228843.6454   14431126.27145  11259716.49761
  22934348.9884   -8611342.16446  -6558874.84661
  20675942.4414   -3024264.41346  -2298728.18963
  20088594.0434  -23231020.15547 -17921757.21563
  21478942.395   -13427634.073 6 -10273275.53821
 91  4  7 23  2 29.9960000  0  5G18G11G19G 2G 6
  23237471.895    14476478.654 5  11295055.77121
  22939631.8564   -8583566.38146  -6537231.41261
  20678154.6134   -3012654.42746  -2289681.47763
  20084612.0124  -23251953.28847 -17938068.72063
  21471392.8714  -13467296.67546 -10304181.40161
 91  4  7 23  2 44.9960000  0  5G18G11G19G 2G 6
  23246110.207    14521855.561 5  11330414.18021
  22944935.621    -8555677.635 6  -6515499.97021
  20680377.0514   -3000971.78446  -2280578.15363
  20080641.309   -23272814.404 7 -17954324.11223
  21463847.348   -13506945.263 6 -10335076.32821
 91  4  7 23  2 59.9960000  0  5G18G11G19G 2G 6
  23254746.3324   14567250.62545  11365786.74261
  22950264.777    -8527682.368 6  -6493685.53121
  20682612.4184   -2989222.43946  -2271422.85063
  20076683.6764  -23293609.80847 -17970528.29663
  21456303.0824  -13546585.86846 -10365965.04061
 91  4  7 23  3 14.9960000  0  5G18G11G19G 2G 6
  23263388.004    14612663.963 5  11401173.51521
  22955618.4734   -8499580.51846  -6471788.04761
  20684859.8014   -2977405.92246  -2262215.20963
  20072737.8404  -23314339.09547 -17986680.95263
  21448761.4574  -13586217.99146 -10396847.15261
 91  4  7 23  3 29.9960000  0  5G18G11G19G 2G 6
  23272031.496    14658096.171 5  11436575.01521
  22960979.7314   -8471371.42846  -6449806.97461
  20687118.926    -2965521.088 6  -2252954.34123
  20068807.1454  -23335001.23648 -18002781.29563
  21441219.645   -13625840.598 6 -10427721.83621
 91  4  7 23  3 44.9960000  0  5G18G11G19G 2G 6
  23280681.785    14703539.440 5  11471985.10921
  22966366.457    -8443062.824 6  -6427748.38121
  20689397.3094   -2953575.23146  -2243645.91763
  20064887.4494  -23355603.81148 -18018835.22363
  21433685.0354  -13665460.76246 -10458594.62061
 91  4  7 23  3 59.9960000  0  5G18G11G19G 2G 6
  23289332.0664   14749003.43445  11507411.36361
  22971776.926    -8414645.423 6  -6405604.99621
  20691682.0204   -2941558.80946  -2234282.50963
  20060979.4964  -23376137.40847 -18034835.39663
  21426145.9964  -13705068.89746 -10489458.03761
 91  4  7 23  4 14.9960000  0  5G18G11G19G 2G 6
  23297984.4264   14794485.78545  11542851.91061
  22977205.121    -8386121.355 6  -6383378.48621
  20693982.6914   -2929473.64146  -2224865.52763
  20057086.3484  -23396603.85448 -18050783.24563
  21418613.4884  -13744666.67246 -10520313.38161
 91  4  7 23  4 29.9960000  0  5G18G11G19G 2G 6
  23306645.715    14839986.468 5  11578306.75421
  22982650.895    -8357490.517 6  -6361068.78421
  20696294.9344   -2917319.28746  -2215394.63462
  20053203.160   -23417002.906 8 -18066678.58523
  21411077.9344  -13784253.75146 -10551160.38861
 91  4  7 23  4 44.9960000  0  5G18G11G19G 2G 6
  23315307.6214   14885501.10545  11613772.46961
  22988116.1524   -8328757.52346  -6338679.47861
  20698620.6764   -2905099.78746  -2205872.98463
  20049334.1524  -23437338.78548 -18082524.69864
  21403546.9494  -13823834.25046 -10582002.27061
 91  4  7 23  4 59.9960000  0  5G18G11G19G 2G 6
  23323970.387    14931036.688 5  11649254.50121
  22993606.684    -8299915.652 6  -6316205.35221
  20700957.6294   -2892808.22746  -2196295.17862
  20045477.1374  -23457604.50347 -18098316.13463
  21396017.6524  -13863400.84746 -10612833.31761
 91  4  7 23  5 14.9960000  0  5G18G11G19G 2G 6
  23332642.238    14976591.938 4  11684751.85821
  22999113.090    -8270965.771 6  -6293647.05221
  20703314.0274   -2880445.00746  -2186661.53862
  20041633.1374  -23477800.77447 -18114053.46163
  21388492.9964  -13902954.07746 -10643653.95061
 91  4  7 23  5 29.9960000  0  5G18G11G19G 2G 6
  23341314.5204   15022160.70145  11720259.74061
  23004644.7234   -8241914.38646  -6271009.64461
  20705677.2314   -2868016.19246  -2176976.77962
  20037802.6604  -23497933.84147 -18129741.53863
  21380962.410   -13942499.910 6 -10674468.83121
 91  4  7 23  5 44.9960000  0  5G18G11G19G 2G 6
  23349986.8324   15067743.37845  11755778.45861
  23010194.9264   -8212761.16646  -6248292.90861
  20708052.5904   -2855520.93646  -2167240.25862
  20033985.527   -23518002.947 8 -18145379.77523
  21373442.3164  -13982037.71146 -10705277.44361
 91  4  7 23  5 59.9960000  0  5G18G11G19G 2G 6
  23358665.9344   15113348.51445  11791314.69861
  23015762.473    -8183497.362 6  -6225489.99921
  20710447.4344   -2842950.40346  -2157445.07662
  20030177.8874  -23537999.35647 -18160961.36863
  21365922.418   -14021558.219 6 -10736072.57621
 91  4  7 23  6 14.9960000  0  5G18G11G19G 2G 6
  23367348.465    15158970.751 5  11826864.25921
  23021351.801    -8154128.642 6  -6202605.33621
  20712854.1764   -2830309.81346  -2147595.30462
  20026385.7074  -23557928.32147 -18176490.40164
  21358403.8954  -14061066.67946 -10766858.32461
 91  4  7 23  6 29.9960000  0  5G18G11G19G 2G 6
  23376035.1684   15204614.61445  11862430.65261
  23026959.5274   -8124650.15346  -6179635.14661
  20715277.5664   -2817594.03446  -2137686.94762
  20022606.9884  -23577784.80247 -18191962.95164
  21350884.5904  -14100557.94046 -10797630.68061
 91  4  7 23  6 44.9960000  0  5G18G11G19G 2G 6
  23384726.106    15250276.100 5  11898010.79021
  23032589.5274   -8095066.15646  -6156582.73561
  20717705.7154   -2804806.91246  -2127722.99062
  20018840.7074  -23597572.78247 -18207382.12764
  21343375.0124  -14140035.63046 -10828392.45162
 91  4  7 23  6 59.9960000  0  4G11G19G 2G 6
  23038238.2704   -8065379.50845  -6133450.34261
  20720149.7074   -2791950.95946  -2117705.39862
  20015087.0434  -23617294.87547 -18222749.96464
  21335867.0594  -14179502.26646 -10859145.60962
 91  4  7 23  7 14.9960000  0  4G11G19G 2G 6
  23043905.1134   -8035581.51845  -6110231.15261
  20722613.4884   -2779016.99646  -2107627.02562
  20011349.8874  -23636942.13048 -18238059.48164
  21328354.8484  -14218948.64646 -10889882.99262
 91  4  7 23  7 29.9960000  0  4G11G19G 2G 6
  23049598.238    -8005683.391 6  -6086933.97121
  20725087.168    -2766015.648 6  -2097496.14322
  20007624.4964  -23656525.34547 -18253319.10164
  21320855.2854  -14258385.45946 -10920612.91662
 91  4  7 23  7 44.9960000  0  4G11G19G 2G 6
  23055304.1914   -7975681.81646  -6063556.15661
  20727576.1294   -2752943.33646  -2087309.97162
  20003909.5824  -23676041.06148 -18268526.11664
  21313351.754   -14297809.019 6 -10951332.51722
 91  4  7 23  7 59.9960000  0  4G11G19G 2G 6
  23061041.574    -7945569.162 6  -6040091.82821
  20730074.9964   -2739792.18046  -2077062.35262
  20000209.2624  -23695481.46047 -18283674.45563
  21305852.4734  -14337211.30846 -10982035.52762
 91  4  7 23  8 14.9960000  0  4G11G19G 2G 6
  23066788.145    -7915351.182 6  -6016545.39121
  20732592.840    -2726567.466 6  -2066757.42523
  19996522.5274  -23714851.91348 -18298768.28864
  21298359.6524  -14376597.57246 -11012726.06062
 91  4  7 23  8 29.9960000  0  4G11G19G 2G 6
  23072557.9184   -7885037.17046  -5992924.14561
  20735123.004    -2713278.169 6  -2056402.17123
  19992848.9344  -23734161.47148 -18313814.66763
  21290862.5744  -14415976.61946 -11043410.97562
 91  4  7 23  8 44.9960000  0  4G11G19G 2G 6
  23078345.363    -7854618.197 6  -5969221.10021
  20737664.856    -2699915.055 6  -2045989.39823
  19989188.8484  -23753400.98048 -18328806.46264
  21283374.6994  -14455339.16846 -11074083.01962
 91  4  7 23  8 59.9960000  0  4G11G19G 2G 6
  23084157.395    -7824090.743 6  -5945433.52221
  20740226.0124   -2686474.11446  -2035515.97862
  19985539.8874  -23772566.77347 -18343740.81264
  21275886.9264  -14494681.12346 -11104739.02862
 91  4  7 23  9 14.9960000  0  4G11G19G 2G 6
  23089981.9654   -7793462.17046  -5921567.13661
  20742794.129    -2672962.268 6  -2024987.31422
  19981905.8794  -23791665.85647 -18358623.18464
  21268405.9654  -14534009.39146 -11135384.37562
 91  4  7 23  9 29.9960000  0  4G11G19G 2G 6
  23095831.816    -7762731.359 6  -5897621.09921
  20745378.699    -2659378.136 6  -2014402.32222
  19978285.9024  -23810696.98348 -18373452.60164
  21260923.191   -14573322.577 6 -11166017.96822
 91  4  7 23  9 44.9960000  0  4G11G19G 2G 6
  23101703.3484   -7731897.89846  -5873595.08161
  20747981.793    -2645720.753 6  -2003760.24722
  19974675.0984  -23829659.42447 -18388228.49764
  21253446.1844  -14612619.62946 -11196638.98461
 91  4  7 23  9 59.9960000  0  4G11G19G 2G 6
  23107584.0434   -7700966.70846  -5849492.90561
  20750589.066    -2631994.724 6  -1993064.68922
  19971079.4344  -23848557.80847 -18402954.47864
  21245967.9414  -14651905.01546 -11227250.90762
 91  4  7 23 10 14.9960000  0  4G11G19G 2G 6
  23113490.5044   -7669933.09346  -5825310.93661
  20753219.559    -2618194.982 6  -1982311.68422
  19967498.2234  -23867387.02647 -18417626.56764
  21238497.2544  -14691173.51046 -11257849.67462
 91  4  7 23 10 29.9960000  0  4G11G19G 2G 6
  23119413.934    -7638799.306 6  -5801050.89421
  20755860.3874   -2604323.35246  -1971502.66162
  19963925.5354  -23886149.07347 -18432246.31564
  21231027.4964  -14730427.00446 -11288436.75062
 91  4  7 23 10 44.9960000  0  4G11G19G 2G 6
  23125357.012    -7607563.126 6  -5776711.06921
  20758510.5514   -2590377.33646  -1960635.66962
  19960370.3324  -23904841.80748 -18446812.04864
  21223559.4654  -14769662.94546 -11319010.15162
 91  4  7 23 10 59.9960000  0  4G11G19G 2G 6
  23131323.590    -7576223.557 6  -5752290.68021
  20761178.2154   -2576355.60846  -1949709.69062
  19956826.6064  -23923463.93848 -18461322.77264
  21216094.9814  -14808879.87146 -11349568.72962
 91  4  7 23 11 14.9960000  0  4G11G19G 2G 6
  23137306.574    -7544785.317 6  -5727793.40821
  20763863.027    -2562262.336 6  -1938727.96222
  19953294.6454  -23942019.72148 -18475781.79564
  21208635.5984  -14848081.80446 -11380115.62462
 91  4  7 23 11 29.9960000  0  4G11G19G 2G 6
  23143307.0354   -7513251.85746  -5703221.93761
  20766555.6684   -2548100.61646  -1927692.89462
  19949774.2774  -23960512.42447 -18490191.66264
  21201179.2464  -14887271.84246 -11410653.25062
 91  4  7 23 11 44.9960000  0  4G11G19G 2G 6
  23149328.3794   -7481619.68146  -5678573.54161
  20769266.012    -2533866.543 6  -1916601.45423
  19946270.1374  -23978938.17448 -18504549.36264
  21193724.598   -14926445.977 6 -11441178.49422
 91  4  7 23 11 59.9960000  0  4G11G19G 2G 6
  23155364.512    -7449884.310 6  -5653844.73821
  20771990.785    -2519555.563 6  -1905450.08722
  19942776.652   -23997292.248 8 -18518851.21024
  21186275.9964  -14965599.35846 -11471687.56262
 91  4  7 23 12 14.9960000  0  4G11G19G 2G 6
  23161421.2314   -7418051.96646  -5629040.36961
  20774724.3714   -2505173.17746  -1894243.07062
  19939295.871   -24015580.522 8 -18533101.78924
  21178826.7384  -15004737.66046 -11502184.88162
 91  4  7 23 12 29.9960000  0  4G11G19G 2G 6
  23167501.7934   -7386117.03446  -5604156.09261
  20777475.0204   -2490713.36346  -1882975.72362
  19935829.4814  -24033797.27448 -18547296.63464
  21171383.6994  -15043854.85746 -11532665.75362
 91  4  7 23 12 44.9960000  0  4G11G19G 2G 6
  23173591.145    -7354082.445 5  -5579194.11621
  20780241.7934   -2476178.83246  -1871650.15762
  19932376.441   -24051945.093 8 -18561437.76724
  21163941.0664  -15082953.25646 -11563131.97962
 91  4  7 23 12 59.9960000  0  4G11G19G 2G 6
  23179708.965    -7321951.376 5  -5554157.00421
  20783022.988    -2461572.465 6  -1860268.61522
  19928936.668   -24070027.000 8 -18575527.54024
  21156506.3874  -15122035.73046 -11593585.79662
 91  4  7 23 13 14.9960000  0  4G11G19G 2G 6
  23185841.707    -7289719.504 5  -5529041.29921
  20785816.332    -2446889.537 6  -1848827.41223
  19925508.520   -24088038.426 8 -18589562.39124
  21149075.1524  -15161097.47246 -11624023.45262
 91  4  7 23 13 29.9960000  0  4G11G19G 2G 6
  23191995.2154   -7257389.19446  -5503848.93661
  20788621.9344   -2432131.86346  -1837327.96462
  19922093.043   -24105981.352 8 -18603543.87024
  21141642.4884  -15200140.24546 -11654446.32862
 91  4  7 23 13 44.9960000  0  4G11G19G 2G 6
  23198167.1064   -7224960.81445  -5478580.10761
  20791446.4964   -2417299.47146  -1825770.29662
  19918693.121   -24123855.832 8 -18617472.01624
  21134216.5044  -15239163.97046 -11684854.37162
 91  4  7 23 13 59.9960000  0  4G11G19G 2G 6
  23204361.7314   -7192430.52846  -5453231.87561
  20794287.020    -2402388.266 6  -1814151.22122
  19915303.488   -24141657.963 7 -18631343.77924
  21126795.6844  -15278164.47146 -11715244.29962
 91  4  7 23 14 14.9960000  0  4G11G19G 2G 6
  23210562.598    -7159812.170 5  -5427815.05021
  20797136.0904   -2387411.73446  -1802481.23262
  19911928.121   -24159401.409 8 -18645169.82124
  21119373.504   -15317155.064 6 -11745626.52722
 91  4  7 23 14 29.9960000  0  4G11G19G 2G 6
  23216786.973    -7127104.069 5  -5402328.24821
  20799999.4494   -2372367.59046  -1790758.56162
  19908562.027   -24177084.070 8 -18658948.49924
  21111957.9964  -15356133.65246 -11775999.38162
 91  4  7 23 14 44.9960000  0  4G11G19G 2G 6
  23223029.035    -7094299.420 5  -5376766.28021
  20802875.7544   -2357248.81846  -1778977.74062
  19905210.996   -24194698.866 8 -18672674.29524
  21104541.762   -15395092.836 6 -11806357.14022
 91  4  7 23 14 59.9960000  0  4G11G19G 2G 6
  23229292.762    -7061400.409 5  -5351130.72421
  20805764.3244   -2342057.18046  -1767140.13162
  19901869.121   -24212247.657 8 -18686348.65624
  21097132.934   -15434034.341 6 -11836701.11722
 91  4  7 23 15 14.9960000  0  4G11G19G 2G 6
  23235565.2314   -7028411.14445  -5325424.90061
  20808670.2934   -2326796.49246  -1755248.72262
  19898543.402   -24229734.458 8 -18699974.71524
  21089725.316   -15472961.759 6 -11867034.11222
 91  4  7 23 15 29.9960000  0  4G11G19G 2G 6
  23241862.9734   -6995329.30346  -5299646.89461
  20811584.5594   -2311463.82946  -1743301.23362
  19895229.324   -24247156.529 8 -18713550.33524
  21082320.0514  -15511872.21446 -11897353.88762
 91  4  7 23 15 44.9960000  0  4G11G19G 2G 6
  23248180.5664   -6962154.12546  -5273796.13061
  20814520.0124   -2296058.20646  -1731296.89062
  19891923.379   -24264513.060 8 -18727074.88324
  21074919.0044  -15550764.71346 -11927659.67162
 91  4  7 23 15 59.9960000  0  4G11G19G 2G 6
  23254508.832    -6928881.164 6  -5247869.23521
  20817460.7854   -2280574.66746  -1719231.83962
  19888635.160   -24281799.028 8 -18740544.45224
  21067524.7544  -15589634.04446 -11957947.40462
 91  4  7 23 16 14.9960000  0  4G11G19G 2G 6
  23260857.9024   -6895519.84546  -5221873.42461
  20820422.7624   -2265022.27646  -1707113.13162
  19885359.262   -24299023.841 8 -18753966.36724
  21060130.6604  -15628489.38246 -11988224.21962
 91  4  7 23 16 29.9960000  0  4G11G19G 2G 6
  23267220.762    -6862066.334 5  -5195805.82021
  20823395.9264   -2249396.91146  -1694937.56062
  19882093.449   -24316183.233 8 -18767337.30424
  21052737.9184  -15667326.30046 -12018486.69562
 91  4  7 23 16 44.9960000  0  4G11G19G 2G 6
  23273606.285    -6828517.951 6  -5169664.30221
  20826384.8954   -2233695.39546  -1682702.65562
  19878841.082   -24333274.093 8 -18780654.84024
  21045350.5044  -15706141.48046 -12048732.22562
 91  4  7 23 16 59.9960000  0  4G11G19G 2G 6
  23280011.410    -6794877.767 6  -5143451.20521
  20829387.7384   -2217920.58846  -1670410.63162
  19875602.816   -24350299.512 8 -18793921.37424
  21037966.293   -15744937.826 6 -12078963.08722
 91  4  7 23 17 14.9960000  0  4G11G19G 2G 6
  23286428.9734   -6761156.70446  -5117175.13861
  20832399.207    -2202082.969 6  -1658069.67522
  19872372.996   -24367270.272 8 -18807145.33124
  21030586.3564  -15783725.50846 -12109187.19062
 91  4  7 23 17 29.9960000  0  4G11G19G 2G 6
  23292859.988    -6727347.024 5  -5090829.96421
  20835426.9494   -2186174.28446  -1645673.33662
  19869155.707   -24384178.095 8 -18820320.23824
  21023212.7934  -15822496.41246 -12139398.22962
 91  4  7 23 17 44.9960000  0  4G11G19G 2G 6
  23299311.512    -6693444.687 5  -5064412.63621
  20838469.652    -2170190.136 6  -1633218.20422
  19865950.598   -24401018.613 8 -18833442.70924
  21015836.5594  -15861245.95446 -12169592.61562
 91  4  7 23 17 59.9960000  0  4G11G19G 2G 6
  23305780.566    -6659453.018 5  -5037925.66921
  20841524.7154   -2154133.65446  -1620706.69362
  19862757.473   -24417795.063 8 -18846515.23724
  21008469.0044  -15899976.91446 -12199772.52162
 91  4  7 23 18 14.9960000  0  4G11G19G 2G 6
  23312267.004    -6625374.063 5  -5011370.69821
  20844594.0514   -2138006.51046  -1608140.12862
  19859574.684   -24434509.354 8 -18859539.34324
  21001099.7544  -15938690.83346 -12229939.14762
 91  4  7 23 18 29.9960000  0  4G11G19G 2G 6
  23318765.4884   -6591206.76645  -4984746.90161
  20847678.793    -2121807.413 6  -1595517.50622
  19856408.012   -24451160.070 8 -18872513.90324
  20993737.816   -15977386.424 6 -12260091.50322
 91  4  7 23 18 44.9960000  0  4G11G19G 2G 6
  23325285.395    -6556946.657 5  -4958050.76621
  20850774.637    -2105531.238 6  -1582834.81322
  19853253.262   -24467742.203 8 -18885435.02324
  20986377.9184  -16016058.46246 -12290225.49462
 91  4  7 23 18 59.9960000  0  4G11G19G 2G 6
  23331819.691    -6522597.377 5  -4931285.14821
  20853889.879    -2089181.232 6  -1570094.59222
  19850109.988   -24484259.278 8 -18898305.44824
  20979021.3874  -16054710.19046 -12320343.65862
 91  4  7 23 19 14.9960000  0  4G11G19G 2G 6
  23338376.129    -6488160.395 5  -4904451.20521
  20857011.6684   -2072758.46846  -1557297.66862
  19846975.941   -24500712.550 8 -18911126.15724
  20971670.223   -16093342.572 6 -12350446.76222
 91  4  7 23 19 29.9960000  0  4G11G19G 2G 6
  23344941.0274   -6453633.27845  -4877547.01961
  20860150.074    -2056260.081 6  -1544441.82422
  19843861.762   -24517099.399 8 -18923895.11124
  20964320.410   -16131952.619 6 -12380532.45022
 91  4  7 23 19 44.9960000  0  4G11G19G 2G 6
  23351535.0274   -6419022.71645  -4850577.82561
  20863302.231    -2039692.432 6  -1531532.00222
  19840752.426   -24533426.050 8 -18936617.15324
  20956980.551   -16170546.445 7 -12410605.50622
 91  4  7 23 19 59.9960000  0  4G11G19G 2G 6
  23358133.4734   -6384325.80645  -4823541.31861
  20866471.879    -2023052.304 6  -1518565.71022
  19837661.113   -24549689.514 8 -18949289.96024
  20949636.543   -16209120.783 6 -12440663.37322
 91  4  7 23 20 14.9960000  0  4G11G19G 2G 6
  23364749.793    -6349538.981 5  -4796434.78421
  20869653.035    -2006335.801 6  -1505539.91022
  19834575.207   -24565885.733 8 -18961910.36824
  20942301.902   -16247671.466 6 -12470702.81222
 91  4  7 23 20 29.9960000  0  4G11G19G 2G 6
  23371384.629    -6314672.128 5  -4769265.86321
  20872841.871    -1989552.406 6  -1492461.98422
  19831506.004   -24582024.569 8 -18974486.06224
  20934970.1134  -16286207.93146 -12500731.16362
 91  4  7 23 20 44.9960000  0  4G11G19G 2G 6
  23378039.8094   -6279718.05845  -4742028.96861
  20876053.0124   -1972694.30646  -1479325.83762
  19828446.543   -24598098.112 8 -18987010.87824
  20927639.3634  -16324722.39446 -12530742.37662
 91  4  7 23 20 59.9960000  0  4G11G19G 2G 6
  23384707.746    -6244680.058 5  -4714726.70621
  20879275.9344   -1955764.57646  -1466133.87762
  19825399.387   -24614109.652 8 -18999487.37824
  20920314.691   -16363217.582 6 -12560738.56922
 91  4  7 23 21 14.9960000  0  4G11G19G 2G 6
  23391394.871    -6209559.913 5  -4687360.41021
  20882509.004    -1938764.657 6  -1452887.23622
  19822363.918   -24630060.745 8 -19011916.77724
  20912995.2854  -16401694.95647 -12590720.87962
 91  4  7 23 21 29.9960000  0  3G19G 2G 6
  20885760.160    -1921691.797 6  -1439583.76022
  19819340.793   -24645948.728 8 -19024297.00524
  20905673.879   -16440151.510 6 -12620686.97322
 91  4  7 23 21 44.9960000  0  3G19G 2G 6
  20889022.270    -1904547.097 6  -1426224.30522
  19816331.098   -24661774.823 8 -19036629.00624
  20898358.527   -16478588.232 6 -12650637.60622
 91  4  7 23 21 59.9960000  0  3G19G 2G 6
  20892296.184    -1887328.823 6  -1412807.51722
  19813330.043   -24677537.314 8 -19048911.44124
  20891052.816   -16517003.353 7 -12680571.40922
 91  4  7 23 22 14.9960000  0  3G19G 2G 6
  20895589.270    -1870033.097 6  -1399330.38422
  19810343.012   -24693232.421 8 -19061141.37524
  20883747.4814  -16555392.66047 -12710485.10262
 91  4  7 23 22 29.9960000  0  3G19G 2G 6
  20898890.160    -1852672.947 6  -1385803.04522
  19807367.543   -24708873.591 8 -19073329.27824
  20876440.020   -16593769.332 7 -12740388.94622
 91  4  7 23 22 44.9960000  0  3G19G 2G 6
  20902209.395    -1835243.106 6  -1372221.39622
  19804404.207   -24724455.425 8 -19085470.94524
  20869142.785   -16632127.766 6 -12770278.58222
 91  4  7 23 22 59.9960000  0  3G19G 2G 6
  20905540.699    -1817737.196 6  -1358580.47622
  19801448.402   -24739971.673 8 -19097561.51024
  20861846.293   -16670461.518 6 -12800148.98622
 91  4  7 23 23 14.9960000  0  3G19G 2G 6
  20908889.824    -1800160.527 6  -1344884.42122
  19798507.285   -24755427.874 8 -19109605.28024
  20854556.4734  -16708775.78346 -12830004.20262
 91  4  7 23 23 29.9960000  0  3G19G 2G 6
  20912243.020    -1782509.882 6  -1331130.72622
  19795577.527   -24770820.704 8 -19121599.67124
  20847268.8404  -16747067.02446 -12859841.46962
 91  4  7 23 23 44.9960000  0  3G19G 2G 6
  20915619.934    -1764788.616 6  -1317321.99422
  19792659.996   -24786153.550 8 -19133547.32424
  20839987.004   -16785338.608 6 -12889663.43022
 91  4  7 23 23 59.9960000  0  3G19G 2G 6
  20919001.582    -1746995.863 6  -1303457.55822
  19789754.973   -24801425.716 8 -19145447.69124
  20832709.2934  -16823589.48547 -12919469.24962
 91  4  7 23 24 14.9960000  0  3G19G 2G 6
  20922398.293    -1729132.021 6  -1289537.73022
  19786861.559   -24816637.897 8 -19157301.31724
  20825435.684   -16861819.911 7 -12949259.14422
 91  4  7 23 24 29.9960000  0  3G19G 2G 6
  20925813.027    -1711198.180 6  -1275563.36622
  19783976.207   -24831791.055 8 -19169108.95024
  20818163.215   -16900030.786 7 -12979033.79922
 91  4  7 23 24 44.9960000  0  3G19G 2G 6
  20929242.262    -1693192.472 6  -1261532.99122
  19781103.496   -24846883.705 8 -19180869.43924
  20810893.145   -16938220.432 6 -13008791.91522
 91  4  7 23 24 59.9960000  0  3G19G 2G 6
  20932680.902    -1675108.211 6  -1247441.41222
  19778245.449   -24861909.172 8 -19192577.57624
  20803633.590   -16976381.812 6 -13038527.99922
 91  4  7 23 25 14.9960000  0  3G19G 2G 6
  20936137.340    -1656948.101 6  -1233290.72922
  19775396.723   -24876870.068 8 -19204235.39624
  20796376.1524  -17014517.37246 -13068243.96562
 91  4  7 23 25 29.9960000  0  3G19G 2G 6
  20939607.7074   -1638711.35846  -1219080.33862
  19772561.629   -24891765.787 8 -19215842.42724
  20789124.863   -17052626.276 7 -13097939.16222
 91  4  7 23 25 44.9960000  0  3G19G 2G 6
  20943092.652    -1620403.066 6  -1204814.19422
  19769738.293   -24906601.440 8 -19227402.65824
  20781879.629   -17090713.166 7 -13127617.20222
 91  4  7 23 25 59.9960000  0  3G19G 2G 6
  20946588.5744   -1602032.57246  -1190499.58462
  19766925.441   -24921386.593 8 -19238923.53524
  20774632.199   -17128787.505 6 -13157285.46522
 91  4  7 23 26 14.9960000  0  3G19G 2G 6
  20950098.4814   -1583586.86446  -1176126.36762
  19764124.481   -24936108.361 8 -19250395.02024
  20767390.6294  -17166836.28247 -13186933.80262
 91  4  7 23 26 29.9960000  0  3G19G 2G 6
  20953622.8014   -1565065.93646  -1161694.54262
  19761335.316   -24950766.639 8 -19261817.03324
  20760155.176   -17204859.067 7 -13216561.89122
 91  4  7 23 26 44.9960000  0  3G19G 2G 6
  20957161.6454   -1546475.15646  -1147208.27962
  19758558.606   -24965366.943 8 -19273193.87824
  20752921.9104  -17242861.00047 -13246173.72562
 91  4  7 23 26 59.9960000  0  3G19G 2G 6
  20960714.6764   -1527808.91046  -1132663.21362
  19755791.856   -24979903.935 8 -19284521.38024
  20745698.1844  -17280836.62247 -13275765.06262
 91  4  7 23 27 14.9960000  0  3G19G 2G 6
  20964277.7154   -1509074.39146  -1118064.94362
  19753034.441   -24994384.917 8 -19295805.24124
  20738473.2384  -17318792.89547 -13305341.31862
 91  4  7 23 27 29.9960000  0  3G19G 2G 6
  20967854.9414   -1490270.87146  -1103412.90762
  19750289.848   -25008809.152 8 -19307044.88224
  20731257.5204  -17356728.82747 -13334901.71762
 91  4  7 23 27 44.9960000  0  3G19G 2G 6
  20971447.7934   -1471400.53946  -1088708.81262
  19747556.402   -25023178.993 8 -19318242.14124
  20724041.3094  -17394646.52147 -13364447.91662
 91  4  7 23 27 59.9960000  0  3G19G 2G 6
  20975051.637    -1452458.780 6  -1073949.05422
  19744831.574   -25037489.951 8 -19329393.52124
  20716827.4104  -17432541.25847 -13393976.22462
 91  4  7 23 28 14.9960000  0  3G19G 2G 6
  20978668.840    -1433447.813 6  -1059135.36722
  19742121.293   -25051744.099 8 -19340500.63024
  20709619.3714  -17470414.91447 -13423488.10362
 91  4  7 23 28 29.9960000  0  3G19G 2G 6
  20982299.363    -1414361.402 6  -1044262.89722
  19739418.816   -25065935.439 8 -19351558.79924
  20702419.7074  -17508261.17147 -13452978.63162
 91  4  7 23 28 44.9960000  0  3G19G 2G 6
  20985946.176    -1395206.667 6  -1029337.18122
  19736728.949   -25080071.061 8 -19362573.55124
  20695220.941   -17546086.867 7 -13482453.13822
 91  4  7 23 28 59.9960000  0  3G19G 2G 6
  20989604.0204   -1375975.53946  -1014351.94462
  19734051.012   -25094142.910 8 -19373538.61024
  20688027.8094  -17583883.78847 -13511905.22462
 91  4  7 23 29 14.9960000  0  3G19G 2G 6
  20993278.6214   -1356672.97546   -999311.04162
  19731384.457   -25108156.150 8 -19384457.99924
  20680838.9344  -17621656.75647 -13541338.64562
 91  4  7 23 29 29.9960000  0  3G19G 2G 6
  20996965.8324   -1337298.36446   -984214.00662
  19728729.098   -25122110.495 8 -19395331.49624
  20673657.3244  -17659405.13147 -13570752.90562
 91  4  7 23 29 44.9960000  0  3G19G 2G 6
  21000669.723    -1317855.008 6   -969063.39522
  19726084.106   -25136009.144 8 -19406161.59624
  20666478.5204  -17697132.10647 -13600150.48662
 91  4  7 23 29 59.9960000  0  3G19G 2G 6
  21004376.9574   -1298344.27846   -953860.27662
  19723450.285   -25149853.598 8 -19416949.46224
  20659300.6374  -17734838.82647 -13629532.27862
 91  4  7 23 30 14.9960000  0  4G15G19G 2G 6
  23066873.3014         -0.92254
  21008107.5984   -1278761.18246   -938600.77762
  19720827.426   -25163639.173 8 -19427691.45724
  20652133.5204  -17772520.16047 -13658894.29262
 91  4  7 23 30 29.9960000  0  4G15G19G 2G 6
  23060217.457      -34953.806 4
  21011845.8014   -1259102.25546   -923282.18762
  19718216.387   -25177362.099 8 -19438384.62724
  20644965.3794  -17810172.18247 -13688233.46262
 91  4  7 23 30 44.9960000  0  4G15G19G 2G 6
  23053575.0594     -69823.60545
  21015602.988    -1239370.428 6   -907906.79922
  19715615.629   -25191025.299 8 -19449031.26324
  20637806.6214  -17847797.68247 -13717551.96462
 91  4  7 23 30 59.9960000  0  4G15G19G 2G 6
  23046959.981     -104616.426 5        -0.18331
  21019366.629    -1219571.943 6   -892479.46222
  19713025.231   -25204635.312 8 -19459636.45324
  20630652.9024  -17885402.83147 -13746854.61662
 91  4  7 23 31 14.9960000  0  4G15G19G 2G 6
  23040358.402     -139320.991 5    -27042.61621
  21023151.262    -1199695.970 6   -876991.74722
  19710447.395   -25218181.251 8 -19470191.71824
  20623498.9884  -17922976.67047 -13776132.86462
 91  4  7 23 31 29.9960000  0  4G15G19G 2G 6
  23033765.652     -173945.126 5    -54022.34421
  21026948.348    -1179750.838 6   -861450.13922
  19707880.0124  -25231671.60648 -19480703.67164
  20616355.8324  -17960527.21847 -13805392.96962
 91  4  7 23 31 44.9960000  0  4G15G19G 2G 6
  23027192.4494    -208483.72245    -80935.44461
  21030760.191    -1159731.312 6   -845850.56622
  19705324.457   -25245101.453 8 -19491168.47424
  20609216.4574  -17998049.22747 -13834630.83662
 91  4  7 23 31 59.9960000  0  4G15G19G 2G 6
  23020635.6064    -242950.51545   -107792.58361
  21034574.270    -1139651.785 6   -830204.23622
  19702778.715   -25258485.206 8 -19501597.35724
  20602077.340   -18035556.934 7 -13863857.56222
 91  4  7 23 32 14.9960000  0  4G15G19G 2G 6
  23014089.5664    -277333.02945   -134584.03661
  21038416.0514   -1119500.27646   -814501.81762
  19700243.176   -25271810.789 8 -19511980.91424
  20594943.5594  -18073038.05647 -13893063.56662
 91  4  7 23 32 29.9960000  0  4G15G19G 2G 6
  23007564.027     -311628.732 5   -161307.85121
  21042261.2544   -1099274.41646   -798741.46262
  19697718.0514  -25285076.08648 -19522317.49764
  20587817.8714  -18110490.00947 -13922246.84462
 91  4  7 23 32 44.9960000  0  4G15G19G 2G 6
  23001054.801     -345848.689 5   -187972.65521
  21046119.2934   -1078985.52146   -782931.98562
  19695202.121   -25298292.408 8 -19532615.91524
  20580694.2544  -18147924.07247 -13951416.17862
 91  4  7 23 32 59.9960000  0  4G15G19G 2G 6
  22994558.7774    -379985.41445   -214572.58961
  21049994.926    -1058626.788 6   -767068.09522
  19692698.098   -25311452.938 8 -19542870.86124
  20573577.1604  -18185333.01847 -13980565.94462
 91  4  7 23 33 14.9960000  0  4G15G19G 2G 6
  22988075.4964    -414041.03945   -241109.33561
  21053885.496    -1038200.518 6   -751151.57322
  19690203.309   -25324560.322 8 -19553084.39124
  20566459.1844  -18222719.17747 -14009697.95462
 91  4  7 23 33 29.9960000  0  4G15G19G 2G 6
  22981614.7384    -448008.36445   -267577.28161
  21057785.941    -1017699.815 6   -735177.05522
  19687723.481   -25337607.586 8 -19563251.07724
  20559351.7384  -18260075.31847 -14038806.57562
 91  4  7 23 33 44.9960000  0  5G15G13G19G 2G 6
  22975164.684     -481889.939 5   -293978.39021
  22836223.4884     -69098.30544
  21061699.9574    -997127.45546   -719146.69862
  19685250.512   -25350597.626 8 -19573373.16924
  20552249.137   -18297404.125 7 -14067893.90022
 91  4  7 23 33 59.9960000  0  5G15G13G19G 2G 6
  22968738.3094    -515681.20945   -320309.16761
  22823080.3874    -138162.58944
  21065628.6844    -976479.67146   -703057.57662
  19682788.965   -25363526.718 8 -19583447.77024
  20545152.1684  -18334701.64347 -14096956.84462
 91  4  7 23 34 14.9960000  0  5G15G13G19G 2G 6
  22962321.285     -549386.203 5   -346572.70521
  22809944.0594    -207197.43144
  21069568.9884    -955760.48646   -686912.81762
  19680338.816   -25376399.002 8 -19593478.10424
  20538060.598   -18371971.737 7 -14125998.42222
 91  4  7 23 34 29.9960000  0  5G15G13G19G 2G 6
  22955919.8874    -583004.80445   -372768.86661
  22796813.8954    -276202.77144
  21073526.652     -934970.031 6   -670712.51922
  19677901.137   -25389214.584 8 -19603464.26424
  20530973.137   -18409214.418 7 -14155018.63822
 91  4  7 23 34 44.9960000  0  5G15G13G19G 2G 6
  22949545.098     -616538.062 5   -398898.59521
  22783685.8874    -345179.36345
  21077497.168     -914109.659 6   -654457.74222
  19675474.606   -25401974.922 8 -19613407.37024
  20523890.160   -18446430.783 7 -14184018.34922
 91  4  7 23 34 59.9960000  0  5G15G13G19G 2G 6
  22943175.020     -649979.988 5   -424957.14921
  22770568.973     -414121.294 5        -0.49531
  21081479.9184    -893173.71246   -638144.07262
  19673056.184   -25414674.606 8 -19623303.20824
  20516814.191   -18483614.915 7 -14212992.93822
 91  4  7 23 35 14.9960000  0  5G15G13G19G 2G 6
  22936827.4964    -683334.49645   -450947.53861
  22757455.316     -483032.529 5    -53697.22821
  21085478.3484    -872166.65546   -621774.99062
  19670650.527   -25427318.044 8 -19633155.21924
  20509743.074   -18520771.118 7 -14241945.77622
 91  4  7 23 35 29.9960000  0  5G15G13G19G 2G 6
  22930506.8404    -716600.29545   -476868.81761
  22744344.699     -551911.557 5   -107368.91121
  21089492.0984    -851087.38246   -605349.64062
  19668255.941   -25439903.973 8 -19642962.42224
  20502676.238   -18557898.000 7 -14270875.75422
 91  4  7 23 35 44.9960000  0  5G15G13G19G 2G 6
  22924182.606     -749780.148 5   -502723.17221
  22731242.848     -620761.294 5   -161017.73721
  21093513.684     -829939.080 6   -588870.49222
  19665871.676   -25452435.904 8 -19652727.54324
  20495617.527   -18594998.572 7 -14299785.24023
 91  4  7 23 35 59.9960000  0  5G15G13G19G 2G 6
  22917885.316     -782876.434 5   -528512.38621
  22718143.356     -689584.142 5   -214645.61721
  21097551.496     -808724.606 6   -572339.79022
  19663495.723   -25464916.693 8 -19662452.81724
  20488564.098   -18632075.614 7 -14328676.38722
 91  4  7 23 36 14.9960000  0  5G15G13G19G 2G 6
  22911611.254     -815877.647 5   -554227.50921
  22705057.840     -758368.491 5   -268243.46921
  21101605.543     -787432.801 6   -555748.82622
  19661132.691   -25477335.413 8 -19672129.72024
  20481512.207   -18669117.663 7 -14357540.27723
 91  4  7 23 36 29.9960000  0  5G15G13G19G 2G 6
  22905342.2314    -848795.46245   -579877.65061
  22691970.379     -827125.904 5   -321820.36421
  21105667.7854    -766075.48846   -539106.82562
  19658778.082   -25489703.881 8 -19681767.46624
  20474468.910   -18706136.294 7 -14386385.91822
 91  4  7 23 36 44.9960000  0  5G15G13G19G 2G 6
  22899093.387     -881625.867 5   -605459.69121
  22678892.5984    -895852.28445   -375373.03661
  21109745.7384    -744649.10146   -522410.99762
  19656434.160   -25502018.601 8 -19691363.33124
  20467431.106   -18743127.875 7 -14415210.48222
 91  4  7 23 36 59.9960000  0  5G15G13G19G 2G 6
  22892866.0984    -914370.31145   -630974.77461
  22665822.0904    -964549.29745   -428902.86361
  21113835.0984    -723155.62646   -505662.89462
  19654099.285   -25514281.622 8 -19700918.91024
  20460394.668   -18780094.194 7 -14444015.36322
 91  4  7 23 37 14.9960000  0  5G15G13G19G 2G 6
  22886650.551     -947022.694 5   -656418.08321
  22652757.3484   -1033210.45445   -482404.74861
  21117937.918     -701588.991 6   -488857.77522
  19651778.449   -25526486.893 8 -19710429.49124
  20453366.7234  -18817028.82347 -14472795.54862
 91  4  7 23 37 29.9960000  0  5G15G13G19G 2G 6
  22880453.6064    -979584.80645   -681791.03761
  22639697.2464   -1101837.66145   -535880.14461
  21122052.207     -679951.441 6   -471997.40522
  19649468.770   -25538636.718 8 -19719896.86624
  20446343.074   -18853933.953 7 -14501552.75222
 91  4  7 23 37 44.9960000  0  5G15G13G19G 2G 6
  22874275.770    -1012059.283 5   -707095.75521
  22626644.481    -1170433.140 5   -589330.84921
  21126188.5664    -658245.80046   -455083.98162
  19647165.691   -25550734.089 8 -19729323.37024
  20439323.3714  -18890811.98647 -14530288.83963
 91  4  7 23 37 59.9960000  0  5G15G13G19G 2G 6
  22868112.684    -1044437.843 5   -732325.69021
  22613596.379    -1238988.906 4   -642750.61421
  21130335.168     -636464.439 6   -438111.54322
  19644873.723   -25562771.285 8 -19738702.98424
  20432315.4344  -18927655.09047 -14558997.71563
 91  4  7 23 38 14.9960000  0  5G15G13G19G 2G 6
  22861973.465    -1076723.206 5   -757483.00721
  22600555.6604   -1307507.68745   -696141.55161
  21134489.6994    -614610.45446   -421082.52861
  19642595.660   -25574751.384 8 -19748038.10224
  20425310.7464  -18964466.19847 -14587681.65863
 91  4  7 23 38 29.9960000  0  5G15G13G19G 2G 6
  22855842.988    -1108916.430 5   -782568.55721
  22587528.441    -1375990.267 5   -749504.23821
  21138660.887     -592684.982 6   -403997.79221
  19640325.129   -25586675.612 8 -19757329.68724
  20418312.3324  -19001246.14947 -14616341.32563
 91  4  7 23 38 44.9960000  0  5G15G13G19G 2G 6
  22849730.324    -1141019.564 5   -807583.86121
  22574502.996    -1444438.966 5   -802840.57221
  21142848.606     -570690.444 6   -386859.24421
  19638066.035   -25598546.684 8 -19766579.85524
  20411317.9814  -19037997.43447 -14644978.65163
 91  4  7 23 38 59.9960000  0  5G15G13G19G 2G 6
  22843640.856    -1173038.342 5   -832533.45321
  22561481.7934   -1512859.46045   -856154.94161
  21147044.7154    -548633.15646   -369671.80261
  19635816.441   -25610370.836 8 -19775793.45724
  20404327.6844  -19074726.06947 -14673598.33263
 91  4  7 23 39 14.9960000  0  5G15G13G19G 2G 6
  22837570.1684   -1204961.76445   -857408.74961
  22548467.0044   -1581240.82745   -909438.80561
  21151259.691     -526502.449 6   -352427.14722
  19633577.441   -25622137.404 8 -19784962.19124
  20397344.4344  -19111420.94647 -14702191.70763
 91  4  7 23 39 29.9960000  0  5G15G13G19G 2G 6
  22831511.090    -1236788.379 5   -882208.63321
  22535461.0664   -1649581.11345   -962690.65261
  21155482.9104    -504297.04046   -335124.30361
  19631349.902   -25633845.330 8 -19794085.23124
  20390368.9344  -19148080.81347 -14730757.79763
 91  4  7 23 39 44.9960000  0  5G15G13G19G 2G 6
  22825467.106    -1268521.552 5   -906935.66021
  22522466.887    -1717883.630 5  -1015913.08421
  21159718.996     -482020.489 6   -317766.01322
  19629131.785   -25645498.377 8 -19803165.50724
  20383402.2074  -19184709.05847 -14759299.25163
 91  4  7 23 39 59.9960000  0  5G15G13G19G 2G 6
  22819451.621    -1300165.307 5   -931593.03521
  22509473.1214   -1786152.38045  -1069109.19161
  21163971.9024    -459677.30046   -300355.79461
  19626922.824   -25657101.089 8 -19812206.56124
  20376435.020   -19221309.829 7 -14787819.28923
 91  4  7 23 40 14.9960000  0  5G15G13G19G 2G 6
  22813441.512    -1331718.850 5   -956180.11921
  22496488.4494   -1854386.58545  -1122278.39061
  21168240.1914    -437266.95446   -282893.25862
  19624727.473   -25668652.857 8 -19821207.92224
  20369478.1454  -19257882.53447 -14816317.46563
 91  4  7 23 40 29.9960000  0  5G15G13G19G 2G 6
  22807460.863    -1363176.564 5   -980692.53821
  22483510.3484   -1922580.58445  -1175416.27061
  21172517.6214    -414784.34345   -265374.40862
  19622535.793   -25680148.766 8 -19830165.75624
  20362523.9654  -19294421.73147 -14844789.53063
 91  4  7 23 40 44.9960000  0  5G15G13G19G 2G 6
  22801493.6064   -1394541.12745  -1005132.35461
  22470537.0984   -1990736.96645  -1228524.79861
  21176810.2234    -392232.53946   -247801.64161
  19620360.434   -25691591.766 8 -19839082.36824
  20355575.1914  -19330930.23847 -14873237.67663
 91  4  7 23 40 59.9960000  0  5G15G13G19G 2G 6
  22795545.2544   -1425809.05745  -1029496.88061
  22457574.5514   -2058852.02245  -1281601.14261
  21181109.9344    -369608.21146   -230172.35561
  19618194.324   -25702978.671 8 -19847955.26424
  20348635.3094  -19367404.41147 -14901659.07763
 91  4  7 23 41 14.9960000  0  5G15G13G19G 2G 6
  22789605.395    -1456985.898 5  -1053790.41821
  22444625.512    -2126931.450 5  -1334649.74421
  21185431.8714    -346917.32246   -212491.21461
  19616037.402   -25714315.378 8 -19856789.04324
  20341698.7154  -19403850.02247 -14930058.21563
 91  4  7 23 41 29.9960000  0  5G15G13G19G 2G 6
  22783687.746    -1488058.774 5  -1078002.93921
  22431677.293    -2194962.172 5  -1387660.40321
  21189762.496     -324147.197 6   -194748.32221
  19613892.629   -25725589.497 8 -19865574.05124
  20334771.0904  -19440254.25447 -14958425.11263
 91  4  7 23 41 44.9960000  0  5G15G13G19G 2G 6
  22777801.527    -1519039.450 5  -1102143.61221
  22418739.059    -2262956.084 5  -1440642.35421
  21194109.7624    -301310.16746   -176953.29761
  19611754.551   -25736813.378 8 -19874319.92024
  20327848.1684  -19476629.24847 -14986769.22363
 91  4  7 23 41 59.9950000  0  5G15G13G19G 2G 6
  22771923.2184   -1549921.69945  -1126207.60761
  22405808.5234   -2330904.42845  -1493588.79361
  21198471.7574    -278403.82845   -159104.27461
  19609629.6794  -25747982.33048 -19883022.99464
  20320933.796   -19512968.392 7 -15015085.39723
 91  4  7 23 42 14.9950000  0  5G15G13G19G 2G 6
  22766067.4134   -1580708.76245  -1150197.43661
  22392885.366    -2398815.530 5  -1546506.21421
  21202842.3194    -255424.71246   -141198.53661
  19607514.780   -25759097.398 8 -19891684.06624
  20314023.202   -19549275.846 7 -15043376.87923
 91  4  7 23 42 29.9950000  0  5G15G13G19G 2G 6
  22760221.030    -1611397.278 5  -1174110.47021
  22379970.007    -2466682.970 5  -1599389.66021
  21207226.6324    -232373.12546   -123236.32261
  19605410.562   -25770156.434 8 -19900301.48524
  20307123.632   -19585547.643 7 -15071640.57223
 91  4  7 23 42 44.9950000  0  5G15G13G19G 2G 6
  22754402.2494   -1641992.15445  -1197950.53161
  22367059.827    -2534511.873 5  -1652243.01721
  21211631.015     -209254.474 6   -105221.85621
  19603313.452   -25781165.254 8 -19908879.77124
  20300226.812   -19621789.172 7 -15099880.67923
 91  4  7 23 42 59.9950000  0  5G15G13G19G 2G 6
  22748602.015    -1672492.451 5  -1221716.89021
  22354160.2184   -2602300.96845  -1705065.41661
  21216042.3434    -186067.95546    -87154.50561
  19601230.210   -25792123.169 8 -19917418.38924
  20293336.444   -19657999.259 7 -15128096.28023
 91  4  7 23 43 14.9950000  0  5G15G13G19G 2G 6
  22742814.530    -1702885.920 5  -1245400.03521
  22341271.7884   -2670038.27945  -1757847.44061
  21220467.7184    -162801.82446    -69025.13261
  19599157.0384  -25803018.27948 -19925908.07764
  20286452.624   -19694165.967 7 -15156278.08623
 91  4  7 23 43 29.9950000  0  5G15G13G19G 2G 6
  22737043.8194   -1733183.58545  -1269008.49861
  22328391.468    -2737734.742 5  -1810597.65021
  21224910.0464    -139467.43346    -50842.55361
  19597093.358   -25813862.045 8 -19934357.74824
  20279577.108   -19730300.403 7 -15184434.74423
 91  4  7 23 43 44.9950000  0  5G15G13G19G 2G 6
  22731298.7494   -1763382.16245  -1292539.74461
  22315517.491    -2805386.774 5  -1863313.23221
  21229361.1484    -116061.83346    -32604.48861
  19595040.4444  -25824651.58148 -19942765.16764
  20272707.765   -19766399.381 7 -15212563.77323
 91  4  7 23 43 59.9950000  0  5G15G13G19G 2G 6
  22725573.2414   -1793486.09245  -1315997.24661
  22302652.4214   -2872998.86745  -1915997.69761
  21233833.3124     -92589.93445    -14314.75761
  19592995.273   -25835391.966 8 -19951134.28324
  20265843.390   -19802467.559 7 -15240668.78723
 91  4  7 23 44 14.9950000  0  5G15G13G19G 2G 6
  22719864.9764   -1823489.21945  -1339376.22661
  22289794.351    -2940564.469 5  -1968645.98121
  21238308.2494     -69045.80145      4031.24861
  19590963.796   -25846076.988 8 -19959460.26324
  20258985.390   -19838498.539 7 -15268744.83022
 91  4  7 23 44 29.9950000  0  5G15G13G19G 2G 6
  22714175.046    -1853390.115 5  -1362675.52521
  22276942.4994   -3008082.30845  -2021257.01861
  21242803.546      -45428.308 6     22434.41921
  19588940.804   -25856705.679 8 -19967742.34724
  20252136.304   -19874491.108 7 -15296790.93723
 91  4  7 23 44 44.9950000  0  5G15G13G19G 2G 6
  22708510.577    -1883190.321 5  -1385896.35121
  22264100.187    -3075554.062 5  -2073832.11921
  21247313.3904     -21739.48846     40893.17661
  19586927.179   -25867280.315 8 -19975982.30724
  20245296.054   -19910447.245 7 -15324808.65323
 91  4  7 23 44 59.9950000  0  5G15G13G19G 2G 6
  22702848.444    -1912889.604 5  -1409038.55921
  22251266.601    -3142979.335 5  -2126371.02021
  21251834.7494       2020.72445     59407.56261
  19584925.374   -25877800.926 8 -19984180.17224
  20238458.3354  -19946366.52647 -15352797.64863
 91  4  7 23 45 14.9950000  0  5G15G13G19G 2G 6
  22697218.226    -1942487.552 5  -1432101.82121
  22238447.937    -3210357.580 5  -2178873.26221
  21256370.8984      25852.33846     77977.57961
  19582934.687   -25888267.401 8 -19992335.85324
  20231631.991   -19982248.634 7 -15380757.67423
 91  4  7 23 45 29.9950000  0  5G15G13G19G 2G 6
  22691603.991    -1971983.078 5  -1455085.23821
  22225634.2104   -3277687.65945  -2231338.00261
  21260915.1484      49756.10846     96603.82961
  19580953.1714  -25898678.93848 -20000448.73164
  20224811.921   -20018092.559 7 -15408687.95023
 91  4  7 23 45 44.9950000  0  5G15G13G19G 2G 6
  22686009.1324   -2001376.51545  -1477989.12061
  22212832.1634   -3344969.73745  -2283765.31261
  21265477.163       73731.553 5    115285.93921
  19578983.437   -25909036.258 8 -20008519.35324
  20217995.6404  -20053898.65047 -15436588.73863
 91  4  7 23 45 59.9950000  0  5G15G13G19G 2G 6
  22680437.8274   -2030670.90545  -1500815.84661
  22200038.273    -3412206.979 5  -2336157.70321
  21270054.7414      97774.97446    134020.99461
  19577020.444   -25919343.000 8 -20016550.56624
  20211189.382   -20089670.291 7 -15464462.69123
 91  4  7 23 46 14.9950000  0  5G15G13G19G 2G 6
  22674877.4524   -2059867.56745  -1523566.38861
  22187251.7804   -3479400.36145  -2388515.91461
  21274643.726      121884.912 6    152807.89421
  19575068.2884  -25929600.80248 -20024543.65064
  20204389.3514  -20125408.76447 -15492310.79462
 91  4  7 23 46 29.9950000  0  5G15G13G19G 2G 6
  22669342.304    -2088968.547 5  -1546242.36721
  22174472.890    -3546551.850 5  -2440841.50221
  21279240.2884     146059.01345    171644.78961
  19573124.890   -25939811.805 8 -20032500.26224
  20197595.3984  -20161116.14047 -15520134.67063
 91  4  7 23 46 44.9950000  0  5G15G13G19G 2G 6
  22663825.0234   -2117966.56945  -1568838.13061
  22161705.694    -3613654.547 5  -2493129.06321
  21283857.1324     170303.89146    190536.83461
  19571192.890   -25949969.467 8 -20040415.31224
  20190805.233   -20196785.496 7 -15547928.91523
 91  4  7 23 46 59.9950000  0  5G15G13G19G 2G 6
  22658326.773    -2146859.574 5  -1591352.04821
  22148946.6084   -3680705.94045  -2545376.66761
  21288485.7654     194621.82046    209485.80161
  19569270.374   -25960071.787 8 -20048287.23724
  20184027.8044  -20232414.45147 -15575691.67663
 91  4  7 23 47 14.9950000  0  5G15G13G19G 2G 6
  22652848.2654   -2175653.56845  -1613788.84361
  22136194.2264   -3747711.90845  -2597588.86761
  21293122.5304     219006.19745    228486.55861
  19567356.718   -25970125.373 8 -20056121.18424
  20177254.280   -20268009.196 7 -15603427.79023
 91  4  7 23 47 29.9950000  0  5G15G13G19G 2G 6
  22647387.2334   -2204343.92445  -1636144.86361
  22123451.6634   -3814667.86945  -2649762.10061
  21297779.2414     243461.13346    247542.27861
  19565453.702   -25980125.981 8 -20063913.85024
  20170487.7884  -20303565.39747 -15631133.86063
 91  4  7 23 47 44.9950000  0  5G15G13G19G 2G 6
  22641948.452    -2232927.485 5  -1658417.68221
  22110720.8514   -3881570.62845  -2701893.89161
  21302442.749      267989.586 6    266655.28521
  19563563.5464  -25990070.93648 -20071663.15864
  20163728.6014  -20339079.83647 -15658807.39063
 91  4  7 23 47 59.9950000  0  5G15G13G19G 2G 6
  22636530.8194   -2261413.33645  -1680614.35861
  22097998.1324   -3948429.09145  -2753991.15561
  21307128.187      292582.213 5    285818.30421
  19561677.249   -25999969.537 8 -20079376.34124
  20156977.1714  -20374561.76147 -15686455.58763
 91  4  7 23 48 14.9950000  0  5G15G13G19G 2G 6
  22631127.327    -2289795.265 5  -1702730.04921
  22085283.562    -4015237.136 5  -2806049.11421
  21311819.0384     317244.71446    305035.76361
  19559803.9444  -26009815.92648 -20087048.84164
  20150234.062   -20410005.005 7 -15714073.64823
 91  4  7 23 48 29.9950000  0  5G15G13G19G 2G 6
  22625746.124    -2318076.280 5  -1724767.09421
  22072577.819    -4081997.593 5  -2858070.05721
  21316525.335      341973.770 6    324305.07921
  19557938.733   -26019613.575 8 -20094683.35624
  20143492.6484  -20445412.71747 -15741664.01663
 91  4  7 23 48 44.9950000  0  5G15G13G19G 2G 6
  22620383.0694   -2346256.69745  -1746725.79261
  22059885.546    -4148710.748 5  -2910054.09321
  21321243.1554     366768.59345    343625.66061
  19556084.2264  -26029363.17048 -20102280.43164
  20136762.616   -20480785.296 7 -15769227.01123
 91  4  7 23 48 59.9950000  0  5G15G13G19G 2G 6
  22615037.702    -2374334.158 5  -1768604.22921
  22047200.5624   -4215374.14145  -2961999.39361
  21325973.0774     391631.42945    362999.21161
  19554239.9214  -26039062.69848 -20109838.49864
  20130038.249   -20516120.243 7 -15796760.68423
 91  4  7 23 49 14.9950000  0  5G15G13G19G 2G 6
  22609716.968    -2402306.682 5  -1790400.92121
  22034522.1794   -4281985.63645  -3013904.21461
  21330717.3824     416564.30745    382427.36961
  19552401.694   -26048710.081 8 -20117355.92524
  20123322.3044  -20551415.60747 -15824263.51163
 91  4  7 23 49 29.9950000  0  5G15G13G19G 2G 6
  22604416.3044   -2430176.73345  -1812117.75761
  22021856.2804   -4348547.59045  -3065770.43361
  21335479.030      441564.000 5    401907.56921
  19550575.171   -26058308.542 8 -20124835.23624
  20116612.741   -20586673.920 7 -15851737.46623
 91  4  7 23 49 44.9950000  0  5G15G13G19G 2G 6
  22599130.452    -2457942.925 5  -1833753.64821
  22009200.6874   -4415058.68045  -3117597.01561
  21340247.0304     466631.47845    421440.62261
  19548759.0234  -26067857.14248 -20132275.69464
  20109910.366   -20621894.207 7 -15879181.79723
 91  4  7 23 49 59.9950000  0  5G15G13G19G 2G 6
  22593863.694    -2485603.425 5  -1855307.20721
  21996554.241    -4481516.509 5  -3169382.10721
  21345027.085      491768.411 5    441027.76221
  19546952.851   -26077354.473 8 -20139676.19924
  20103215.132   -20657074.381 7 -15906594.87423
 91  4  7 23 50 14.9950000  0  5G15G13G19G 2G 6
  22588620.374    -2513157.787 5  -1876778.04421
  21983918.765    -4547920.657 5  -3221125.37321
  21349824.7654     516974.96145    460669.17161
  19545154.6164  -26086800.30348 -20147036.57764
  20096529.773   -20692214.143 7 -15933976.46023
 91  4  7 23 50 29.9950000  0  5G15G13G19G 2G 6
  22583397.1554   -2540603.30445  -1898164.06361
  21971292.6634   -4614268.70745  -3272824.93461
  21354635.733      542253.453 5    480366.61421
  19543366.515   -26096192.311 8 -20154355.01424
  20089849.030   -20727310.925 7 -15961324.55723
 91  4  7 23 50 44.9950000  0  5G15G13G19G 2G 6
  22578199.679    -2567938.921 5  -1919464.46721
  21958675.937    -4680559.619 5  -3324479.95221
  21359461.5304     567604.47445    500120.59961
  19541590.6874  -26105529.98948 -20161631.11464
  20083181.7414  -20762363.67147 -15988638.34263
 91  4  7 23 50 59.9950000  0  5G15G13G19G 2G 6
  22573017.5304   -2595167.15145  -1940681.17861
  21946072.9054   -4746795.73245  -3376092.28061
  21364298.015      593025.326 6    519928.97021
  19539823.366   -26114816.114 8 -20168867.04224
  20076518.257   -20797375.142 7 -16015919.95723
 91  4  7 23 51 14.9950000  0  5G15G13G19G 2G 6
  22567857.5934   -2622294.94945  -1961819.63661
  21933479.4764   -4812983.82745  -3427667.19161
  21369147.694      618508.559 5    539785.97121
  19538063.601   -26124057.919 8 -20176068.43424
  20069860.9684  -20832352.19247 -16043174.76263
 91  4  7 23 51 29.9950000  0  5G15G13G19G 2G 6
  22562714.124    -2649315.667 5  -1982874.66021
  21920892.9374   -4879117.07546  -3479199.37561
  21374011.694      644060.387 5    559696.40121
  19536314.5154  -26133249.06148 -20183230.35364
  20063214.8984  -20867288.19547 -16070397.58063
 91  4  7 23 51 44.9950000  0  5G15G13G19G 2G 6
  22557591.2574   -2676233.19245  -2003849.27861
  21908315.382    -4945198.849 5  -3530691.44321
  21378882.827      669677.072 5    579657.37721
  19534575.2334  -26142393.44748 -20190355.83864
  20056572.1634  -20902186.92047 -16097591.35763
 91  4  7 23 51 59.9950000  0  5G15G13G19G 2G 6
  22552488.9524   -2703037.95945  -2024736.01461
  21895753.2574   -5011219.66345  -3582135.99261
  21383776.491      695367.807 5    599676.05721
  19532845.2264  -26151482.15548 -20197437.94064
  20049942.546   -20937038.840 7 -16124748.65223
 91  4  7 23 52 14.9950000  0  5G15G13G19G 2G 6
  22547409.773    -2729730.654 5  -2045535.42521
  21883199.327    -5077180.432 5  -3633533.78121
  21388676.9214     721131.22445    619751.37561
  19531127.569   -26160516.560 8 -20204477.72124
  20043319.0384  -20971845.11447 -16151870.39063
 91  4  7 23 52 29.9950000  0  5G15G13G19G 2G 6
  22542356.1164   -2756313.19045  -2066248.99861
  21870658.0544   -5143082.76245  -3684886.02961
  21393591.7024     746965.39545    639881.82861
  19529417.2024  -26169498.32248 -20211476.49364
  20036701.2884  -21006607.30047 -16178957.77163
 91  4  7 23 52 44.9950000  0  5G15G13G19G 2G 6
  22537314.687    -2782785.118 5  -2086876.37721
  21858132.108    -5208926.163 5  -3736192.35021
  21398520.9684     772870.34945    660067.43561
  19527715.9684  -26178427.80348 -20218434.52064
  20030096.9374  -21041325.06047 -16206010.52863
 91  4  7 23 52 59.9950000  0  5G15G13G19G 2G 6
  22532294.8514   -2809151.56045  -2107421.58261
  21845611.1714   -5274715.89945  -3787456.87361
  21403465.0234     798840.42645    680303.79161
  19526027.1244  -26187310.46848 -20225356.06464
  20023496.4764  -21076003.92447 -16233032.98663
 91  4  7 23 53 14.9950000  0  5G15G13G19G 2G 6
  22527299.921    -2835408.331 5  -2127881.29721
  21833101.429    -5340447.686 5  -3838676.22921
  21408418.726      824879.519 5    700593.91221
  19524347.5304  -26196142.44448 -20232238.11364
  20016905.5624  -21110639.50447 -16260021.71563
 91  4  7 23 53 29.9950000  0  5G15G13G19G 2G 6
  22522322.2654   -2861552.68945  -2148253.43661
  21820605.687    -5406118.471 5  -3889848.04821
  21413384.0074     850990.44245    720940.02561
  19522676.4524  -26204921.07548 -20239078.60064
  20010323.4294  -21145228.95047 -16286974.49763
 91  4  7 23 53 44.9950000  0  5G15G13G19G 2G 6
  22517371.8984   -2887579.60645  -2168534.07661
  21808120.1794   -5471723.16745  -3940968.35561
  21418369.585      877177.564 5    741345.49621
  19521017.2654  -26213641.99548 -20245874.11764
  20003750.5854  -21179767.45647 -16313887.58563
 91  4  7 23 53 59.9950000  0  5G15G13G19G 2G 6
  22512442.616    -2913498.641 5  -2188730.64421
  21795647.6404   -5537271.11745  -3992044.45461
  21423364.1084     903431.01945    761802.67461
  19519364.5544  -26222314.85448 -20252632.18264
  19997187.1874  -21214264.62947 -16340768.46263
 91  4  7 23 54 14.9950000  0  5G15G13G19G 2G 6
  22507528.929    -2939302.869 5  -2208837.75921
  21783186.7964   -5602755.34345  -4043070.89661
  21428376.5304     929757.48745    782316.71661
  19517726.1244  -26230933.23548 -20259347.79664
  19990629.5624  -21248713.44247 -16367611.65863
 91  4  7 23 54 29.9950000  0  5G15G13G19G 2G 6
  22502642.577    -2964996.449 5  -2228858.63821
  21770734.7264   -5668179.82245  -4094050.79261
  21433400.4134     956152.66645    802884.32061
  19516095.5934  -26239501.49348 -20266024.35164
  19984082.6164  -21283118.11947 -16394420.45863
 91  4  7 23 54 44.9950000  0  5G15G13G19G 2G 6
  22497770.999    -2990585.687 5  -2248798.21721
  21758296.179    -5733550.730 6  -4144988.94421
  21438436.030      982609.766 5    823500.14521
  19514472.4444  -26248026.20248 -20272666.97564
  19977542.9214  -21317484.81047 -16421199.66163
 91  4  7 23 54 59.9950000  0  5G15G13G19G 2G 6
  22492921.3044   -3016056.16145  -2268645.27461
  21745870.546    -5798853.990 5  -4195874.37021
  21443482.960     1009142.497 5    844174.93121
  19512859.9134  -26256493.60148 -20279264.94264
  19971015.1874  -21351799.71347 -16447938.51063
 91  4  7 23 55 14.9950000  0  5G15G13G19G 2G 6
  22488096.491    -3041422.574 5  -2288411.24921
  21733452.585    -5864103.779 5  -4246718.14521
  21448545.882     1035736.122 5    864897.15221
  19511258.7804  -26264918.55748 -20285829.83564
  19964495.0304  -21386077.08147 -16474648.11263
 91  4  7 23 55 29.9950000  0  5G15G13G19G 2G 6
  22483287.882    -3066677.872 5  -2308090.62321
  21721049.015    -5929293.163 5  -4297514.85021
  21453616.374     1062397.606 5    885672.26521
  19509667.0234  -26273294.46848 -20292356.51364
  19957975.9294  -21420310.04347 -16501323.10763
 91  4  7 23 55 44.9950000  0  5G15G13G19G 2G 6
  22478506.976    -3091819.485 5  -2327681.41321
  21708656.9994   -5994419.26445  -4348262.24261
  21458705.866     1089128.813 5    906501.69921
  19508081.1554  -26281618.94048 -20298843.10764
  19951471.4294  -21454496.21647 -16527961.64763
 91  4  7 23 55 59.9950000  0  5G15G13G19G 2G 6
  22473743.468    -3116844.201 5  -2347181.11521
  21696272.7574   -6059478.91745  -4398957.84861
  21463805.5384    1115932.80245    927387.85861
  19506506.9054  -26289889.19548 -20305287.45464
  19944974.0934  -21488632.25047 -16554561.11663
 91  4  7 23 56 14.9950000  0  5G15G13G19G 2G 6
  22469002.733    -3141753.099 5  -2366590.56721
  21683907.062    -6124472.837 6  -4449602.25221
  21468918.9914    1142808.60845    948329.96761
  19504942.7104  -26298106.43648 -20311690.49264
  19938487.1084  -21522719.04547 -16581122.21364
 91  4  7 23 56 29.9950000  0  5G15G13G19G 2G 6
  22464287.7104   -3166549.20745  -2385912.15061
  21671551.390    -6189403.908 6  -4500197.68921
  21474050.819     1169752.354 5    969325.02121
  19503390.2414  -26306274.21248 -20318054.98464
  19932012.398   -21556759.711 7 -16607647.36523
 91  4  7 23 56 44.9950000  0  5G15G13G19G 2G 6
  22459588.5624   -3191233.49045  -2405146.56561
  21659203.538    -6254273.340 5  -4550745.09721
  21479187.765     1196762.813 5    990372.05321
  19501843.7804  -26314393.63248 -20324381.79964
  19925541.585   -21590755.486 7 -16634137.53823
 91  4  7 23 56 59.9950000  0  5G15G13G19G 2G 6
  22454907.7884   -3215808.98945  -2424296.23761
  21646872.538    -6319084.188 5  -4601246.85821
  21484337.6554    1223836.63045   1011468.44461
  19500308.4214  -26322468.34848 -20330673.78164
  19919082.374   -21624709.380 7 -16660595.07424
 91  4  7 23 57 14.9950000  0  5G15G13G19G 2G 6
  22450254.030    -3240273.905 5  -2443359.73721
  21634547.9914   -6383834.27945  -4651701.26361
  21489502.8984    1250975.29745   1032615.38961
  19498781.1484  -26330496.66248 -20336929.60364
  19912628.1634  -21658619.52547 -16687018.52763
 91  4  7 23 57 29.9950000  0  5G15G13G19G 2G 6
  22445616.960    -3264625.396 5  -2462334.84521
  21622237.1324   -6448520.49545  -4702105.88861
  21494680.9294    1278181.36445   1053814.82561
  19497261.6714  -26338476.22248 -20343147.43464
  19906184.218   -21692483.128 7 -16713405.71023
 91  4  7 23 57 44.9950000  0  5G15G13G19G 2G 6
  22441010.546    -3288861.175 5  -2481219.78421
  21609945.6324   -6513140.60945  -4752459.02061
  21499872.7734    1305456.91045   1075068.44361
  19495752.7104  -26346405.06248 -20349325.74464
  19899749.257   -21726297.883 7 -16739754.82623
 91  4  7 23 57 59.9950000  0  5G15G13G19G 2G 6
  22436418.4684   -3312989.43945  -2500020.94661
  21597656.5234   -6577702.75545  -4802766.99561
  21505068.765     1332793.522 5   1096369.60421
  19494252.9294  -26354291.74248 -20355471.20564
  19893322.3904  -21760072.02347 -16766072.29763
 91  4  7 23 58 14.9950000  0  5G15G13G19G 2G 6
  22431848.0774   -3337000.19345  -2518730.55361
  21585383.991    -6642196.717 6  -4853021.83921
  21510290.023     1360200.678 5   1117725.75721
  19492759.7024  -26362126.38048 -20361576.11264
  19886903.124   -21793795.560 7 -16792350.33423
 91  4  7 23 58 29.9950000  0  5G15G13G19G 2G 6
  22427299.3434   -3360900.96345  -2537354.48661
  21573119.343    -6706630.091 6  -4903229.46621
  21515515.2334    1387670.44945   1139130.70861
  19491280.1484  -26369916.90548 -20367646.64664
  19880494.632   -21827476.196 7 -16818594.94023
 91  4  7 23 58 44.9950000  0  5G15G13G19G 2G 6
  22422770.023    -3384686.160 5  -2555888.32021
  21560874.265    -6770997.083 6  -4953385.36421
  21520758.702     1415208.279 5   1160588.67421
  19489805.9294  -26377658.03548 -20373678.69064
  19874095.812   -21861108.054 7 -16844801.54223
 91  4  7 23 58 59.9950000  0  5G15G13G19G 2G 6
  22418273.437    -3408353.607 5  -2574330.42121
  21548640.960    -6835295.349 6  -5003487.72921
  21526007.999     1442816.096 5   1182101.18721
  19488342.6164  -26385347.78148 -20379670.69464
  19867705.132   -21894688.959 7 -16870968.43723
 91  4  7 23 59 14.9950000  0  5G15G13G19G 2G 6
  22413782.5854   -3431908.91045  -2592685.12761
  21536414.9604   -6899530.54846  -5053540.94061
  21531280.1404    1470487.60045   1203663.29961
  19486888.1244  -26392992.38448 -20385627.52064
  19861323.460   -21928224.878 7 -16897100.28023
 91  4  7 23 59 29.9950000  0  5G15G13G19G 2G 6
  22409328.093    -3455348.839 5  -2610949.94121
  21524205.0384   -6963699.47346  -5103542.52061
  21536551.288     1498225.567 5   1225277.21121
  19485441.8434  -26400589.01248 -20391546.96764
  19854950.124   -21961712.593 7 -16923194.55523
 91  4  7 23 59 44.9950000  0  5G15G13G19G 2G 6
  22404888.5304   -3478676.63945  -2629127.37461
  21512005.1874   -7027804.98946  -5153494.68261
  21541846.288     1526026.670 5   1246940.33821
  19484004.8274  -26408141.10348 -20397431.70764
  19848587.171   -21995155.200 7 -16949253.68923
 91  4  7 23 59 59.9950000  0  5G15G13G19G 2G 6
  22400470.202    -3501892.875 5  -2647217.86421
  21499820.0384   -7091847.60346  -5203397.83061
  21547146.780     1553890.223 5   1268652.08621
  19482574.3664  -26415649.50248 -20403282.40364
  19842231.124   -22028553.356 7 -16975278.18223
 91  4  8  0  0 14.9950000  0  5G15G13G19G 2G 6
  22396073.6084   -3524994.18945  -2665218.81961
  21487643.0934   -7155823.97545  -5253249.36261
  21552459.9994    1581819.17245   1290414.83861
  19481155.9834  -26423111.14348 -20409096.66264
  19835885.718   -22061903.636 7 -17001265.37123
 91  4  8  0  0 29.9950000  0  5G15G13G19G 2G 6
  22391699.163    -3547981.261 5  -2683130.74921
  21475482.530    -7219734.335 5  -5303049.43721
  21557790.148     1609812.907 5   1312228.02421
  19479745.9914  -26430526.84348 -20414875.11964
  19829547.1164  -22095206.44447 -17027215.57163
 91  4  8  0  0 44.9950000  0  5G15G13G19G 2G 6
  22387344.796    -3570856.912 5  -2700955.83721
  21463332.944    -7283581.340 6  -5352800.16621
  21563126.976     1637868.214 5   1334089.23121
  19478343.0934  -26437899.67248 -20420620.17664
  19823217.6794  -22128464.71147 -17053131.06663
 91  4  8  0  0 59.9950000  0  5G15G13G19G 2G 6
  22383017.030    -3593621.536 5  -2718694.41821
  21451195.7184   -7347365.35246  -5402501.80461
  21568474.5074    1665984.11445   1355997.63961
  19476947.3194  -26445230.44848 -20426332.46464
  19816899.6794  -22161678.91447 -17079012.22463
 91  4  8  0  1 14.9950000  0  5G15G13G19G 2G 6
  22378704.0464   -3616271.76045  -2736343.86061
  21439068.851    -7411082.639 6  -5452151.45821
  21573843.0464    1694163.69045   1377955.67061
  19475559.6244  -26452516.04548 -20432009.54664
  19810588.858   -22194845.578 7 -17104856.33623
 91  4  8  0  1 29.9950000  0  5G15G13G19G 2G 6
  22374414.8274   -3638812.08145  -2753907.67361
  21426955.7414   -7474737.94346  -5501752.81661
  21579212.249     1722402.101 5   1399959.52421
  19474181.5694  -26459761.25448 -20437655.15464
  19804282.3044  -22227969.36947 -17130667.04563
 91  4  8  0  1 44.9950000  0  5G15G13G19G 2G 6
  22370150.515    -3661239.699 5  -2771383.66121
  21414856.421    -7538328.343 6  -5551303.60821
  21584597.210     1750701.911 5   1422011.23821
  19472812.8354  -26466963.64048 -20443267.39964
  19797988.0624  -22261047.38947 -17156442.08863
 91  4  8  0  1 59.9950000  0  5G15G13G19G 2G 6
  22365896.9374   -3683554.81545  -2788771.99361
  21402766.5234   -7601853.85446  -5600803.82261
  21589998.8354    1779062.50845   1444110.33361
  19471449.7104  -26474123.83648 -20448846.76664
  19791703.0854  -22294079.97147 -17182181.72963
 91  4  8  0  2 14.9950000  0  5G15G13G19G 2G 6
  22361670.874    -3705752.979 5  -2806069.17621
  21390689.694    -7665309.631 6  -5650249.70521
  21595405.1944    1807488.29245   1466260.18561
  19470096.3124  -26481237.40248 -20454389.79864
  19785427.2654  -22327062.35947 -17207882.25063
 91  4  8  0  2 29.9950000  0  5G15G13G19G 2G 6
  22357475.023    -3727839.626 5  -2823279.47521
  21378626.0384   -7728701.31446  -5699645.65061
  21600826.9994    1835973.32345   1488456.25461
  19468749.6634  -26488310.33948 -20459901.17164
  19779158.7734  -22360000.12247 -17233548.00363
 91  4  8  0  2 44.9950000  0  5G15G13G19G 2G 6
  22353292.1794   -3749818.31945  -2840405.66261
  21366575.296    -7792032.117 6  -5748994.15621
  21606257.1554    1864513.60045   1510695.31961
  19467410.5854  -26495346.67648 -20465384.02964
  19772899.0934  -22392896.88447 -17259181.81163
 91  4  8  0  2 59.9950000  0  5G15G13G19G 2G 6
  22349130.163    -3771679.588 5  -2857440.34221
  21354538.0774   -7855292.78446  -5798288.03261
  21611700.202     1893118.297 5   1532984.60921
  19466081.4444  -26502337.13548 -20470831.13464
  19766646.9444  -22425743.26747 -17284776.35863
 91  4  8  0  3 14.9950000  0  5G15G13G19G 2G 6
  22344988.0074   -3793425.76645  -2874385.35161
  21342511.218    -7918485.320 6  -5847528.78621
  21617156.858     1921785.094 5   1555322.27421
  19464756.7414  -26509284.05448 -20476244.30964
  19760405.3904  -22458541.13647 -17310333.10763
 91  4  8  0  3 29.9950000  0  5G15G13G19G 2G 6
  22340869.2574   -3815055.75145  -2891239.82761
  21330501.499    -7981608.304 6  -5896715.36121
  21622621.858     1950514.585 5   1577708.79321
  19463444.4054  -26516186.80548 -20481623.06964
  19754175.3514  -22491289.79647 -17335851.51063
 91  4  8  0  3 44.9950000  0  5G15G13G19G 2G 6
  22336780.929    -3836577.089 5  -2908009.60421
  21318498.358    -8044669.160 6  -5945853.52621
  21628100.7184    1979299.03045   1600138.14961
  19462138.2574  -26523053.20148 -20486973.49964
  19747951.5544  -22523996.51647 -17361337.23263
 91  4  8  0  3 59.9950000  0  5G15G13G19G 2G 6
  22332707.5154   -3857985.63345  -2924691.53161
  21306512.1874   -8107663.81046  -5994940.08661
  21633590.4134    2008142.03845   1622613.11761
  19460840.0074  -26529879.31148 -20492292.53964
  19741738.0854  -22556657.38047 -17386787.21763
 91  4  8  0  4 14.9950000  0  5G15G13G19G 2G 6
  22328654.905    -3879271.995 5  -2941278.22621
  21294537.444    -8170582.775 6  -6043967.68821
  21639092.4444    2037052.77145   1645140.86661
  19459549.9524  -26536656.26548 -20497573.27564
  19735531.5624  -22589262.86947 -17412194.05663
 91  4  8  0  4 29.9950000  0  5G15G13G19G 2G 6
  22324627.0304   -3900445.56545  -2957777.05161
  21282579.616    -8233435.159 6  -6092943.37621
  21644602.866     2066021.661 5   1667713.95721
  19458266.7104  -26543393.53848 -20502823.09264
  19729335.3434  -22621822.22347 -17437564.94563
 91  4  8  0  4 44.9950000  0  5G15G13G19G 2G 6
  22320615.765    -3921505.457 5  -2974187.28621
  21270628.7804   -8296219.66246  -6141866.19961
  21650130.4604    2095049.71745   1690333.09561
  19456992.3274  -26550090.19148 -20508041.25064
  19723147.0774  -22654334.30947 -17462899.00263
 91  4  8  0  4 59.9950000  0  5G15G13G19G 2G 6
  22316631.6244   -3942451.73345  -2990508.96861
  21258697.7734   -8358936.62846  -6190736.37161
  21655659.812     2124136.055 5   1712997.71221
  19455725.4684  -26556746.85548 -20513228.25264
  19716970.9444  -22686799.29447 -17488196.36063
 91  4  8  0  5 14.9950000  0  5G15G13G19G 2G 6
  22312666.179    -3963291.363 5  -3006747.57721
  21246773.608    -8421592.760 6  -6239559.16721
  21661210.132     2153273.335 5   1735701.96621
  19454465.7654  -26563370.87548 -20518389.82464
  19710799.4294  -22719224.28847 -17513462.55263
 91  4  8  0  5 29.9950000  0  5G15G13G19G 2G 6
  22308723.554    -3984012.177 5  -3022893.58221
  21234862.116    -8484175.718 6  -6288324.93121
  21666762.7104    2182473.47545   1758455.24061
  19453213.6014  -26569950.33548 -20523516.66264
  19704639.7654  -22751597.13347 -17538688.11663
 91  4  8  0  5 44.9950000  0  5G15G13G19G 2G 6
  22304805.429    -4004619.012 5  -3038950.79321
  21222967.0774   -8546690.57946  -6337037.65161
  21672330.7414    2211731.09645   1781253.28061
  19451969.2574  -26576490.73748 -20528613.07164
  19698489.0774  -22783922.82147 -17563876.92863
 91  4  8  0  5 59.9950000  0  5G15G13G19G 2G 6
  22300903.530    -4025107.721 5  -3054915.94021
  21211086.062    -8609132.774 6  -6385693.74321
  21677909.640     2241050.450 5   1804099.46821
  19450733.0464  -26582987.85048 -20533675.75264
  19692344.7334  -22816196.92147 -17589025.54463
 91  4  8  0  6 14.9950000  0  5G15G13G19G 2G 6
  22297027.5234   -4045480.76945  -3070791.00961
  21199213.7804   -8671504.60846  -6434295.00961
  21683502.554     2270428.870 5   1826991.64821
  19449503.7494  -26589443.99048 -20538706.50364
  19686214.0774  -22848421.67847 -17614135.71163
 91  4  8  0  6 29.9950000  0  5G15G13G19G 2G 6
  22293168.7024   -4065738.46545  -3086576.14361
  21187361.4684   -8733806.12746  -6482841.48161
  21689098.6084    2299865.59345   1849929.27661
  19448284.2804  -26595860.11948 -20543706.07864
  19680093.0384  -22880597.47547 -17639207.72264
 91  4  8  0  6 44.9950000  0  5G15G13G19G 2G 6
  22289336.2024   -4085876.43245  -3102268.00261
  21175517.5384   -8796033.06246  -6531329.85861
  21694713.8904    2329364.59045   1872915.39861
  19447069.8434  -26602232.35148 -20548671.44564
  19673979.2104  -22912720.00247 -17664238.22264
 91  4  8  0  6 59.9950000  0  5G15G13G19G 2G 6
  22285532.6324   -4105895.36345  -3117867.10361
  21163692.765    -8858185.971 6  -6579760.51221
  21700341.210     2358924.767 5   1895949.23621
  19445865.4834  -26608561.56948 -20553603.30064
  19667874.3984  -22944789.92347 -17689227.73863
 91  4  8  0  7 14.9950000  0  5G15G13G19G 2G 6
  22281749.7574   -4125794.51845  -3133372.87861
  21151878.421    -8920263.789 6  -6628132.67621
  21705977.2494    2388546.93445   1919031.31661
  19444669.4294  -26614847.20848 -20558501.19564
  19661784.2804  -22976806.34847 -17714175.55863
 91  4  8  0  7 29.9950000  0  5G15G13G19G 2G 6
  22277978.0234   -4145575.08545  -3148786.24961
  21140079.187    -8982267.702 6  -6676447.24121
  21711628.2334    2418229.52345   1942160.53961
  19443481.1324  -26621090.67648 -20563366.22564
  19655700.9444  -23008770.33247 -17739082.52763
 91  4  8  0  7 44.9950000  0  5G15G13G19G 2G 6
  22274237.2734   -4165246.35145  -3164114.43861
  21128291.304    -9044206.796 6  -6724711.31221
  21717286.452     2447962.837 5   1965329.24421
  19442299.4214  -26627301.70248 -20568205.98064
  19649627.3354  -23040691.28247 -17763955.95763
 91  4  8  0  7 59.9950000  0  5G15G13G19G 2G 6
  22270514.5854   -4184795.33745  -3179347.35661
  21116519.718    -9106067.758 6  -6772914.48721
  21722955.3274    2477759.41345   1988547.25761
  19441126.804   -26633467.440 8 -20573010.44024
  19643563.8904  -23072556.31747 -17788785.81563
 91  4  8  0  8 14.9950000  0  5G15G13G19G 2G 6
  22266816.819    -4204227.660 5  -3194489.34821
  21104764.0154   -9167856.05046  -6821061.05261
  21728635.780     2507613.839 5   2011810.34321
  19439961.4604  -26639593.47448 -20577783.96464
  19637509.5154  -23104370.48647 -17813576.03863
 91  4  8  0  8 29.9950000  0  5G15G13G19G 2G 6
  22263140.9214   -4223540.64745  -3209538.36461
  21093019.304    -9229568.821 6  -6869148.76921
  21734330.108     2537528.301 5   2035120.21721
  19438803.1634  -26645677.40948 -20582524.68464
  19631466.4604  -23136131.32947 -17838324.71263
 91  4  8  0  8 44.9950000  0  5G15G13G19G 2G 6
  22259489.4994   -4242738.69145  -3224497.81861
  21081290.4054   -9291210.60946  -6917181.18261
  21740034.4604    2567498.01845   2058473.14561
  19437654.1014  -26651723.94748 -20587236.26564
  19625431.4834  -23167843.17547 -17863035.20763
 91  4  8  0  8 59.9950000  0  5G15G13G19G 2G 6
  22255858.8514   -4261816.33845  -3239363.43661
  21069572.5464   -9352776.00146  -6965154.05461
  21745748.8124    2597527.86545   2081872.95361
  19436511.5464  -26657728.40948 -20591915.05964
  19619408.6874  -23199500.82747 -17887703.46964
 91  4  8  0  9 14.9950000  0  5G15G13G19G 2G 6
  22252255.1404   -4280771.71745  -3254133.80561
  21057872.351    -9414262.625 6  -7013065.55821
  21751473.8664    2627619.68845   2105321.01861
  19435375.5694  -26663688.88648 -20596559.57564
  19613392.2104  -23231102.17947 -17912327.86264
 91  4  8  0  9 29.9950000  0  5G15G13G19G 2G 6
  22248668.5234   -4299607.17345  -3268810.71461
  21046188.233    -9475672.595 6  -7060917.31221
  21757211.179     2657770.982 5   2128815.45421
  19434246.7734  -26669607.90948 -20601171.79664
  19607389.3194  -23262649.26747 -17936909.96864
 91  4  8  0  9 44.9950000  0  5G15G13G19G 2G 6
  22245107.304    -4318319.045 5  -3283391.33021
  21034516.976    -9537002.132 6  -7108706.39621
  21762956.2024    2687985.20745   2152358.89361
  19433131.9374  -26675481.95548 -20605748.96564
  19601397.7804  -23294138.41147 -17961446.92664
 91  4  8  0  9 59.9950000  0  5G15G13G19G 2G 6
  22241570.226    -4336911.835 5  -3297879.16221
  21022861.546    -9598255.751 6  -7156436.32621
  21768720.632     2718257.171 5   2175947.34521
  19432023.1244  -26681316.10148 -20610295.04264
  19595414.8124  -23325574.28847 -17985942.37364
 91  4  8  0 10 14.9950000  0  5G15G13G19G 2G 6
  22238055.8124   -4355379.02845  -3312269.12261
  21011218.6944   -9659426.59646  -7204101.76361
  21774494.5694    2748593.38945   2199585.87261
  19430919.6634  -26687104.00148 -20614805.08464
  19589444.163   -23356950.220 7 -18010391.11424
 91  4  8  0 10 29.9950000  0  5G15G13G19G 2G 6
  22234563.0074   -4373732.17345  -3326570.20561
  20999591.233    -9720526.171 6  -7251711.66921
  21780276.5854    2778981.81545   2223265.06661
  19429824.6324  -26692857.35048 -20619288.20164
  19583482.0384  -23388277.80647 -18034802.18264
 91  4  8  0 10 44.9950000  0  5G15G13G19G 2G 6
  22231094.1714   -4391962.79845  -3340775.82461
  20987979.483    -9781545.895 6  -7299259.35321
  21786071.523     2809430.616 5   2246991.30221
  19428738.7184  -26698568.01348 -20623738.06264
  19577532.9294  -23419548.46047 -18059168.88864
 91  4  8  0 10 59.9950000  0  5G15G13G19G 2G 6
  22227646.905    -4410072.876 5  -3354887.51521
  20976382.382    -9842487.695 6  -7346746.32621
  21791876.210     2839937.585 5   2270762.85921
  19427660.5694  -26704238.21848 -20628156.39564
  19571591.8044  -23450764.00747 -18083492.66064
 91  4  8  0 11 14.9950000  0  5G15G13G19G 2G 6
  22224220.562    -4428066.020 5  -3368908.06821
  20964799.835    -9903354.828 6  -7394175.11621
  21797688.468     2870499.008 5   2294576.84421
  19426587.8904  -26709871.60648 -20632546.03664
  19565663.3824  -23481927.95147 -18107776.21064
 91  4  8  0 11 29.9950000  0  5G15G13G19G 2G 6
  22220822.054    -4445936.444 5  -3382833.03221
  20953231.702    -9964141.335 6  -7441541.08821
  21803523.0694    2901120.41245   2318437.58361
  19425522.804   -26715462.900 8 -20636902.87524
  19559744.1084  -23513034.47347 -18132015.02363
 91  4  8  0 11 44.9950000  0  5G15G13G19G 2G 6
  22217442.1164   -4463687.72946  -3396665.13561
  20941678.210   -10024850.672 6  -7488846.90821
  21809358.9834    2931797.88845   2342342.01061
  19424467.1244  -26721015.73948 -20641229.75564
  19553833.8664  -23544087.04447 -18156211.79264
 91  4  8  0 11 59.9950000  0  5G15G13G19G 2G 6
  22214086.6014   -4481313.01445  -3410399.06061
  20930143.2884  -10085475.81946  -7536087.13561
  21815202.202     2962538.022 5   2366295.26521
  19423419.273   -26726523.354 8 -20645521.39224
  19547935.3194  -23575078.57147 -18180360.99764
 91  4  8  0 12 14.9950000  0  5G15G13G19G 2G 6
  22210758.944    -4498815.557 5  -3424037.33521
  20918621.741   -10146020.231 6  -7583264.45621
  21821071.9444    2993337.05345   2390294.39361
  19422379.2494  -26731989.50048 -20649780.71464
  19542050.3744  -23606012.55647 -18204465.36364
 91  4  8  0 12 29.9950000  0  5G15G13G19G 2G 6
  22207454.538    -4516199.419 5  -3437583.13221
  20907117.4374  -10206487.38646  -7630381.56461
  21826937.226     3024190.828 5   2414336.21521
  19421344.1484  -26737418.35548 -20654010.98364
  19536173.3744  -23636892.81647 -18228527.86664
 91  4  8  0 12 44.9950000  0  5G15G13G19G 2G 6
  22204165.6084   -4533464.69345  -3451036.54061
  20895624.3584  -10266877.37946  -7677438.54261
  21832821.7334    3055098.95245   2438420.35461
  19420318.9134  -26742810.33148 -20658212.51364
  19530309.5154  -23667719.32747 -18252548.49064
 91  4  8  0 12 59.9950000  0  5G15G13G19G 2G 6
  22200903.3274   -4550605.05045  -3464392.61961
  20884147.3194  -10327183.72246  -7724430.35461
  21838717.616     3086067.279 5   2462551.40421
  19419302.187   -26748159.295 8 -20662380.52624
  19524452.5234  -23698485.89847 -18276522.40464
 91  4  8  0 13 14.9950000  0  5G15G13G19G 2G 6
  22197664.983    -4567623.164 5  -3477653.43621
  20872687.6944  -10387408.83946  -7771358.87461
  21844618.968     3117093.329 5   2486727.43921
  19418290.7734  -26753468.09248 -20666517.23964
  19518609.5304  -23729194.79547 -18300451.37964
 91  4  8  0 13 29.9950000  0  5G15G13G19G 2G 6
  22194451.5154   -4584519.31945  -3490819.21961
  20861240.312   -10447552.770 6  -7818224.13221
  21850532.7024    3148176.20045   2510947.76961
  19417288.726   -26758737.237 8 -20670623.05524
  19512777.5384  -23759846.45747 -18324335.75664
 91  4  8  0 13 44.9950000  0  5G15G13G19G 2G 6
  22191260.968    -4601294.135 5  -3503890.44121
  20849813.1554  -10507616.22546  -7865026.68061
  21856456.101     3179314.973 4   2535211.61821
  19416292.3434  -26763967.78448 -20674698.79364
  19506954.0694  -23790441.30147 -18348175.86064
 91  4  8  0 13 59.9950000  0  5G15G13G19G 2G 6
  22188089.6714   -4617945.41745  -3516865.42061
  20838399.757   -10567596.838 6  -7911764.67821
  21862391.8824    3210511.61645   2559520.57661
  19415304.3744  -26769157.55848 -20678742.76564
  19501143.1164  -23820977.20747 -18371970.03664
 91  4  8  0 14 14.9950000  0  5G15G13G19G 2G 6
  22184946.608    -4634478.652 5  -3529748.40021
  20826999.429   -10627499.909 6  -7958442.25321
  21868340.507     3241760.120 4   2583869.98321
  19414325.4604  -26774312.43848 -20682759.54564
  19495341.7884  -23851459.51947 -18395722.45164
 91  4  8  0 14 29.9950000  0  5G15G13G19G 2G 6
  22181818.788    -4650892.488 5  -3542538.36721
  20815614.288   -10687323.567 6  -8005057.95021
  21874298.3664    3273061.94445   2608260.87161
  19413352.429   -26779431.158 8 -20686748.14824
  19489552.3744  -23881886.66447 -18419431.87864
 91  4  8  0 14 44.9950000  0  5G15G13G19G 2G 6
  22178721.6164   -4667179.06745  -3555229.13861
  20804248.2334  -10747059.91446  -8051605.61161
  21880264.9914    3304424.71945   2632699.31361
  19412382.8044  -26784506.13948 -20690702.67364
  19483772.3584  -23912250.82247 -18443092.22664
 91  4  8  0 14 59.9950000  0  5G15G13G19G 2G 6
  22175645.843    -4683339.806 5  -3567821.87321
  20792893.741   -10806710.322 6  -8098086.30721
  21886247.3354    3335846.46145   2657183.66961
  19411426.4374  -26789538.92448 -20694624.31764
  19478008.0384  -23942553.08247 -18466704.34764
 91  4  8  0 15 14.9950000  0  5G15G13G19G 2G 6
  22172594.968    -4699376.640 6  -3580318.06221
  20781562.187   -10866276.646 6  -8144501.48921
  21892235.7654    3367325.01045   2681712.28661
  19410475.4524  -26794531.63848 -20698514.73564
  19472252.6874  -23972795.44947 -18490269.79664
 91  4  8  0 15 29.9950000  0  5G15G13G19G 2G 6
  22169565.007    -4715289.439 6  -3592717.59721
  20770240.616   -10925758.362 6  -8190850.74521
  21898237.6084    3398860.57145   2706285.36161
  19409533.9294  -26799484.27548 -20702373.92264
  19466509.5464  -24002977.41847 -18513788.17764
 91  4  8  0 15 44.9950000  0  5G15G13G19G 2G 6
  22166557.4834   -4731081.89345  -3605023.35161
  20758941.140   -10985159.215 6  -8237136.98121
  21904249.132     3430448.652 5   2730899.35021
  19408598.319   -26804401.061 8 -20706205.17224
  19460778.3824  -24033103.12147 -18537262.71864
 91  4  8  0 15 59.9950000  0  5G15G13G19G 2G 6
  22163577.9994   -4746747.75245  -3617230.47161
  20747649.249   -11044472.615 6  -8283355.07421
  21910269.6554    3462095.48945   2755559.11361
  19407670.7264  -26809275.71848 -20710003.59764
  19455054.8824  -24063165.70647 -18560688.07564
 91  4  8  0 16 14.9950000  0  5G15G13G19G 2G 6
  22160621.804    -4762292.529 5  -3629343.25021
  20736379.101   -11103704.164 6  -8329509.38921
  21916304.9914    3493795.35345   2780260.20861
  19406749.4764  -26814114.14748 -20713773.80064
  19449346.6634  -24093171.05347 -18584068.82264
 91  4  8  0 16 29.9950000  0  5G15G13G19G 2G 6
  22157686.1014   -4777711.73145  -3641358.15161
  20725125.280   -11162848.873 6  -8375596.05121
  21922350.9684    3525552.59945   2805006.02761
  19405836.4994  -26818911.81748 -20717512.23864
  19443645.9134  -24123114.23347 -18607401.13464
 91  4  8  0 16 44.9950000  0  5G15G13G19G 2G 6
  22154777.038    -4793004.311 5  -3653274.39621
  20713883.983   -11221905.535 6  -8421614.08321
  21928403.9134    3557367.81945   2829796.97861
  19404932.2804  -26823668.15048 -20721218.46264
  19437962.9994  -24152994.15947 -18630684.15664
 91  4  8  0 16 59.9950000  0  5G15G13G19G 2G 6
  22151888.702    -4808179.173 5  -3665098.90921
  20702661.866   -11280883.014 6  -8467570.42821
  21934465.3044    3589231.82145   2854625.95761
  19404032.8044  -26828392.12648 -20724899.47864
  19432287.9764  -24182819.66147 -18653924.77164
 91  4  8  0 17 14.9950000  0  5G15G13G19G 2G 6
  22149022.8904   -4823226.53545  -3676824.08961
  20691458.624   -11339771.594 6  -8513457.49021
  21940539.366     3621154.098 5   2879500.36721
  19403140.8124  -26833074.35748 -20728547.96164
  19426623.1484  -24212581.20747 -18677115.55564
 91  4  8  0 17 29.9950000  0  5G15G13G19G 2G 6
  22146185.179    -4838147.546 5  -3688450.81021
  20680267.819   -11398571.971 6  -8559275.83221
  21946624.4134    3653133.60045   2904419.33861
  19402258.5774  -26837715.93448 -20732164.76864
  19420970.9764  -24242279.07147 -18700256.71364
 91  4  8  0 17 44.9950000  0  5G15G13G19G 2G 6
  22143370.1944   -4852943.53045  -3699980.10261
  20669094.351   -11457285.112 6  -8605026.19821
  21952719.3354    3685168.60645   2929381.57061
  19401382.9214  -26842318.41848 -20735751.11164
  19415332.4914  -24271914.73647 -18723349.40764
 91  4  8  0 17 59.9950000  0  5G15G13G19G 2G 6
  22140579.1164   -4867611.39945  -3711409.54461
  20657939.6324  -11515907.93546  -8650706.17561
  21958829.249     3717261.809 5   2954389.16121
  19400515.5544  -26846878.88848 -20739304.72064
  19409705.0934  -24301485.20847 -18746391.30164
 91  4  8  0 18 14.9950000  0  5G15G13G19G 2G 6
  22137808.8904   -4882157.61945  -3722744.21361
  20646799.843   -11574446.723 6  -8696320.68421
  21964946.6874    3749406.36945   2979436.74861
  19399654.2734  -26851403.93248 -20742830.72064
  19404087.1714  -24330996.60547 -18769387.16064
 91  4  8  0 18 29.9950000  0  5G15G13G19G 2G 6
  22135067.702    -4896581.807 5  -3733983.79021
  20635674.4374  -11632900.91846  -8741869.28661
  21971069.1084    3781602.40245   3004524.46861
  19398798.4214  -26855893.45848 -20746329.05064
  19398485.5934  -24360448.62847 -18792336.75364
 91  4  8  0 18 44.9950000  0  5G15G13G19G 2G 6
  22132345.0074   -4910879.43446  -3745124.74761
  20624567.843   -11691265.712 6  -8787348.21921
  21977210.1714    3813854.04644   3029655.50761
  19397951.8904  -26860343.29248 -20749796.44764
  19392891.8434  -24389836.73647 -18815236.54264
 91  4  8  0 18 59.9950000  0  5G15G13G19G 2G 6
  22129648.952    -4925048.361 5  -3756165.41721
  20613479.8824  -11749538.91946  -8832755.78661
  21983357.6794    3846163.42445   3054831.52361
  19397114.6874  -26864751.48648 -20753231.39864
  19387311.0694  -24419158.45747 -18838084.60764
 91  4  8  0 19 14.9950000  0  5G15G13G19G 2G 6
  22126982.8434   -4939089.27046  -3767106.34861
  20602410.1634  -11807721.10146  -8878092.43461
  21989518.5384    3878529.51344   3080051.73361
  19396282.2804  -26869118.69448 -20756634.41664
  19381745.8984  -24448414.47347 -18860881.46964
 91  4  8  0 19 29.9950000  0  5G15G13G19G 2G 6
  22124330.054    -4953005.570 5  -3777950.15521
  20591351.858   -11865815.319 6  -8923360.51821
  21995687.8824    3910949.02744   3105313.58861
  19395458.5774  -26873448.42848 -20760008.23164
  19376188.3664  -24477607.81247 -18883629.49364
 91  4  8  0 19 44.9950000  0  5G15G13G19G 2G 6
  22121705.905    -4966793.463 5  -3788693.92321
  20580315.6944  -11923818.01546  -8968557.30461
  22001865.835     3943425.146 4   3130619.52521
  19394642.7334  -26877737.30748 -20763350.20164
  19370646.4524  -24506734.65947 -18906325.70264
 91  4  8  0 19 59.9950000  0  5G15G13G19G 2G 6
  22119101.7884   -4980455.78045  -3799339.81861
  20569294.1944  -11981731.79946  -9013684.79761
  22008051.796     3975954.670 4   3155967.09721
  19393832.9684  -26881988.34348 -20766662.69364
  19365115.5234  -24535797.92647 -18928972.37264
 91  4  8  0 20 14.9950000  0  5G15G13G19G 2G 6
  22116530.0154   -4993992.61645  -3809887.95861
  20558292.655   -12039556.091 6  -9058742.55421
  22014257.390     4008537.703 4   3181356.36921
  19393030.7654  -26886201.54548 -20769945.70364
  19359598.4914  -24564797.36047 -18951569.30064
 91  4  8  0 20 29.9950000  0  5G15G13G19G 2G 6
  22113977.7654   -5007397.69145  -3820333.43661
  20547306.429   -12097284.569 6  -9103725.65121
  22020468.1084    4041180.08444   3206791.86961
  19392239.1554  -26890370.99448 -20773194.61464
  19354091.5624  -24593726.47647 -18974111.43664
 91  4  8  0 20 44.9950000  0  5G15G13G19G 2G 6
  22111450.366    -5020672.874 5  -3830677.68221
  20536337.8194  -12154919.04146  -9148635.51361
  22026689.749     4073879.550 4   3232271.87421
  19391453.7804  -26894498.79148 -20776411.07464
  19348602.1634  -24622587.14947 -18996600.24064
 91  4  8  0 20 59.9950000  0  5G15G13G19G 2G 6
  22108949.1084   -5033818.75445  -3840921.16661
  20525389.0074  -12212459.79346  -9193472.34661
  22032922.4054    4106635.36644   3257795.75561
  19390676.6404  -26898585.63448 -20779595.62364
  19343121.2964  -24651379.74947 -19019036.00164
 91  4  8  0 21 14.9950000  0  5G15G13G19G 2G 6
  22106472.569    -5046831.725 5  -3851061.10121
  20514457.7884  -12269902.85346  -9238233.05161
  22039168.6244    4139450.99745   3283366.25361
  19389907.1634  -26902627.76448 -20782745.33364
  19337655.9604  -24680100.40747 -19041415.70064
 91  4  8  0 21 29.9950000  0  5G15G13G19G 2G 6
  22104019.335    -5059715.546 5  -3861100.40021
  20503543.9444  -12327251.89646  -9282920.48461
  22045426.921     4172322.257 4   3308980.11821
  19389143.9214  -26906629.39948 -20785863.48464
  19332203.5854  -24708752.82547 -19063742.22864
 91  4  8  0 21 44.9950000  0  5G15G13G19G 2G 6
  22101599.101    -5072473.592 6  -3871041.68421
  20492649.5694  -12384510.14746  -9327537.18861
  22051688.726     4205245.532 4   3334634.48921
  19388389.1484  -26910594.09248 -20788952.85564
  19326764.4294  -24737340.46247 -19086018.27364
 91  4  8  0 21 59.9950000  0  5G15G13G19G 2G 6
  22099189.687    -5085103.553 5  -3880883.15521
  20481771.2654  -12441675.59246  -9372081.56761
  22057962.3194    4238222.72945   3360330.88061
  19387643.3744  -26914519.80847 -20792011.85564
  19321335.8664  -24765860.93047 -19108241.98464
 91  4  8  0 22 14.9950000  0  5G15G13G19G 2G 6
  22096811.9134   -5097597.27745  -3890618.47861
  20470912.3274  -12498739.74146  -9416547.00961
  22064254.648     4271261.771 5   3386075.48521
  19386906.4684  -26918398.46748 -20795034.17864
  19315923.7184  -24794305.76847 -19130406.76564
 91  4  8  0 22 29.9950000  0  5G15G13G19G 2G 6
  22094464.4834   -5109956.95346  -3900249.34961
  20460070.8434  -12555704.29446  -9460934.84061
  22070550.5934    4304360.55445   3411866.61961
  19386176.2494  -26922232.54148 -20798021.76664
  19310525.374   -24822677.090 7 -19152514.25724
 91  4  8  0 22 44.9950000  0  5G15G13G19G 2G 6
  22092139.757    -5122188.621 6  -3909780.48921
  20449250.8904  -12612574.93946  -9505249.49961
  22076863.179     4337512.773 5   3437699.41621
  19385451.9294  -26926028.16947 -20800979.39364
  19305139.3584  -24850980.60747 -19174568.91764
 91  4  8  0 22 59.9950000  0  5G15G13G19G 2G 6
  22089829.444    -5134297.392 5  -3919215.84421
  20438441.6404  -12669356.59346  -9549494.83061
  22083175.062     4370713.012 5   3463569.61621
  19384737.9994  -26929790.47848 -20803911.05864
  19299763.5464  -24879221.24747 -19196574.57764
 91  4  8  0 23 14.9950000  0  5G15G13G19G 2G 6
  22087549.1324   -5146275.60345  -3928549.47661
  20427657.5934  -12726041.81846  -9593665.00461
  22089507.991     4403968.464 4   3489482.83321
  19384028.8514  -26933512.28748 -20806811.16364
  19294402.2184  -24907391.44647 -19218525.34964
 91  4  8  0 23 29.9950000  0  5G15G13G19G 2G 6
  22085297.2264   -5158119.47045  -3937778.41461
  20416889.4374  -12782626.66846  -9637756.97861
  22095843.2964    4437282.55245   3515441.73961
  19383330.6874  -26937189.78648 -20809676.74364
  19289056.7184  -24935487.36947 -19240418.24764
 91  4  8  0 23 44.9950000  0  5G15G13G19G 2G 6
  22083066.8194   -5169833.40946  -3946906.11361
  20406136.6794  -12839115.18946  -9681773.88161
  22102195.0234    4470650.84744   3541442.89361
  19382638.2264  -26940827.55447 -20812511.36364
  19283722.8124  -24963513.01247 -19262256.38264
 91  4  8  0 23 59.9950000  0  5G15G13G19G 2G 6
  22080861.0854   -5181414.45145  -3955930.26961
  20395407.3984  -12895504.14646  -9725713.20861
  22108556.015     4504076.116 4   3567488.41921
  19381953.7884  -26944422.88348 -20815312.91464
  19278404.679   -24991465.357 7 -19284037.40224
 91  4  8  0 24 14.9950000  0  5G15G13G19G 2G 6
  22078689.9444   -5192858.86646  -3964847.95461
  20384699.2734  -12951789.70346  -9769571.95761
  22114929.687     4537561.637 4   3593580.93121
  19381277.8354  -26947972.24548 -20818078.64764
  19273098.9684  -25019340.56847 -19305758.31864
 91  4  8  0 24 29.9950000  0  5G15G13G19G 2G 6
  22076533.9294   -5204173.52145  -3973664.52761
  20374007.3434  -13007978.56746  -9813355.36261
  22121310.835     4571100.640 4   3619715.05621
  19380609.3354  -26951482.43747 -20820813.85964
  19267812.1874  -25047145.23247 -19327424.25864
 91  4  8  0 24 44.9950000  0  5G15G13G19G 2G 6
  22074403.999    -5215355.707 6  -3982377.87521
  20363332.3434  -13064067.74646  -9857061.10261
  22127704.6014    4604695.47444   3645892.73161
  19379951.7264  -26954950.95847 -20823516.60164
  19262532.5934  -25074876.58447 -19349033.07564
 91  4  8  0 24 59.9940000  0  5G15G13G19G 2G 6
  22072301.713    -5226410.558 6  -3990991.99221
  20352673.3614  -13120059.14546  -9900690.63561
  22134103.744     4638337.956 4   3672107.54921
  19379296.8544  -26958383.66248 -20826191.43564
  19257268.8854  -25102538.39247 -19370587.70164
 91  4  8  0 25 14.9940000  0  5G15G13G19G 2G 6
  22070222.8774   -5237332.49646  -3999502.54961
  20342039.979   -13175952.756 6  -9944243.97621
  22140518.9864    4672039.32644   3698368.21961
  19378651.4474  -26961773.78147 -20828833.08664
  19252019.3384  -25130126.93947 -19392085.24064
 91  4  8  0 25 29.9940000  0  5G15G13G19G 2G 6
  22068167.525    -5248121.778 6  -4007909.74121
  20331425.2834  -13231745.91846  -9987719.04861
  22146943.455     4705795.981 4   3724671.97821
  19378013.9324  -26965122.37547 -20831442.37764
  19246781.025   -25157641.412 7 -19413525.06524
 91  4  8  0 25 44.9940000  0  5G15G13G19G 2G 6
  22066144.5724   -5258782.62046  -4016216.86561
  20320823.1044  -13287442.59146 -10031118.92761
  22153377.5574    4739603.38144   3751015.26461
  19377383.7134  -26968433.92847 -20834022.81264
  19241558.205   -25185086.009 7 -19434910.43924
 91  4  8  0 25 59.9940000  0  5G15G13G19G 2G 6
  22064139.3854   -5269309.14246  -4024419.30461
  20310246.2754  -13343036.86246 -10074439.01961
  22159820.322     4773467.159 4   3777402.51021
  19376760.5184  -26971702.73147 -20836569.92964
  19236353.2604  -25212454.60747 -19456236.59564
 91  4  8  0 26 14.9940000  0  5G15G13G19G 2G 6
  22062153.7364   -5279705.79045  -4032520.55261
  20299687.7214  -13398532.83846 -10117682.50661
  22166275.9794    4807382.72044   3803830.09361
  19376146.7994  -26974933.40347 -20839087.33364
  19231158.3304  -25239751.47147 -19477506.85164
 91  4  8  0 26 29.9940000  0  5G15G13G19G 2G 6
  22060202.8614   -5289975.75445  -4040523.08661
  20289142.6194  -13453933.76946 -10160851.93961
  22172734.565     4841346.519 4   3830295.24521
  19375540.3384  -26978129.37147 -20841577.69464
  19225977.361   -25266979.658 7 -19498723.59824
 91  4  8  0 26 44.9940000  0  5G15G13G19G 2G 6
  22058274.3774   -5300111.75145  -4048421.23261
  20278618.6114  -13509231.98546 -10203941.32361
  22179209.2294    4875365.59544   3856803.50461
  19374938.7914  -26981283.26247 -20844035.27164
  19220809.096   -25294131.818 7 -19519881.09824
 91  4  8  0 26 59.9940000  0  5G15G13G19G 2G 6
  22056372.4864   -5310110.05545  -4056212.05261
  20268116.3304  -13564423.55846 -10246947.62461
  22185698.205     4909443.821 4   3883357.85621
  19374345.2444  -26984391.39347 -20846457.19064
  19215658.1744  -25321203.83447 -19540976.14864
 91  4  8  0 27 14.9940000  0  5G15G13G19G 2G 6
  22054491.7134   -5319977.41545  -4063900.87061
  20257630.8694  -13619515.29946 -10289876.12261
  22192185.619     4943573.945 4   3909952.61821
  19373763.3464  -26987460.85147 -20848848.97864
  19210521.3694  -25348202.43647 -19562013.99464
 91  4  8  0 27 29.9940000  0  5G15G13G19G 2G 6
  22052643.572    -5329713.353 5  -4071487.28421
  20247166.940   -13674506.160 6 -10332726.01221
  22198692.979     4977756.309 4   3936588.10821
  19373185.4714  -26990491.28947 -20851210.35264
  19205396.7684  -25375126.81947 -19582994.00464
 91  4  8  0 27 44.9940000  0  5G15G13G19G 2G 6
  22050816.775    -5339310.891 5  -4078965.84021
  20236722.604   -13729389.000 6 -10375491.72921
  22205210.9714    5011997.72844   3963269.61461
  19372618.7914  -26993475.66447 -20853535.83764
  19200287.205   -25401969.671 7 -19603910.49224
 91  4  8  0 27 59.9940000  0  5G15G13G19G 2G 6
  22049015.1044   -5348774.59546  -4086340.11961
  20226298.2524  -13784167.98146 -10418176.52261
  22211738.4324    5046293.30244   3989993.31661
  19372059.6904  -26996418.67247 -20855829.09264
  19195196.252   -25428735.671 7 -19624767.09224
 91  4  8  0 28 14.9940000  0  5G15G13G19G 2G 6
  22047236.4474   -5358110.49446  -4093614.80661
  20215895.7604  -13838849.07546 -10460785.03961
  22218272.221     5080636.900 4   4016754.43221
  19371505.6904  -26999326.32747 -20858094.79664
  19190115.721   -25455430.497 7 -19645568.23024
 91  4  8  0 28 29.9940000  0  5G15G13G19G 2G 6
  22045487.6824   -5367317.31745  -4100788.91961
  20205509.229   -13893430.572 6 -10503315.94421
  22224813.682     5115029.706 4   4043553.90621
  19370960.3934  -27002197.48347 -20860332.06064
  19185048.369   -25482052.543 7 -19666312.66024
 91  4  8  0 28 44.9940000  0  5G15G13G19G 2G 6
  22043760.6904   -5376386.05645  -4107855.44361
  20195142.0964  -13947903.63746 -10545762.36461
  22231374.010     5149480.254 4   4070398.37021
  19370421.5104  -27005023.79247 -20862534.38064
  19179998.236   -25508592.970 7 -19686993.48924
 91  4  8  0 28 59.9940000  0  5G15G13G19G 2G 6
  22042063.924    -5385318.277 5  -4114815.57621
  20184796.8304  -14002269.63246 -10588125.35061
  22237942.0804    5183986.82844   4097286.48761
  19369892.6114  -27007806.48548 -20864702.71364
  19174963.635   -25535052.955 7 -19707611.63524
 91  4  8  0 29 14.9940000  0  5G15G13G19G 2G 6
  22040386.6274   -5394121.51345  -4121675.19761
  20174468.2294  -14056535.90346 -10630410.62561
  22244517.5804    5218541.32244   4124211.93461
  19369368.4404  -27010553.52748 -20866843.26264
  19169942.963   -25561440.101 7 -19728173.02824
 91  4  8  0 29 29.9940000  0  5G15G13G19G 2G 6
  22038736.2604   -5402792.33045  -4128431.64761
  20164163.400   -14110698.886 6 -10672615.42221
  22251103.236     5253147.120 4   4151177.35921
  19368854.1824  -27013261.46848 -20868953.34164
  19164937.166   -25587750.928 7 -19748674.94924
 91  4  8  0 29 44.9940000  0  5G15G13G19G 2G 6
  22037109.479    -5411330.184 5  -4135084.45921
  20153875.0414  -14164757.44246 -10714738.82961
  22257698.5804    5287804.94043   4178183.32561
  19368345.9474  -27015929.49048 -20871032.33264
  19159944.096   -25613984.033 7 -19769116.30724
 91  4  8  0 29 59.9940000  0  5G15G13G19G 2G 6
  22035512.9944   -5419731.24646  -4141630.71661
  20143610.5414  -14218707.54446 -10756777.75361
  22264300.6274    5322518.18044   4205232.45561
  19367847.3304  -27018554.08348 -20873077.47064
  19154966.400   -25640135.761 7 -19789494.25624
 91  4  8  0 30 14.9940000  0  5G15G13G19G 2G 6
  22033937.533    -5427998.634 5  -4148072.78821
  20133361.1044  -14272552.38846 -10798734.64061
  22270918.2604    5357283.43144   4232322.13961
  19367353.5724  -27021138.64148 -20875091.41264
  19150003.807   -25666209.034 7 -19809811.07024
 91  4  8  0 30 29.9940000  0  5G15G13G19G 2G 6
  22032388.377    -5436137.257 6  -4154414.52521
  20123135.1824  -14326296.63846 -10840613.16061
  22277542.2834    5392095.48544   4259448.29261
  19366868.5414  -27023688.12247 -20877078.02564
  19145058.299   -25692208.576 7 -19830070.43424
 91  4  8  0 30 44.9940000  0  5G15G13G19G 2G 6
  22030867.7754   -5444144.17945  -4160653.65861
  20112927.1194  -14379937.26846 -10882410.92761
  22284177.940     5426957.144 4   4286613.08321
  19366390.7054  -27026199.69848 -20879035.09664
  19140125.471   -25718131.325 7 -19850269.95524
 91  4  8  0 30 59.9940000  0  5G15G13G19G 2G 6
  22029368.5964   -5452010.93045  -4166783.53961
  20102742.1904  -14433465.50746 -10924121.12261
  22290821.2754    5461876.76244   4313823.04461
  19365922.9944  -27028664.99348 -20880956.10264
  19135206.510   -25743968.419 7 -19870402.73124
 91  4  8  0 31 14.9940000  0  5G15G13G19G 2G 6
  22027901.8074   -5459742.03045  -4172807.74661
  20092575.1974  -14486885.39246 -10965746.89261
  22297477.994     5496849.743 4   4341074.56321
  19365462.7214  -27031088.47848 -20882844.53264
  19130306.869   -25769724.272 7 -19890472.20624
 91  4  8  0 31 29.9940000  0  5G15G13G19G 2G 6
  22026449.6904   -5467337.57645  -4178726.32861
  20082429.6434  -14540196.74646 -11007288.08161
  22304143.072     5531875.814 4   4368367.48021
  19365006.6044  -27033470.37248 -20884700.54964
  19125419.713   -25795398.699 7 -19910478.23124
 91  4  8  0 31 44.9940000  0  5G15G13G19G 2G 6
  22025036.3694   -5474799.15445  -4184540.51261
  20072307.627   -14593401.240 6 -11048746.01821
  22310814.9164    5566952.87144   4395700.11661
  19364562.0724  -27035812.62547 -20886525.68064
  19120550.299   -25820993.237 7 -19930422.00224
 91  4  8  0 31 59.9940000  0  5G15G13G19G 2G 6
  22023639.9324   -5482130.81045  -4190253.45161
  20062202.9244  -14646502.64346 -11090123.62161
  22317507.1664    5602076.60144   4423069.13361
  19364123.3614  -27038119.26348 -20888323.06564
  19115693.994   -25846511.680 7 -19950306.48024
 91  4  8  0 32 14.9940000  0  5G15G13G19G 2G 6
  22022268.166    -5489322.368 5  -4195857.21621
  20052116.0964  -14699490.39746 -11131412.65961
  22324200.408     5637257.327 4   4450482.54221
  19363693.8304  -27040379.95448 -20890084.64264
  19110853.822   -25871943.497 7 -19970123.45724
 91  4  8  0 32 29.9940000  0  5G15G13G19G 2G 6
  22020923.229    -5496381.388 5  -4201357.72921
  20042054.0494  -14752372.15046 -11172619.10461
  22330901.6114    5672487.02844   4477934.11661
  19363270.5574  -27042602.48448 -20891816.48664
  19106030.611   -25897296.197 7 -19989878.78724
 91  4  8  0 32 44.9940000  0  5G15G13G19G 2G 6
  22019605.8224   -5503305.83245  -4206753.35961
  20032014.096   -14805146.034 6 -11213741.49221
  22337615.690     5707767.178 4   4505425.00421
  19362856.4004  -27044785.43148 -20893517.48464
  19101222.322   -25922567.912 7 -20009571.00624
 91  4  8  0 32 59.9940000  0  5G15G13G19G 2G 6
  22018318.072    -5510096.319 5  -4212044.61021
  20021988.486   -14857812.096 6 -11254779.87321
  22344337.2364    5743097.21744   4532954.78361
  19362447.2524  -27046929.04448 -20895187.83364
  19096428.346   -25947758.703 7 -20029200.17124
 91  4  8  0 33 14.9940000  0  5G15G13G19G 2G 6
  22017045.8154   -5516752.11645  -4217230.92561
  20011989.7754  -14910369.21746 -11295733.36561
  22351069.986     5778477.768 4   4560523.87521
  19362048.5494  -27049032.48948 -20896826.88264
  19091649.9714  -25972867.51947 -20048765.45664
 91  4  8  0 33 29.9940000  0  5G15G13G19G 2G 6
  22015808.479    -5523277.492 5  -4222315.59921
  20002007.3694  -14962821.38546 -11336605.06761
  22357810.635     5813904.445 4   4588128.94121
  19361655.0024  -27051100.32148 -20898438.17864
  19086885.9944  -25997898.47347 -20068270.06764
 91  4  8  0 33 44.9940000  0  5G15G13G19G 2G 6
  22014593.018    -5529670.934 6  -4227297.49021
  19992045.5024  -15015166.91346 -11377393.67661
  22364559.6664    5849378.54643   4615770.96961
  19361266.2294  -27053131.14548 -20900020.63764
  19082138.697   -26022849.848 7 -20087712.67523
 91  4  8  0 33 59.9940000  0  5G15G13G19G 2G 6
  22013400.049    -5535931.283 6  -4232175.65121
  19982104.760   -15067404.341 6 -11418098.05121
  22371323.8544    5884901.13443   4643450.76661
  19360886.7364  -27055123.82948 -20901573.38064
  19077405.2054  -26047720.09747 -20107092.06564
 91  4  8  0 34 14.9940000  0  5G15G13G19G 2G 6
  22012231.6744   -5542059.33946  -4236950.71861
  19972186.361   -15119534.471 6 -11458718.82521
  22378091.4864    5920471.12343   4671167.48761
  19360516.4944  -27057079.18548 -20903097.02964
  19072688.721   -26072510.167 7 -20126408.97523
 91  4  8  0 34 29.9940000  0  5G15G13G19G 2G 6
  22011089.330    -5548054.462 6  -4241622.20021
  19962287.025   -15171556.473 6 -11499255.33321
  22384870.3544    5956088.89144   4698921.45261
  19360150.6584  -27058996.75247 -20904591.22964
  19067986.455   -26097219.078 7 -20145662.64724
 91  4  8  0 34 44.9940000  0  5G15G13G19G 2G 6
  22009982.5024   -5553911.71646  -4246186.26461
  19952408.510   -15223465.112 6 -11539703.52221
  22391659.033     5991759.403 3   4726716.51821
  19359793.2214  -27060871.52648 -20906052.09264
  19063300.854   -26121841.460 7 -20164848.89223
 91  4  8  0 34 59.9940000  0  5G15G13G19G 2G 6
  22008892.479    -5559634.832 6  -4250645.79421
  19942550.275   -15275263.793 6 -11580066.01121
  22398454.611     6027478.733 3   4754549.61921
  19359444.3694  -27062707.26348 -20907482.53364
  19058632.1664  -26146380.85347 -20183970.46764
 91  4  8  0 35 14.9940000  0  5G15G13G19G 2G 6
  22007825.838    -5565232.194 5  -4255007.35521
  19932714.299   -15326960.858 6 -11620349.32721
  22405259.4864    6063237.86243   4782413.74861
  19359098.7684  -27064512.76647 -20908889.41364
  19053976.752   -26170845.767 7 -20203034.01424
 91  4  8  0 35 29.9940000  0  5G15G13G19G 2G 6
  22006786.0494   -5570697.95646  -4259266.35561
  19922896.244   -15378549.849 6 -11660548.43421
  22412069.525     6099042.843 3   4810313.59821
  19358764.3154  -27066281.87548 -20910267.93464
  19049336.1664  -26195229.83547 -20222034.55764
 91  4  8  0 35 44.9940000  0  5G15G13G19G 2G 6
  22005770.1904   -5576026.96646  -4263418.80761
  19913100.713   -15430025.776 6 -11700659.43321
  22418895.7914    6134898.27543   4838252.76361
  19358436.7364  -27068009.74748 -20911614.32264
  19044712.5574  -26219527.88547 -20240968.07264
 91  4  8  0 35 59.9940000  0  5G15G13G19G 2G 6
  22004783.861    -5581221.316 5  -4267466.32521
  19903326.611   -15481390.410 6 -11740683.71421
  22425725.9864    6170802.03443   4866229.55661
  19358115.5334  -27069698.40348 -20912930.15664
  19040103.9714  -26243741.72147 -20259835.97064
 91  4  8  0 36 14.9940000  0  5G15G13G19G 2G 6
  22003824.0884   -5586280.32146  -4271408.37761
  19893571.525   -15532642.939 6 -11780620.64521
  22432571.815     6206754.459 3   4894244.29321
  19357800.5414  -27071347.35948 -20914215.05664
  19035512.924   -26267870.331 7 -20278637.46024
 91  4  8  0 36 29.9940000  0  5G15G13G19G 2G 6
  22002880.252    -5591209.629 5  -4275249.37321
  19883840.315   -15583788.468 6 -11820474.19221
  22439423.0334    6242750.19843   4922292.80061
  19357493.5654  -27072962.00648 -20915473.21764
  19030936.1664  -26291918.96047 -20297376.62164
 91  4  8  0 36 44.9940000  0  5G15G13G19G 2G 6
  22001963.299    -5596007.022 5  -4278987.56721
  19874128.283   -15634824.744 6 -11860242.60721
  22446279.6504    6278790.98643   4950376.40161
  19357193.1044  -27074540.43248 -20916703.15764
  19026374.9244  -26315885.45647 -20316051.78864
 91  4  8  0 36 59.9940000  0  5G15G13G19G 2G 6
  22001078.268    -5600669.533 5  -4282620.68021
  19864436.549   -15685748.375 6 -11899923.25021
  22453144.268     6314879.602 3   4978497.26121
  19356900.7364  -27076079.57348 -20917902.48765
  19021830.658   -26339766.436 7 -20334660.31824
 91  4  8  0 37 14.9940000  0  5G15G13G19G 2G 6
  22000218.8074   -5605193.24946  -4286145.61861
  19854771.440   -15736555.386 7 -11939513.02721
  22460021.3074    6351019.86842   5006658.36161
  19356614.7994  -27077575.85148 -20919068.40964
  19017304.572   -26363557.861 7 -20353199.06424
 91  4  8  0 37 29.9940000  0  5G15G13G19G 2G 6
  21999385.9714   -5609584.75346  -4289567.54961
  19845122.979   -15787252.341 6 -11979017.03821
  22466907.8934    6387204.94042   5034854.37361
  19356334.7524  -27079036.08448 -20920206.25064
  19012792.143   -26387266.251 7 -20371673.11124
 91  4  8  0 37 44.9940000  0  5G15G13G19G 2G 6
  21998571.7914   -5613841.80045  -4292884.69061
  19835497.893   -15837836.693 7 -12018433.31021
  22473807.5804    6423436.76143   5063086.80061
  19356067.2444  -27080457.75248 -20921314.03564
  19008297.041   -26410888.969 7 -20390080.39924
 91  4  8  0 37 59.9940000  0  5G15G13G19G 2G 6
  21997791.6194   -5617965.17045  -4296097.66161
  19825892.393   -15888309.137 6 -12057762.38021
  22480705.486     6459714.332 3   5091354.89221
  19355802.4554  -27081841.66848 -20922392.41164
  19003817.8384  -26434426.80147 -20408421.53664
 91  4  8  0 38 14.9940000  0  5G15G13G19G 2G 6
  21997025.424    -5621960.897 5  -4299211.18121
  19816308.369   -15938675.286 6 -12097008.62121
  22487614.9404    6496031.49043   5119653.85461
  19355543.6664  -27083193.90748 -20923446.09964
  18999351.947   -26457885.217 7 -20426700.80324
 91  4  8  0 38 29.9940000  0  5G15G13G19G 2G 6
  21996295.627    -5625818.147 5  -4302216.79921
  19806744.877   -15988923.935 6 -12136163.30521
  22494539.057     6532399.024 3   5147992.05021
  19355296.9864  -27084503.69748 -20924466.70764
  18994907.408   -26481253.102 7 -20444909.52224
 91  4  8  0 38 44.9940000  0  5G15G13G19G 2G 6
  21995587.5964   -5629536.02845  -4305113.82261
  19797204.565   -16039054.074 6 -12175225.64321
  22501470.9164    6568817.54943   5176369.97161
  19355053.9554  -27085770.16048 -20925453.56465
  18990477.447   -26504529.455 7 -20463046.91324
 91  4  8  0 38 59.9940000  0  5G15G13G19G 2G 6
  21994903.041    -5633122.694 6  -4307908.60821
  19787685.924   -16089073.603 6 -12214201.80121
  22508407.1114    6605278.89742   5204781.25261
  19354822.6974  -27087001.52448 -20926413.06465
  18986066.424   -26527722.083 7 -20481119.07124
 91  4  8  0 39 14.9940000  0  5G15G13G19G 2G 6
  21994247.7294   -5636580.10246  -4310602.66761
  19778187.635   -16138984.227 6 -12253093.09021
  22515357.0884    6641780.92643   5233224.26761
  19354592.6974  -27088199.69748 -20927346.70465
  18981665.541   -26550832.664 7 -20499127.29523
 91  4  8  0 39 29.9940000  0  5G15G13G19G 2G 6
  21993617.205    -5639899.368 6  -4313189.09021
  19768715.783   -16188777.307 7 -12291892.79021
  22522309.268     6678332.136 3   5261705.57621
  19354373.3614  -27089355.96548 -20928247.69165
  18977284.721   -26573852.460 7 -20517064.77624
 91  4  8  0 39 44.9940000  0  5G15G13G19G 2G 6
  21993006.674    -5643086.407 5  -4315672.46621
  19759260.088   -16238458.069 6 -12330604.97621
  22529275.5104    6714926.58243   5290220.61161
  19354161.7914  -27090476.06248 -20929120.48965
  18972920.947   -26596786.768 7 -20534935.64524
 91  4  8  0 39 59.9940000  0  5G15G13G19G 2G 6
  21992429.893    -5646135.280 5  -4318048.18821
  19749829.4634  -16288020.39546 -12369224.86861
  22536245.893     6751570.002 3   5318773.78221
  19353954.0254  -27091554.14748 -20929960.55664
  18968575.580   -26619629.427 7 -20552735.10524
 91  4  8  0 40 14.9940000  0  5G15G13G19G 2G 6
  21991876.8774   -5649042.38345  -4320313.43961
  19740417.869   -16337460.614 6 -12407749.61221
  22543228.1904    6788265.52643   5347367.53361
  19353758.0724  -27092586.99648 -20930765.37264
  18964248.486   -26642376.882 7 -20570460.37623
 91  4  8  0 40 29.9940000  0  5G15G13G19G 2G 6
  21991349.283    -5651817.883 5  -4322476.14221
  19731032.9244  -16386788.34846 -12446186.70661
  22550223.7994    6825003.16542   5375994.10661
  19353569.1044  -27093584.50348 -20931542.64764
  18959932.424   -26665038.774 7 -20588118.97224
 91  4  8  0 40 44.9940000  0  5G15G13G19G 2G 6
  21990839.7834   -5654464.15645  -4324538.15661
  19721666.5024  -16436005.88746 -12484537.93761
  22557213.9944    6861780.29342   5404651.42561
  19353385.3934  -27094549.18448 -20932294.34664
  18955638.018   -26687617.233 7 -20605712.55824
 91  4  8  0 40 59.9940000  0  5G15G13G19G 2G 6
  21990367.244    -5656971.380 5  -4326491.80921
  19712325.4634  -16485103.34546 -12522795.59461
  22564223.338     6898606.349 2   5433346.91821
  19353208.5184  -27095471.29348 -20933012.87364
  18951358.854   -26710102.386 7 -20623233.43724
 91  4  8  0 41 14.9940000  0  5G15G13G19G 2G 6
  21989916.1504   -5659342.03546  -4328339.04961
  19703002.846   -16534082.748 6 -12560961.26721
  22571245.143     6935478.775 3   5462078.53121
  19353039.5024  -27096353.20048 -20933700.06764
  18947096.627   -26732496.428 7 -20640683.32424
 91  4  8  0 41 29.9940000  0  5G15G13G19G 2G 6
  21989484.3614   -5661577.89945  -4330081.24761
  19693703.4634  -16582945.46546 -12599036.00861
  22578267.424     6972396.000 3   5490845.05421
  19352881.7524  -27097196.57548 -20934357.24564
  18942852.408   -26754800.537 7 -20658063.13424
 91  4  8  0 41 44.9940000  0  5G15G13G19G 2G 6
  21989091.768    -5663676.225 5  -4331716.28821
  19684430.8934  -16631688.67146 -12637017.63061
  22585303.604     7009360.281 3   5519648.23821
  19352727.7214  -27097998.81048 -20934982.36664
  18938627.221   -26777011.962 7 -20675370.72324
 91  4  8  0 41 59.9940000  0  5G15G13G19G 2G 6
  21988718.518    -5665637.569 5  -4333244.58621
  19675176.8854  -16680312.97946 -12674906.60061
  22592346.111     7046370.896 3   5548487.53321
  19352585.1354  -27098760.47348 -20935575.86564
  18934415.846   -26799131.045 7 -20692606.35524
 91  4  8  0 42 14.9940000  0  5G15G13G19G 2G 6
  21988365.5024   -5667460.57745  -4334665.07861
  19665946.5654  -16728816.61946 -12712701.53661
  22599397.674     7083429.091 3   5577363.89721
  19352445.9324  -27099480.39148 -20936136.84564
  18930225.330   -26821156.108 7 -20709768.72724
 91  4  8  0 42 29.9940000  0  4G15G13G 2G 6
  21988044.8934   -5669149.07945  -4335980.79761
  19656737.6044  -16777203.13446 -12750405.21761
  19352313.8694  -27100162.27848 -20936668.18364
  18926051.088   -26843090.691 7 -20726860.59724
 91  4  8  0 42 44.9940000  0  4G15G13G 2G 6
  21987753.1274   -5670709.12745  -4337196.40561
  19647552.3304  -16825478.56746 -12788022.33861
  19352191.9634  -27100812.34148 -20937174.72364
  18921894.807   -26864940.685 7 -20743886.55424
 91  4  8  0 42 59.9940000  0  4G15G13G 2G 6
  21987482.7054   -5672135.30745  -4338307.69961
  19638387.3614  -16873637.18147 -12825548.42761
  19352077.2364  -27101425.02048 -20937652.12964
  18917754.260   -26886700.325 7 -20760842.10124
 91  4  8  0 43 14.9940000  0  4G15G13G 2G 6
  21987234.260    -5673432.308 5  -4339318.31021
  19629245.3224  -16921683.33547 -12862986.89361
  19351968.2214  -27102005.11348 -20938104.15164
  18913627.822   -26908374.047 7 -20777730.70624
 91  4  8  0 43 29.9940000  0  4G15G13G 2G 6
  21987012.354    -5674584.742 5  -4340216.30421
  19620125.8854  -16969601.56547 -12900325.67261
  19351863.9714  -27102537.12648 -20938518.70864
  18909523.2444  -26929946.29547 -20794540.23464
 91  4  8  0 43 44.9940000  0  4G15G13G 2G 6
  21986820.3854   -5675600.55045  -4341007.83161
  19611030.3464  -17017399.37747 -12937570.62561
  19351769.7754  -27103028.85648 -20938901.87964
  18905437.979   -26951424.591 7 -20811276.55724
 91  4  8  0 43 59.9940000  0  4G15G13G 2G 6
  21986654.463    -5676485.063 5  -4341697.04521
  19601958.0024  -17065081.67147 -12974725.56361
  19351683.6504  -27103485.66948 -20939257.83764
  18901365.541   -26972813.908 7 -20827943.54124
 91  4  8  0 44 14.9940000  0  4G15G13G 2G 6
  21986513.682    -5677231.120 5  -4342278.37221
  19592905.8154  -17112641.28947 -13011784.91061
  19351603.0334  -27103900.47148 -20939581.06464
  18897312.9554  -26994106.90747 -20844535.47964
 91  4  8  0 44 29.9940000  0  4G15G13G 2G 6
  21986397.088    -5677840.624 5  -4342753.30021
  19583879.1044  -17160080.30947 -13048750.28661
  19351533.9244  -27104275.51648 -20939873.31064
  18893279.604   -27015305.552 7 -20861053.88924
 91  4  8  0 44 44.9940000  0  4G15G13G 2G 6
  21986299.322    -5678310.562 5
  19574875.7524  -17207395.22947 -13085618.95661
  19351468.0574  -27104607.80248
  18889264.315   -27036406.456 7 -20877496.13723
 91  4  8  0 44 59.9940000  0  4G15G13G 2G 6
  21986242.1504   -5678645.13645
  19565896.6194  -17254589.52747 -13122393.63762
  19351418.3384  -27104900.88448
  18885265.893   -27057413.219 7 -20893865.03024
 91  4  8  0 45 14.9940000  0  4G15G13G 2G 6
  21986201.080    -5678849.759 5
  19556935.0884  -17301668.79347 -13159078.69461
  19351364.4864  -27105160.57048 -20940562.96264
  18881287.197   -27078331.182 7 -20910164.72524
 91  4  8  0 45 29.9940000  0  4G15G13G 2G 6
  21986189.854    -5678916.592 5
  19547999.8154  -17348624.82347 -13195667.70761
  19351322.9714  -27105379.00248 -20940733.16764
  18877324.166   -27099152.290 7 -20926388.95124
 91  4  8  0 45 44.9940000  0  4G15G13G 2G 6
  21986204.658    -5678846.011 5
  19539087.9714  -17395458.03647 -13232161.02461
  19351291.4244  -27105556.64248 -20940871.59564
  18873379.002   -27119876.648 7 -20942537.78424
 91  4  8  0 45 59.9940000  0  4G15G13G 2G 6
  21986241.1044   -5678648.23045
  19530196.9404  -17442178.34747 -13268566.36661
  19351262.2834  -27105703.53548
  18869453.018   -27140514.166 7 -20958618.94724
 91  4  8  0 46 14.9940000  0  4G15G13G 2G 6
  21986301.830    -5678314.182 5
  19521329.8934  -17488776.10147 -13304876.21261
  19351241.9404  -27105810.43748
  18865545.291   -27161055.082 7 -20974624.83624
